[[{"header":{"parameterUnit":"m.s-1","parameterCategory":1,"la1":30.6,"la2":28.766,"lo1":-90.7593,"lo2":-88.6598,"dy":0.0162,"dx":0.0183,"nx":116,"ny":114,"refTime":"2024-06-16T06:00:00:Z","depth":0,"parameterNumber":2,"parameterNumberName":"U-component_of_WINDS"},"data":[0.0,0.0,0.0,0.0,0.0,0.0,0.0,0.0,0.0,0.0,0.0,0.0,0.0,0.0,0.0,0.0,0.0,0.0,0.0,0.0,0.0,0.0,0.0,0.0,0.0,0.0,0.0,0.0,0.0,0.0,0.0,0.0,0.0,0.0,0.0,0.0,0.0,0.0,0.0,0.0,0.0,0.0,0.0,0.0,0.0,0.0,0.0,0.0,0.0,0.0,0.0,0.0,0.0,0.0,0.0,0.0,0.0,0.0,0.0,0.0,0.0,0.0,0.0,0.0,0.0,0.0,0.0,0.0,0.0,0.0,0.0,0.0,0.0,0.0,0.0,0.0,0.0,0.0,0.0,0.0,0.0,0.0,0.0,0.0,0.0,0.0,0.0,0.0,0.0,0.0,0.0,0.0,0.0,0.0,0.0,0.0,0.0,0.0,0.0,0.0,0.0,0.0,0.0,0.0,0.0,0.0,0.0,0.0,0.0,0.0,0.0,0.0,0.0,0.0,0.0,0.0,0.0,0.0,0.0,0.0,0.0,0.0,0.0,0.0,0.0,0.0,0.0,0.0,0.0,0.0,0.0,0.0,0.0,0.0,0.0,0.0,0.0,0.0,0.0,0.0,0.0,0.0,0.0,0.0,0.0,0.0,0.0,0.0,0.0,0.0,0.0,0.0,0.0,0.0,0.0,0.0,0.0,0.0,0.0,0.0,0.0,0.0,0.0,0.0,0.0,0.0,0.0,0.0,0.0,0.0,0.0,0.0,0.0,0.0,0.0,0.0,0.0,0.0,0.0,0.0,0.0,0.0,0.0,0.0,0.0,0.0,0.0,0.0,0.0,0.0,0.0,0.0,0.0,0.0,0.0,0.0,0.0,0.0,0.0,0.0,0.0,0.0,0.0,0.0,0.0,0.0,0.0,0.0,0.0,0.0,0.0,0.0,0.0,0.0,0.0,0.0,0.0,0.0,0.0,0.0,0.0,0.0,0.0,0.0,0.0,0.0,0.0,0.0,0.0,0.0,0.0,0.0,0.0,0.0,0.0,0.0,0.0,0.0,0.0,0.0,0.0,0.0,0.0,0.0,0.0,0.0,0.0,0.0,0.0,0.0,0.0,0.0,0.0,0.0,0.0,0.0,0.0,0.0,0.0,0.0,0.0,0.0,0.0,0.0,0.0,0.0,0.0,0.0,0.0,0.0,0.0,0.0,0.0,0.0,0.0,0.0,0.0,0.0,0.0,0.0,0.0,0.0,0.0,0.0,0.0,0.0,0.0,0.0,0.0,0.0,0.0,0.0,0.0,0.0,0.0,0.0,0.0,0.0,0.0,0.0,0.0,0.0,0.0,0.0,0.0,0.0,0.0,0.0,0.0,0.0,0.0,0.0,0.0,0.0,0.0,0.0,0.0,0.0,0.0,0.0,0.0,0.0,0.0,0.0,0.0,0.0,0.0,0.0,0.0,0.0,0.0,0.0,0.0,0.0,0.0,0.0,0.0,0.0,0.0,0.0,0.0,0.0,0.0,0.0,0.0,0.0,0.0,0.0,0.0,0.0,0.0,0.0,0.0,0.0,0.0,0.0,0.0,0.0,0.0,0.0,0.0,0.0,0.0,0.0,0.0,0.0,0.0,0.0,0.0,0.0,0.0,0.0,0.0,0.0,0.0,0.0,0.0,0.0,0.0,0.0,0.0,0.0,0.0,0.0,0.0,0.0,0.0,0.0,0.0,0.0,0.0,0.0,0.0,0.0,0.0,0.0,0.0,0.0,0.0,0.0,0.0,0.0,0.0,0.0,0.0,0.0,0.0,0.0,0.0,0.0,0.0,0.0,0.0,0.0,0.0,0.0,0.0,0.0,0.0,0.0,0.0,0.0,0.0,0.0,0.0,0.0,0.0,0.0,0.0,0.0,0.0,0.0,0.0,0.0,0.0,0.0,0.0,0.0,0.0,0.0,0.0,0.0,0.0,0.0,0.0,0.0,0.0,0.0,0.0,0.0,0.0,0.0,0.0,0.0,0.0,0.0,0.0,0.0,0.0,0.0,0.0,0.0,0.0,0.0,0.0,0.0,0.0,0.0,0.0,0.0,0.0,0.0,0.0,0.0,0.0,0.0,0.0,0.0,0.0,0.0,0.0,0.0,0.0,0.0,0.0,0.0,0.0,0.0,0.0,0.0,0.0,0.0,0.0,0.0,0.0,0.0,0.0,0.0,0.0,0.0,0.0,0.0,0.0,0.0,0.0,0.0,0.0,0.0,0.0,0.0,0.0,0.0,0.0,0.0,0.0,0.0,0.0,0.0,0.0,0.0,0.0,0.0,0.0,0.0,0.0,0.0,0.0,0.0,0.0,0.0,0.0,0.0,0.0,0.0,0.0,0.0,0.0,0.0,0.0,0.0,0.0,0.0,0.0,0.0,0.0,0.0,0.0,0.0,0.0,0.0,0.0,0.0,0.0,0.0,0.0,0.0,0.0,0.0,0.0,0.0,0.0,0.0,0.0,0.0,0.0,0.0,0.0,0.0,0.0,0.0,0.0,0.0,0.0,0.0,0.0,0.0,0.0,0.0,0.0,0.0,0.0,0.0,0.0,0.0,0.0,0.0,0.0,0.0,0.0,0.0,0.0,0.0,0.0,0.0,0.0,0.0,0.0,0.0,0.0,0.0,0.0,0.0,0.0,0.0,0.0,0.0,0.0,0.0,0.0,0.0,0.0,0.0,0.0,0.0,0.0,0.0,0.0,0.0,0.0,0.0,0.0,0.0,0.0,0.0,0.0,0.0,0.0,0.0,0.0,0.0,0.0,0.0,0.0,0.0,0.0,0.0,0.0,0.0,0.0,0.0,0.0,0.0,0.0,0.0,0.0,0.0,0.0,0.0,0.0,0.0,0.0,0.0,0.0,0.0,0.0,0.0,0.0,0.0,0.0,0.0,0.0,0.0,0.0,0.0,0.0,0.0,0.0,0.0,0.0,0.0,0.0,0.0,0.0,0.0,0.0,0.0,0.0,0.0,0.0,0.0,0.0,0.0,0.0,0.0,0.0,0.0,0.0,0.0,0.0,0.0,0.0,0.0,0.0,0.0,0.0,0.0,0.0,0.0,0.0,0.0,0.0,0.0,0.0,0.0,0.0,0.0,0.0,0.0,0.0,0.0,0.0,0.0,0.0,0.0,0.0,0.0,0.0,0.0,0.0,0.0,0.0,0.0,0.0,0.0,0.0,0.0,0.0,0.0,0.0,0.0,0.0,0.0,0.0,0.0,0.0,0.0,0.0,0.0,0.0,0.0,0.0,0.0,0.0,0.0,0.0,0.0,0.0,0.0,0.0,0.0,0.0,0.0,0.0,0.0,0.0,0.0,0.0,0.0,0.0,0.0,0.0,0.0,0.0,0.0,0.0,0.0,0.0,0.0,0.0,0.0,0.0,0.0,0.0,0.0,0.0,0.0,0.0,0.0,0.0,0.0,0.0,0.0,0.0,0.0,0.0,0.0,0.0,0.0,0.0,0.0,0.0,0.0,0.0,0.0,0.0,0.0,0.0,0.0,0.0,0.0,0.0,0.0,0.0,0.0,0.0,0.0,0.0,0.0,0.0,0.0,0.0,0.0,0.0,0.0,0.0,0.0,0.0,0.0,0.0,0.0,0.0,0.0,0.0,0.0,0.0,0.0,0.0,0.0,0.0,0.0,0.0,0.0,0.0,0.0,0.0,0.0,0.0,0.0,0.0,0.0,0.0,0.0,0.0,0.0,0.0,0.0,0.0,0.0,0.0,0.0,0.0,0.0,0.0,0.0,0.0,0.0,0.0,0.0,0.0,0.0,0.0,0.0,0.0,0.0,0.0,0.0,0.0,0.0,0.0,0.0,0.0,0.0,0.0,0.0,0.0,0.0,0.0,0.0,0.0,0.0,0.0,0.0,0.0,0.0,0.0,0.0,0.0,0.0,0.0,0.0,0.0,0.0,0.0,0.0,0.0,0.0,0.0,0.0,0.0,0.0,0.0,0.0,0.0,0.0,0.0,0.0,0.0,0.0,0.0,0.0,0.0,0.0,0.0,0.0,0.0,0.0,0.0,0.0,0.0,0.0,0.0,0.0,0.0,0.0,0.0,0.0,0.0,0.0,0.0,0.0,0.0,0.0,0.0,0.0,0.0,0.0,0.0,0.0,0.0,0.0,0.0,0.0,0.0,0.0,0.0,0.0,0.0,0.0,0.0,0.0,0.0,0.0,0.0,0.0,0.0,0.0,0.0,0.0,0.0,0.0,0.0,0.0,0.0,0.0,0.0,0.0,0.0,0.0,0.0,0.0,0.0,0.0,0.0,0.0,0.0,0.0,0.0,0.0,0.0,0.0,0.0,0.0,0.0,0.0,0.0,0.0,0.0,0.0,0.0,0.0,0.0,0.0,0.0,0.0,0.0,0.0,0.0,0.0,0.0,0.0,0.0,0.0,0.0,0.0,0.0,0.0,0.0,0.0,0.0,0.0,0.0,0.0,0.0,0.0,0.0,0.0,0.0,0.0,0.0,0.0,0.0,0.0,0.0,0.0,0.0,0.0,0.0,0.0,0.0,0.0,0.0,0.0,0.0,0.0,0.0,0.0,0.0,0.0,0.0,0.0,0.0,0.0,0.0,0.0,0.0,0.0,0.0,0.0,0.0,0.0,0.0,0.0,0.0,0.0,0.0,0.0,0.0,0.0,0.0,0.0,0.0,0.0,0.0,0.0,0.0,0.0,0.0,0.0,0.0,0.0,0.0,0.0,0.0,0.0,0.0,0.0,0.0,0.0,0.0,0.0,0.0,0.0,0.0,0.0,0.0,0.0,0.0,0.0,0.0,0.0,0.0,0.0,0.0,0.0,0.0,0.0,0.0,0.0,0.0,0.0,0.0,0.0,0.0,0.0,0.0,0.0,0.0,0.0,0.0,0.0,0.0,0.0,0.0,0.0,0.0,0.0,0.0,0.0,0.0,0.0,0.0,0.0,0.0,0.0,0.0,0.0,0.0,0.0,0.0,0.0,0.0,0.0,0.0,0.0,0.0,0.0,0.0,0.0,0.0,0.0,0.0,0.0,0.0,0.0,0.0,0.0,0.0,0.0,0.0,0.0,0.0,0.0,0.0,0.0,0.0,0.0,0.0,0.0,0.0,0.0,0.0,0.0,0.0,0.0,0.0,0.0,0.0,0.0,0.0,0.0,0.0,0.0,0.0,0.0,0.0,0.0,0.0,0.0,0.0,0.0,0.0,0.0,0.0,0.0,0.0,0.0,0.0,0.0,0.0,0.0,0.0,0.0,0.0,0.0,0.0,0.0,0.0,0.0,0.0,0.0,0.0,0.0,0.0,0.0,0.0,0.0,0.0,0.0,0.0,0.0,0.0,0.0,0.0,0.0,0.0,0.0,0.0,0.0,0.0,0.0,0.0,0.0,0.0,0.0,0.0,0.0,0.0,0.0,0.0,0.0,0.0,0.0,0.0,0.0,0.0,0.0,0.0,0.0,0.0,0.0,0.0,0.0,0.0,0.0,0.0,0.0,0.0,0.0,0.0,0.0,0.0,0.0,0.0,0.0,0.0,0.0,0.0,0.0,0.0,0.0,0.0,0.0,0.0,0.0,0.0,0.0,0.0,0.0,0.0,0.0,0.0,0.0,0.0,0.0,0.0,0.0,0.0,0.0,0.0,0.0,0.0,0.0,0.0,0.0,0.0,0.0,0.0,0.0,0.0,0.0,0.0,0.0,0.0,0.0,0.0,0.0,0.0,0.0,0.0,0.0,0.0,0.0,0.0,0.0,0.0,0.0,0.0,0.0,0.0,0.0,0.0,0.0,0.0,0.0,0.0,0.0,0.0,0.0,0.0,0.0,0.0,0.0,0.0,0.0,0.0,0.0,0.0,0.0,0.0,0.0,0.0,0.0,0.0,0.0,0.0,0.0,0.0,0.0,0.0,0.0,0.0,0.0,0.0,0.0,0.0,0.0,0.0,0.0,0.0,0.0,0.0,0.0,0.0,0.0,0.0,0.0,0.0,0.0,0.0,0.0,0.0,0.0,0.0,0.0,0.0,0.0,0.0,0.0,0.0,0.0,0.0,0.0,0.0,0.0,0.0,0.0,0.0,0.0,0.0,0.0,1.7838,1.6757,0.0,0.0,0.0,0.0,0.0,0.0,0.0,0.0,0.0,0.0,0.0,0.0,0.0,0.0,0.0,0.0,0.0,0.0,0.0,0.0,0.0,0.0,0.0,1.1171,1.1701,1.2259,1.2559,1.2873,1.326,1.2812,1.2579,1.2676,1.1922,1.1592,1.1824,1.1749,1.2087,1.2815,1.3108,1.3659,1.4417,1.4257,1.3861,1.3266,0.0,0.0,0.0,0.0,0.0,0.0,0.0,0.0,0.0,0.0,0.0,0.0,0.0,0.0,0.0,0.0,0.0,0.0,0.0,0.0,0.0,0.0,0.0,0.0,0.0,0.0,0.0,0.0,0.0,0.0,0.0,0.0,0.0,0.0,0.0,0.0,0.0,0.0,0.0,0.0,0.0,0.0,0.0,0.0,0.0,0.0,0.0,0.0,0.0,0.0,0.0,0.0,0.0,0.0,0.0,0.0,0.0,0.0,0.0,0.0,0.0,0.0,0.0,0.0,0.0,0.0,0.0,0.0,0.0,0.0,2.0068,1.8893,0.0,0.0,0.0,0.0,0.0,0.0,0.0,0.0,0.0,0.0,0.0,0.0,0.0,0.0,0.0,0.0,0.0,0.0,0.0,0.0,0.0,1.0547,1.1508,1.2204,1.2793,1.3293,1.3733,1.3987,1.3997,1.3617,1.3383,1.3402,1.2549,1.2289,1.2715,1.2686,1.3147,1.4192,1.5008,1.5928,1.6963,1.7557,1.7289,1.6303,1.5247,0.0,0.0,0.0,0.0,0.0,0.0,0.0,0.0,0.0,0.0,0.0,0.0,0.0,0.0,0.0,0.0,0.0,0.0,0.0,0.0,0.0,0.0,0.0,0.0,0.0,0.0,0.0,0.0,0.0,0.0,0.0,0.0,0.0,0.0,0.0,0.0,0.0,0.0,0.0,0.0,0.0,0.0,0.0,0.0,0.0,0.0,0.0,0.0,0.0,0.0,0.0,0.0,0.0,0.0,0.0,0.0,0.0,0.0,0.0,0.0,0.0,0.0,0.0,2.4005,2.4117,2.4364,2.478,2.4976,2.4857,2.252,2.1411,2.1174,1.9901,0.0,0.0,0.0,0.0,0.0,0.0,0.0,0.0,0.0,0.0,0.0,0.0,0.0,0.0,0.0,0.0,0.0,0.0,0.0,1.1851,1.1998,1.3278,1.4152,1.4232,1.4301,1.4356,1.442,1.3995,1.3766,1.3813,1.3695,1.3619,1.3629,1.3907,1.448,1.5391,1.7312,1.8682,1.953,2.0074,2.0404,2.0392,1.7853,1.6303,1.5533,0.0,0.0,0.0,0.0,0.0,0.0,0.0,0.0,0.0,0.0,0.0,0.0,0.0,0.0,0.0,0.0,0.0,0.0,0.0,0.0,0.0,0.0,0.0,0.0,0.0,0.0,0.0,0.0,0.0,0.0,0.0,0.0,0.0,0.0,0.0,0.0,0.0,0.0,0.0,0.0,0.0,1.7132,1.748,0.0,0.0,0.0,0.0,0.0,0.0,0.0,0.0,0.0,0.0,0.0,0.0,0.0,2.3756,2.4556,2.5401,2.6083,2.6516,2.6744,2.6889,2.6898,2.7176,2.7251,2.7251,2.6873,0.0,2.3094,2.2681,0.0,0.0,0.0,0.0,0.0,0.0,0.0,0.0,0.0,0.0,0.0,0.0,0.0,0.0,0.0,0.0,0.0,0.0,0.0,0.0,0.0,1.4052,1.4912,1.5223,1.5475,1.5636,1.5671,1.4878,1.4431,1.4464,1.4147,1.406,1.429,1.4993,1.623,1.7969,1.9771,2.0986,2.1593,2.2076,2.2406,2.2473,2.1128,1.9531,1.772,1.6375,0.0,0.0,0.0,0.0,0.0,0.0,0.0,0.0,0.0,0.0,0.0,0.0,0.0,0.0,0.0,0.0,0.0,0.0,0.0,0.0,0.0,0.0,0.0,0.0,0.0,0.0,0.0,0.0,0.0,0.0,0.0,0.0,0.0,0.0,0.0,0.0,0.0,0.0,0.0,1.7151,1.8672,1.8886,1.9155,1.9263,0.0,0.0,0.0,0.0,0.0,0.0,0.0,0.0,0.0,2.4501,2.5547,2.6344,2.6852,2.7509,2.814,2.8785,2.8928,2.9109,2.9364,2.945,2.95,2.95,2.95,2.8655,2.71,2.5317,2.4004,2.3088,0.0,0.0,0.0,0.0,2.2734,2.2791,0.0,0.0,0.0,0.0,0.0,0.0,0.0,0.0,0.0,0.0,0.0,0.0,1.3958,1.5074,1.5974,1.6488,1.6863,1.7009,1.6873,1.5968,1.5354,1.5253,1.4934,1.4908,1.5265,1.6526,1.8171,2.0238,2.1756,2.2804,2.3385,2.3802,2.3949,2.3911,2.3702,2.2196,1.9767,1.8268,1.6889,1.5618,0.0,0.0,0.0,0.0,0.0,0.0,0.0,0.0,0.0,0.0,0.0,0.0,0.0,0.0,0.0,0.0,0.0,0.0,0.0,0.0,0.0,0.0,0.0,0.0,0.0,0.0,0.0,0.0,0.0,0.0,0.0,0.0,0.0,0.0,0.0,0.0,0.0,1.8711,1.9974,2.035,2.0752,2.1052,0.0,0.0,0.0,0.0,0.0,0.0,2.4763,2.5837,2.6655,2.7058,2.8049,2.8736,2.9121,2.9434,3.0019,3.0859,3.0859,3.1094,3.1543,3.1426,3.1387,3.1367,3.1299,3.0957,3.0332,2.7773,2.6387,2.5864,2.5314,2.5033,2.4936,2.4981,2.4996,2.5006,0.0,0.0,0.0,0.0,0.0,0.0,0.0,0.0,0.0,0.0,0.0,1.4261,1.5221,1.6666,1.7767,1.8232,1.8299,1.812,1.7678,1.71,1.6595,1.6151,1.6528,1.6783,1.6792,1.878,2.0336,2.1416,2.2914,2.4068,2.4907,2.5178,2.5196,2.5012,2.479,2.3491,2.1306,2.0149,1.8489,1.6553,1.5593,0.0,0.0,0.0,0.0,0.0,0.0,0.0,0.0,0.0,0.0,0.0,0.0,0.0,0.0,0.0,0.0,0.0,0.0,0.0,0.0,0.0,0.0,0.0,0.0,0.0,0.0,0.0,0.0,0.0,0.0,0.0,0.0,0.0,0.0,0.0,0.0,0.0,0.0,2.1906,2.2401,0.0,0.0,0.0,0.0,2.4456,2.5397,2.6467,2.7724,2.8213,2.8935,2.997,3.0067,3.0488,3.1318,3.1357,3.1816,3.2656,3.2656,3.2891,3.325,3.2871,3.2695,3.2676,3.2316,3.1855,3.1318,2.9989,2.8914,2.8059,2.7335,2.6807,2.641,2.6546,2.6593,2.6597,0.0,0.0,0.0,0.8905,0.8905,0.9049,0.953,1.0001,1.0665,1.1677,1.3074,1.4474,1.5756,1.6979,1.8008,1.8784,1.8851,1.874,1.8489,1.7894,1.743,1.7185,1.737,1.7974,1.9054,2.0362,2.172,2.3175,2.4299,2.5168,2.5787,2.5872,2.5784,2.5544,2.5347,2.455,2.3248,2.1502,1.9926,1.8455,1.7252,1.5946,0.0,0.0,0.0,0.0,0.0,0.0,0.0,0.0,0.0,0.0,0.0,0.0,0.0,0.0,0.0,0.0,0.0,0.0,0.0,0.0,0.0,0.0,0.0,0.0,0.0,0.0,0.0,0.0,0.0,0.0,0.0,0.0,0.0,0.0,0.0,0.0,0.0,2.3243,2.4394,0.0,2.5239,2.5766,2.6339,2.6957,2.7846,2.865,2.9396,3.0094,3.079,3.1475,3.1738,3.2285,3.3144,3.3164,3.3457,3.4023,3.4023,3.4101,3.4238,3.4082,3.4023,3.4004,3.3643,3.3411,3.3154,3.2183,3.0928,2.9582,2.906,2.8625,2.8314,2.8351,2.8236,2.7997,0.8921,0.8864,0.0,0.8774,0.8886,0.9174,0.9662,1.0266,1.1107,1.2277,1.3706,1.5146,1.6541,1.771,1.871,1.9425,1.9428,1.93,1.906,1.8355,1.7932,1.7811,1.8184,1.9128,2.065,2.1503,2.2636,2.4069,2.4848,2.5511,2.6034,2.5966,2.5829,2.5666,2.5436,2.4877,2.4025,2.2529,2.1165,1.9958,1.863,1.7371,1.6202,0.0,0.0,0.0,0.0,0.0,0.0,0.0,0.0,0.0,0.0,0.0,0.0,0.0,0.0,0.0,0.0,0.0,0.0,0.0,0.0,0.0,0.0,0.0,0.0,0.0,0.0,0.0,0.0,0.0,0.0,0.0,0.0,0.0,0.0,2.2342,2.3805,2.4603,2.591,2.684,2.713,2.7651,2.8288,2.8983,2.9591,3.0152,3.0731,3.1416,3.2026,3.2452,3.2845,3.3347,3.394,3.394,3.4152,3.4558,3.4558,3.4636,3.4771,3.4636,3.4558,3.4558,3.4159,3.3936,3.3785,3.3138,3.2006,3.0704,3.0274,2.9835,2.9392,2.9162,2.8774,2.8301,0.8731,0.8697,0.8641,0.8516,0.8889,0.9369,0.9907,1.0798,1.195,1.3488,1.4905,1.6276,1.7564,1.8947,1.9935,2.0279,2.0129,1.98,1.9348,1.8561,1.8108,1.8051,1.9059,2.0206,2.1391,2.2193,2.3077,2.3991,2.4467,2.504,2.5648,2.5456,2.5362,2.5362,2.5082,2.4467,2.3593,2.3183,2.2247,2.0931,1.9657,1.8616,1.7769,0.0,0.0,0.0,0.0,0.0,0.0,0.0,0.0,0.0,0.0,0.0,0.0,0.0,0.0,0.0,0.0,0.0,0.0,0.0,0.0,0.0,0.0,0.0,0.0,0.0,0.0,0.0,0.0,0.0,0.0,0.0,0.0,0.0,2.2305,2.389,2.5251,2.6069,2.6952,2.7784,2.8587,2.8682,2.922,3.046,3.0536,3.0914,3.1784,3.22,3.2598,3.3033,3.3416,3.3643,3.3643,3.3643,3.3851,3.4334,3.4301,3.4509,3.4868,3.4471,3.4301,3.4263,3.3799,3.341,3.3059,3.2725,3.2088,3.1324,3.0868,3.0288,2.9598,2.8898,2.8191,2.7492,0.8703,0.8628,0.8537,0.8495,0.8838,0.9286,0.9793,1.0652,1.1762,1.3215,1.4637,1.6173,1.7895,1.8897,1.975,2.052,2.0245,1.9897,1.9692,1.9125,1.8896,1.9089,1.9881,2.0699,2.1525,2.2385,2.3191,2.3933,2.4349,2.4662,2.4825,2.4776,2.4654,2.4459,2.4367,2.4091,2.3645,2.3244,2.2753,2.2097,2.0618,1.9708,1.9058,0.0,0.0,0.0,0.0,0.0,0.0,0.0,0.0,0.0,0.0,0.0,0.0,0.0,0.0,0.0,0.0,0.0,0.0,0.0,0.0,0.0,0.0,0.0,0.0,0.0,0.0,0.0,0.0,0.0,0.0,0.0,2.1415,2.2624,2.3329,2.4906,2.6405,2.7501,2.8559,2.9419,2.992,3.026,3.0713,3.1387,3.1425,3.1784,3.2617,3.2768,3.3165,3.3937,3.4036,3.4244,3.4546,3.4546,3.4603,3.4717,3.4477,3.443,3.4508,3.4121,3.3927,3.3927,3.3489,3.3124,3.2796,3.2416,3.1618,3.0695,3.0817,3.0217,2.9312,2.9127,2.8422,2.748,0.8628,0.8509,0.846,0.8593,0.8954,0.9375,0.9852,1.0867,1.2027,1.3255,1.4797,1.6308,1.7706,1.8778,1.9613,2.0193,1.9839,1.9593,1.9588,1.9221,1.9196,1.9625,2.0362,2.1093,2.1774,2.2469,2.3112,2.3706,2.3925,2.4035,2.4035,2.3911,2.3762,2.3569,2.3488,2.327,2.302,2.2768,2.2532,2.2189,2.116,2.0638,2.0325,1.9124,1.8292,1.7659,1.6825,1.6035,1.5325,1.5002,0.0,0.0,0.0,0.0,0.0,0.0,0.0,0.0,0.0,0.0,0.0,0.0,0.0,0.0,0.0,0.0,0.0,0.0,0.0,0.0,0.0,0.0,0.0,0.0,2.3096,2.4395,2.5049,2.6127,2.7138,2.8024,2.8975,2.9726,3.0162,3.0544,3.0908,3.1188,3.1334,3.1643,3.211,3.228,3.2666,3.3363,3.3547,3.375,3.399,3.399,3.399,3.399,3.3782,3.3678,3.3678,3.3277,3.3103,3.3068,3.2684,3.2228,3.1718,3.1472,3.0728,2.9754,0.0,0.0,0.0,0.0,2.7351,2.6574,0.8481,0.8411,0.8457,0.8731,0.9164,0.962,1.0083,1.1246,1.2463,1.3508,1.5155,1.6565,1.7384,1.8612,1.9427,1.9528,1.919,1.9032,1.9219,1.9058,1.9226,1.9737,2.0561,2.1316,2.1976,2.2386,2.2804,2.3213,2.3241,2.3301,2.3258,2.3017,2.2883,2.2883,2.2629,2.2384,2.2122,2.2122,2.1962,2.1667,2.137,2.1337,2.1345,2.0224,1.9717,1.9367,1.8073,1.7248,1.6723,1.6131,0.0,0.0,0.0,0.0,0.0,0.0,0.0,0.0,0.0,0.0,0.0,0.0,0.0,0.0,0.0,0.0,0.0,0.0,0.0,0.0,0.0,0.0,0.0,0.0,2.4827,2.6209,2.6969,2.7368,2.7723,2.8149,2.8787,2.9371,2.9825,3.0133,3.0359,3.0408,3.0688,3.0918,3.0981,3.1338,0.0,0.0,0.0,3.2666,3.2631,3.2631,3.2596,3.2561,3.2526,3.2491,3.2491,3.2088,3.1894,3.1824,3.1559,3.0958,3.0231,3.0231,2.9552,2.8568,2.9302,2.8962,2.789,2.6505,2.5767,2.5364,0.8319,0.8533,0.871,0.8707,0.9325,0.9968,1.0431,1.1317,1.2398,1.367,1.5083,1.6436,1.7668,1.839,1.888,1.9091,1.8901,1.8752,1.8746,1.9195,1.948,1.9557,2.0593,2.1235,2.1369,2.172,2.1937,2.203,2.2348,2.2524,2.2524,2.2721,2.2802,2.2802,2.2775,2.2557,2.2265,2.2265,2.2032,2.17,2.1617,2.1478,2.1144,2.0285,1.9939,1.9799,1.8974,1.8417,1.799,1.7606,1.6877,1.6072,1.5716,1.5414,0.0,0.0,0.0,0.0,0.0,0.0,0.0,0.0,0.0,0.0,0.0,0.0,0.0,0.0,0.0,0.0,0.0,0.0,0.0,2.4772,2.6018,2.6992,2.7421,2.8102,2.8769,2.9389,2.9594,2.9843,3.0251,3.0351,3.0387,3.0411,3.071,3.1048,3.1356,3.1779,3.2169,3.2577,3.2666,3.2561,3.2228,3.2228,3.2088,3.1823,3.147,0.0,3.1329,3.0887,3.0567,3.0318,3.0247,2.9783,2.9015,2.9015,2.8346,2.7347,2.749,2.7439,2.7135,2.6191,2.58,2.5612,0.834,0.8534,0.8783,0.9178,0.9532,0.9974,1.0646,1.132,1.2224,1.3528,1.4603,1.5674,1.6723,1.7122,1.747,1.7921,1.8203,1.8406,1.8541,1.9172,1.9729,2.0067,2.0793,2.1271,2.1436,2.1617,2.1799,2.2006,2.2204,2.2386,2.2541,2.2562,2.2607,2.2607,2.2457,2.2306,2.2154,2.195,2.1729,2.1525,2.1373,2.1195,2.101,2.072,2.0604,2.0497,1.9837,1.9268,1.8756,1.8467,1.7825,1.7082,1.675,1.6456,1.6066,0.0,0.0,0.0,0.0,0.0,0.0,0.0,0.0,0.0,0.0,0.0,0.0,0.0,0.0,2.2552,2.3511,0.0,2.5646,2.6371,2.7326,2.8029,2.8169,2.8571,2.8909,2.9267,2.9439,2.963,2.9822,3.0003,3.0123,3.0151,3.0259,3.0524,3.0926,3.096,3.1183,3.1524,3.1541,3.1453,3.1241,3.1241,3.117,3.101,3.0638,3.0461,3.0425,2.9819,2.9461,2.9282,2.9102,2.8671,2.813,2.7731,2.7078,2.6399,2.618,2.6107,2.6034,2.5667,2.5359,2.5162,0.8517,0.866,0.8936,0.9637,0.9753,1.002,1.0898,1.1317,1.2059,1.3406,1.4148,1.4859,1.5643,1.5836,1.6108,1.6593,1.7285,1.7863,1.8286,1.9027,1.9776,2.0498,2.0933,2.1269,2.1547,2.1613,2.1809,2.213,2.2277,2.2464,2.2732,2.2581,2.2521,2.2521,2.2272,2.2159,2.2064,2.165,2.1407,2.1286,2.0897,2.0745,2.0765,2.0909,2.1038,2.1064,2.0378,1.9797,1.9281,1.8921,1.8446,1.7944,1.761,1.7413,1.7174,1.6428,1.6162,0.0,0.0,0.0,0.0,0.0,0.0,0.0,0.0,2.1223,2.1943,2.2946,2.3966,2.4898,2.5697,2.6657,2.7415,2.7682,2.833,2.8791,2.8726,2.872,2.8689,2.8696,2.8949,2.9119,2.9119,2.94,2.9638,2.9663,2.9783,2.9952,3.03,3.0086,3.0128,3.039,3.0406,3.0335,3.0192,3.0192,3.0121,2.9942,2.9676,2.9533,2.9533,2.8887,2.8563,2.8454,2.7985,2.755,2.7187,2.6458,2.5983,2.5653,2.5226,2.5079,2.5079,2.5079,2.4894,2.4599,0.8864,0.9238,0.9503,0.96,0.9961,1.0508,1.138,1.1467,1.2014,1.3651,1.4176,1.4691,1.5369,1.5504,1.5581,1.5649,1.6169,1.6832,1.7655,1.8657,1.9457,1.9974,2.0612,2.0954,2.1002,2.1279,2.147,2.1501,2.215,2.2496,2.2544,2.2808,2.2923,2.2923,2.2895,2.272,2.2402,2.1809,2.1373,2.1007,2.0431,2.0189,2.0174,2.022,2.0528,2.0858,2.0172,1.9885,1.9726,1.9034,1.8757,1.863,1.8287,1.8293,1.8287,1.7545,1.7485,1.7573,1.7154,1.8025,1.9169,1.987,2.1103,2.2191,0.0,2.34,2.4504,2.4994,2.5714,2.6473,2.721,2.7741,2.8091,2.8147,2.8503,2.8707,2.8411,2.8378,2.8345,2.8378,2.8411,2.8395,2.8395,2.8727,2.8892,2.8908,2.9505,2.9902,2.995,3.0194,3.0357,3.0406,3.0406,3.0085,2.9441,2.9441,2.9082,2.8346,2.831,2.831,2.831,2.8202,2.7985,2.7695,2.6932,2.6349,2.5983,2.552,2.5299,2.5226,2.4821,2.4673,2.4673,2.4673,2.4636,2.4599,0.8926,0.9318,0.9679,0.9952,1.0166,1.0556,1.1359,1.1428,1.1857,1.3149,1.3535,1.3839,1.4201,1.4329,1.4444,1.4512,1.5285,1.6123,1.6959,1.8159,1.9019,1.9421,2.0089,2.0421,2.0421,2.0762,2.1042,2.1243,2.1724,2.2094,2.2268,2.2407,2.2485,2.2485,2.2485,2.2407,2.2237,2.1785,2.1309,2.0784,2.0329,1.9956,1.9606,1.9412,1.9385,1.9425,1.9447,1.9173,0.0,1.8272,1.7976,1.7821,1.7868,1.7826,1.7705,1.7589,1.7476,1.7538,1.8261,1.9474,2.0734,2.1734,2.2954,2.399,2.4419,2.536,2.6234,2.6593,2.7309,2.7849,2.7936,2.8277,2.8484,2.8309,2.8394,2.8477,2.8329,2.8097,2.7948,2.7948,2.7728,2.7872,2.8509,2.8889,2.9186,2.9435,2.9507,2.9628,2.9876,2.9595,2.9425,2.9425,2.9174,2.8887,2.8614,2.8614,2.8418,2.8093,2.7913,2.771,2.7456,2.7238,2.6896,2.6531,2.6202,2.58,2.5446,2.5263,2.5042,2.4821,2.4673,2.4599,2.4599,2.4599,2.4599,2.4599,0.0,0.9494,0.9893,1.0244,1.0351,1.0622,1.1299,1.1411,1.1736,1.2666,1.2927,1.3086,1.3223,1.3283,1.3379,1.3525,1.4439,1.5344,1.6109,1.7409,1.8323,1.8746,1.9396,1.9789,1.9879,2.0212,2.0499,2.074,2.1136,2.1468,2.1709,2.18,2.1845,2.1845,2.1845,2.1845,2.1815,2.1309,2.0856,2.0411,1.9917,1.9392,1.8904,1.8673,1.8307,1.7969,1.8456,1.8226,1.7606,1.7387,1.7062,1.6857,1.7183,1.7183,1.7107,1.7417,1.7613,1.7995,1.9485,2.0938,2.2326,2.3503,2.4698,2.5691,2.6239,2.6897,2.748,2.7705,2.8237,2.8566,2.8289,2.8376,2.8395,2.8064,2.7932,2.7832,2.7699,2.7417,2.7251,2.7251,2.7176,2.7408,2.8243,2.8634,2.8956,2.9234,2.9065,2.9099,2.9373,2.8851,2.8527,2.8527,2.8238,2.8072,2.7949,2.7949,2.784,2.7623,2.7369,2.7041,2.6655,2.6363,2.6019,2.5616,2.5616,2.541,2.5042,2.5042,2.4857,2.4599,2.4488,2.4414,2.4414,2.4304,2.4414,2.4562,0.0,0.9952,1.0293,1.0293,1.0524,1.0836,1.1327,1.14,1.1664,1.242,1.2578,1.2672,1.2791,1.2712,1.2681,1.2815,1.3581,1.4315,1.5012,1.6235,1.7234,1.7919,1.8517,1.9001,1.9324,1.9644,1.9832,1.9847,2.0439,2.0719,2.0734,2.1084,2.1231,2.1231,2.1231,2.1231,2.1159,2.0252,1.984,1.9755,1.8848,1.828,1.8025,1.8025,1.745,1.6711,1.7252,1.7051,1.6536,1.6536,1.6315,1.6094,1.6418,1.6698,1.6956,1.7228,1.8301,1.9691,2.0996,2.2592,2.4155,2.5093,2.6427,2.7518,2.7552,2.7868,2.8185,2.8202,2.8243,2.8312,2.8312,2.7981,2.7617,2.73,2.6967,2.6599,2.6197,2.6179,2.6145,2.6145,2.671,2.7107,2.7142,2.7447,2.7661,2.7661,2.7967,2.813,2.813,2.813,2.813,2.813,2.8109,2.7949,2.7623,2.7623,2.7223,2.6473,2.6422,2.6239,2.5836,2.5836,2.558,2.5226,2.5226,2.4968,2.4636,2.4636,2.4599,2.4562,2.4193,2.4007,2.397,2.3587,2.3933,2.4525,0.0,0.0,1.0361,1.0534,1.0814,1.111,1.1354,1.14,1.1472,1.1679,1.1789,0.0,0.0,0.0,0.0,0.0,1.2595,1.3363,1.4225,1.5248,1.6204,1.6985,1.745,1.7835,1.8149,1.8662,1.8945,1.8945,1.9546,1.9832,1.9832,1.9946,2.0017,2.0017,2.0017,2.0017,1.9975,1.9678,1.9289,1.8875,1.8393,1.7917,1.7395,1.6771,1.6106,1.55,0.0,1.5288,1.5312,1.4918,1.4826,1.4933,1.5283,1.5719,1.6327,1.737,1.8935,2.055,2.1623,2.3472,2.5247,2.6006,2.7085,2.8008,2.8008,2.8139,2.8211,2.7913,2.7703,2.741,2.6987,2.6421,2.5978,2.583,2.5529,2.5404,2.573,2.576,2.5843,2.6078,2.6288,2.6422,2.6422,2.7327,2.7926,2.7926,2.8032,2.8093,2.8093,2.7876,2.7768,2.7768,2.7529,2.7202,2.6787,2.6787,2.6531,2.5983,2.574,2.552,2.541,2.5152,2.4931,2.4784,2.4784,2.4562,2.4193,2.4193,2.4044,2.3785,2.3674,2.3587,2.36,2.3438,2.355,2.3772,0.0,0.0,0.0,1.0885,1.1129,0.0,0.0,0.0,0.0,0.0,0.0,0.0,0.0,0.0,0.0,0.0,0.0,1.2576,1.3267,1.4179,1.5006,1.5714,1.6043,1.6375,1.6736,1.7227,1.7461,1.7461,1.814,1.8467,1.8494,1.8671,1.8754,1.8754,1.8754,1.8754,1.874,1.8656,1.8398,1.8007,1.7599,1.7157,1.6632,1.5925,1.5244,0.0,1.4108,1.4041,1.4172,1.3896,1.3964,1.4295,1.4845,1.5717,1.6781,1.8057,1.9769,2.1462,2.2446,2.4325,2.6142,2.6671,2.7534,2.8242,2.8242,2.7966,2.7638,2.723,2.66,2.5959,2.5422,2.4752,2.4277,2.4239,2.4111,2.4176,2.4612,2.4979,2.5288,2.5491,2.5754,2.5879,2.5879,2.6773,2.735,2.735,2.7455,2.753,2.753,2.7309,2.7151,2.7151,2.6801,2.6473,2.6202,2.6202,2.5983,2.558,2.5189,2.4968,2.4968,2.471,2.4525,2.4377,2.4377,2.4156,2.3785,2.3785,2.3624,2.3401,2.3265,2.3228,2.3191,2.2893,2.2769,2.2819,0.0,0.0,0.0,0.0,0.0,0.0,0.0,0.0,0.0,0.0,0.0,0.0,0.0,0.0,0.0,0.0,0.0,0.0,1.2265,1.3054,1.3717,1.4139,1.4382,1.4695,1.5087,1.5383,1.5512,1.5512,1.6302,1.669,1.6716,1.7238,1.7488,1.7488,1.7488,1.7488,1.7475,1.722,1.7139,1.7085,1.6484,1.6046,1.5728,1.5444,1.479,1.4001,1.3666,1.3387,1.322,1.35,1.3852,1.4317,1.5262,1.6744,1.8318,1.9259,2.0875,2.2506,2.3534,2.5218,2.6809,2.7149,2.7752,2.8229,2.8213,2.7392,2.6501,2.612,2.4963,2.3933,2.3589,2.2952,2.2532,2.256,2.2733,2.2914,2.2955,2.3809,2.4447,2.4495,2.5042,2.5437,2.5437,2.5714,2.5903,2.5903,2.626,2.6465,2.6465,2.6409,2.6363,2.6363,2.5983,2.58,2.5763,2.5763,2.5543,2.5152,2.4784,2.4599,2.4562,2.4562,2.4341,2.397,2.397,2.3748,2.3364,2.3364,2.3364,2.329,2.3005,2.2856,2.2744,2.196,2.1698,2.1698,0.0,0.0,0.0,0.0,0.0,0.0,0.0,0.0,0.0,0.0,0.0,0.0,0.0,0.0,0.0,0.0,0.0,0.0,1.1962,1.2268,1.2739,1.3496,1.3453,1.351,1.3714,1.4171,1.441,1.441,1.5013,1.5413,1.5607,1.5745,1.5808,1.5808,1.598,1.6029,1.6053,1.612,1.6166,1.6139,1.5765,1.5467,1.5146,1.4638,1.3931,1.3186,1.304,1.2855,1.2777,1.3391,1.4671,1.6221,1.7409,1.8705,2.0005,2.1216,2.2577,2.3895,2.4922,2.6104,2.7149,2.749,2.7519,2.7436,2.7163,2.6127,2.4921,2.3866,2.2832,2.1861,2.1081,2.0566,2.0374,2.0771,2.1044,2.1553,2.2505,2.3057,2.3666,2.4399,2.4431,2.4488,2.4726,2.4593,2.4499,2.4499,2.5469,2.6056,2.6056,2.5995,2.5946,2.5946,2.5836,2.5653,2.5373,2.5079,2.4857,2.4747,2.4636,2.4451,2.4156,2.4156,2.3933,2.355,2.355,2.334,2.3042,2.3042,2.2856,2.2558,2.2483,2.2259,2.196,2.1773,2.151,2.121,0.0,0.0,0.0,0.0,0.0,0.0,0.0,0.0,0.0,0.0,0.0,0.0,0.0,0.0,0.0,0.0,0.0,0.0,0.0,1.1598,1.1933,1.2557,1.2327,1.2275,1.2485,1.2814,1.2976,1.2976,1.3534,1.3865,1.4014,1.4151,1.4242,1.4333,1.4446,1.4537,1.4627,1.4741,1.4786,0.0,0.0,1.4261,1.4077,1.3618,1.3091,1.2589,1.2556,1.2916,1.36,1.4793,1.6381,1.8086,1.9343,2.0521,2.1562,2.2391,2.3475,2.453,2.5235,2.6056,2.6764,2.6937,2.6741,2.6388,2.5931,2.4702,2.3243,2.1914,2.0647,1.9525,1.8621,1.8236,1.8223,1.88,1.9514,2.0374,2.1293,2.2344,2.3225,2.3762,2.395,2.4054,2.4272,2.4102,2.4,2.4,2.4904,2.5463,2.5463,2.5525,2.5543,2.5543,2.5359,2.5139,2.4931,2.471,2.4525,2.4341,2.4341,2.4119,2.3748,2.3748,2.3525,2.3191,2.3191,2.2968,2.2632,2.2632,2.2483,2.2259,2.2109,2.1885,2.166,2.1285,2.1022,2.0797,0.0,0.0,0.0,0.0,0.0,0.0,0.0,0.0,0.0,1.1657,1.1752,1.1766,1.1686,1.1466,0.0,0.0,0.0,0.0,0.0,0.0,1.1274,1.158,1.1243,1.1156,1.1401,1.1497,1.1544,1.1546,1.2062,1.2317,1.236,1.2572,1.2783,1.2952,1.2995,1.31,1.3248,1.329,1.3311,1.3285,1.2981,1.2847,1.2784,0.0,1.2277,1.203,1.2145,1.3181,1.4793,1.6574,1.82,1.9716,2.0943,2.205,2.2947,2.3261,2.4026,2.4805,2.5135,2.565,2.6097,2.5984,2.5692,2.5214,2.4486,2.3058,2.1451,1.9942,1.8442,1.714,1.6329,1.6121,1.631,1.6967,1.8244,1.9343,1.9998,2.1667,2.2847,2.2988,2.3499,2.3864,2.3932,2.3884,2.385,2.385,2.4421,2.477,2.4805,2.5006,2.5129,2.5129,2.4784,2.4562,2.4525,2.4525,2.4341,2.3933,2.3933,2.3711,2.334,2.334,2.3154,2.2819,2.2819,2.2632,2.2296,2.2296,2.2259,2.2184,2.1847,2.1623,2.1473,2.0748,2.0484,2.0372,0.0,0.0,0.0,0.0,0.0,0.0,0.0,0.0,0.0,0.0,1.2126,1.1841,1.1996,1.1732,0.0,0.0,0.0,0.0,0.0,0.0,0.0,1.1031,1.0816,1.0575,1.0354,1.0587,1.0738,1.0785,1.1102,1.1348,1.1511,1.1552,1.1604,1.1633,1.1868,1.199,1.203,1.2188,1.2269,1.2269,1.22,1.204,1.1844,1.1795,0.0,0.0,1.1795,1.2937,1.4396,1.6299,1.8374,2.0347,2.1644,2.2885,2.3962,2.4585,2.5054,2.5479,2.5829,2.5999,2.5969,2.5429,2.4836,2.4084,2.2625,2.0911,1.9181,1.7558,1.6203,1.5142,1.454,1.4723,1.5317,1.6282,1.7437,1.8661,1.9916,2.1072,2.2051,2.2894,2.3059,2.3201,2.3475,2.3236,2.3099,2.3099,2.3631,2.4123,2.4394,2.4607,2.471,2.471,2.4636,2.4451,2.4119,2.4119,2.3896,2.3488,2.3488,2.334,2.3005,2.3005,2.2781,2.2408,2.2408,2.2371,2.2296,2.2296,2.2109,2.181,2.1735,2.1285,2.0673,2.056,2.0296,1.9995,0.0,0.0,0.0,0.0,0.0,0.0,0.0,1.2421,1.2759,1.3302,1.3089,1.2775,1.2491,1.2254,1.1925,0.0,0.0,0.0,0.0,0.0,0.0,1.0792,1.045,1.0291,1.0413,1.0231,1.0226,1.0395,0.0,1.0476,1.0573,1.0573,1.0631,1.0729,1.0865,1.0981,1.1078,1.1182,1.1221,1.1221,1.1221,1.115,1.1044,1.1044,0.0,0.0,1.1389,1.233,1.3495,1.5249,1.707,1.8986,2.1233,2.2616,2.3488,2.4074,2.4371,2.4561,2.493,2.5018,2.4844,2.4176,2.3436,2.2478,2.0778,1.9007,1.723,1.5461,1.4311,1.3443,1.2885,1.3188,1.3842,1.4877,1.6254,1.7598,1.8828,2.017,2.1339,2.2105,2.2458,2.2753,2.3119,2.2996,2.296,2.3086,2.3549,2.3874,2.4017,2.4388,2.4599,2.4599,2.4414,2.4193,2.4007,2.3785,2.3488,2.3154,2.3154,2.2968,2.2595,2.2595,2.2483,2.2296,2.2296,2.2296,2.2259,2.2072,2.1885,2.166,2.1248,2.0823,2.0484,2.0259,2.007,1.9881,0.0,0.0,0.0,0.0,0.0,0.0,0.0,1.2917,1.3312,1.3937,1.4032,1.3816,1.3199,1.2832,1.2423,0.0,0.0,0.0,0.0,0.0,0.0,0.0,1.0213,1.0188,1.0605,0.0,0.0,1.0199,1.0048,0.0,0.0,0.0,0.0,0.0,1.0143,1.0199,1.0312,1.0312,1.0274,0.0,0.0,1.0312,1.0312,0.0,0.0,0.0,0.0,1.1534,1.2328,1.3832,1.5215,1.6754,1.943,2.115,2.2315,2.279,2.3042,2.3262,2.3567,2.374,2.3562,2.2787,2.1982,2.0856,1.8941,1.7243,1.5535,1.3746,1.2743,1.2049,1.1639,1.1984,1.266,1.3678,1.5148,1.6618,1.7828,1.9324,2.0567,2.1299,2.1844,2.2336,2.273,2.2756,2.2924,2.3265,2.3661,2.3924,2.3991,2.4382,2.4562,2.4488,2.4156,2.3933,2.3785,2.3451,2.3116,2.2781,2.2781,2.2595,2.2296,2.2296,2.2296,2.2296,2.2296,2.2259,2.2147,2.181,2.1585,2.1398,2.0748,2.0447,2.0334,2.0032,1.9881,1.9881,0.0,0.0,0.0,0.0,0.0,0.0,0.0,1.3391,1.3873,1.431,1.4513,1.4541,1.4269,1.3375,1.2723,0.0,0.0,0.0,0.0,0.0,0.0,0.0,0.0,0.0,0.0,0.0,0.0,1.0199,1.018,0.0,0.0,0.0,0.0,0.0,0.0,0.9841,0.9682,0.9682,0.0,0.0,0.0,0.0,0.0,0.0,0.0,0.0,0.0,1.0595,1.1027,1.2091,1.3136,1.4201,1.5271,1.7902,2.0679,2.096,2.16,2.2296,2.2559,2.2828,2.2726,2.1486,2.0766,1.9669,1.7149,1.5523,1.4152,1.2579,1.1654,1.113,1.1065,1.1639,1.2456,1.3453,1.4673,1.6086,1.7768,1.8764,1.973,2.0836,2.1275,2.1726,2.2284,2.2345,2.2613,2.3265,2.3848,2.4275,2.4506,2.4572,2.4414,2.4081,2.4007,2.3674,2.3005,2.2968,2.2744,2.2371,2.2371,2.2334,2.2296,2.2296,2.2296,2.2296,2.2296,2.2072,2.1735,2.1735,2.1285,2.0597,2.0522,2.0296,1.9957,1.9919,1.9881,1.9881,0.0,0.0,0.0,0.0,0.0,0.0,1.3059,1.3357,1.3832,1.4602,1.4715,1.4758,1.4868,1.3925,1.3135,1.2738,0.0,0.0,0.0,0.0,0.0,0.0,0.0,0.0,0.0,0.0,1.0444,1.0743,1.05,0.0,0.0,0.0,0.0,0.0,0.0,0.0,0.9784,0.9784,0.0,0.0,0.0,0.0,0.0,0.0,0.0,0.0,0.0,0.0,1.0201,1.0898,1.1674,1.2466,1.2968,1.4479,1.6446,1.8384,1.948,2.0207,2.0631,2.0914,2.0843,1.9801,1.8912,1.7706,1.5589,1.3982,1.2581,1.1242,1.0661,1.0404,1.0404,1.097,1.1698,1.2498,1.3809,1.5127,1.6209,1.7505,1.8792,1.9969,2.0535,2.1108,2.1928,2.2155,2.2591,2.3415,2.409,2.4479,2.4586,2.4599,2.4414,2.4007,2.3785,2.3414,2.2893,2.2669,2.2446,2.2296,2.2296,2.2296,2.2296,2.2296,2.2296,2.2296,2.2035,2.1847,2.166,2.1173,2.0785,2.0484,2.0221,2.0032,1.9881,1.9881,1.9881,1.9881,0.0,0.0,0.0,0.0,0.0,1.2645,1.3176,1.3453,1.3849,1.4623,1.4613,1.461,1.4858,1.401,1.3313,1.2931,1.2319,0.0,0.0,0.0,0.0,0.0,0.0,0.0,0.0,0.0,1.0837,1.118,1.0908,1.0655,0.0,0.0,0.0,0.0,0.0,0.0,0.0,0.0,0.0,0.0,0.0,0.0,0.0,0.0,0.0,0.0,0.0,0.0,0.0,0.0,0.0,1.0826,1.0996,1.1643,1.2901,1.5688,1.7111,1.7906,1.839,1.8808,1.8928,1.813,1.7198,1.6013,1.4266,1.2704,1.1346,1.0299,0.9862,0.9689,0.9777,1.0381,1.1081,1.1691,1.3039,1.4339,1.5293,1.6526,1.785,1.9188,1.9793,2.049,2.1399,2.209,2.2795,2.3539,2.4219,2.4599,2.4599,2.4488,2.423,2.3846,2.3451,2.3079,2.2744,2.2446,2.2296,2.2296,2.2296,2.2296,2.2296,2.2184,2.2109,2.2109,2.1698,2.1473,2.1285,2.0748,2.0447,2.0296,1.9995,1.9881,1.9881,1.9881,1.9881,1.9881,0.0,0.0,0.0,0.0,0.0,0.0,1.3297,1.3741,1.4076,1.4294,1.4176,1.4115,1.4115,1.351,1.3092,1.3108,1.2602,0.0,0.0,0.0,0.0,0.0,0.0,0.0,0.0,0.0,1.1511,1.1403,1.1471,1.1249,1.08,1.0858,1.0635,0.0,0.0,0.0,0.0,0.0,0.0,0.0,0.0,0.0,0.9303,0.0,0.0,0.0,0.0,0.0,0.0,0.0,0.0,0.0,0.0,0.9671,1.0856,1.3001,1.4491,1.5519,1.5926,1.6625,1.7066,1.6467,1.5774,1.4801,1.3276,1.1814,1.0626,0.9956,0.9323,0.8999,0.9262,1.0021,1.0754,1.123,1.2417,1.3878,1.5472,1.6061,1.6931,1.8606,1.9167,1.9737,2.0617,2.221,2.3314,2.3601,2.4219,2.4599,2.4599,2.423,2.3822,2.3401,2.3079,2.2707,2.2296,2.2296,2.2296,2.2296,2.2296,2.2296,2.2296,2.1885,2.1698,2.166,2.1297,2.0872,2.0522,2.0484,2.0259,1.9919,1.9881,1.9881,1.9881,1.9881,1.9881,1.9844,0.0,0.0,0.0,0.0,0.0,0.0,0.0,1.3136,1.3399,1.401,1.3899,1.3851,1.4082,1.351,1.3108,1.3108,1.2602,0.0,0.0,0.0,0.0,0.0,0.0,0.0,0.0,1.1576,1.1777,1.2144,1.2049,1.1938,1.1829,1.1525,1.1236,1.0943,1.058,0.0,0.0,0.0,0.0,0.0,0.9359,0.9208,0.9075,0.0,0.0,0.0,0.0,0.0,0.0,0.0,0.0,0.0,0.0,0.0,0.0,0.969,1.1506,1.3406,1.3935,1.4401,1.4661,1.4282,1.3606,1.272,1.1531,1.039,0.9381,0.8768,0.8521,0.8508,0.8771,0.9388,1.0035,1.0596,1.1846,1.307,1.4014,1.5125,1.6328,1.7697,1.9209,2.0332,2.0781,2.2172,2.3164,2.3446,2.4177,2.4488,2.4193,2.3809,2.3525,2.3401,2.3079,2.2707,2.2296,2.2296,2.2296,2.2296,2.2296,2.2296,2.2296,2.1885,2.1698,2.166,2.0985,2.0635,2.0484,2.0183,1.9995,1.9881,1.9881,1.9881,1.9881,1.9881,1.9881,1.9844,0.0,0.0,0.0,0.0,0.0,0.0,0.0,1.2653,1.28,1.3588,1.339,1.3306,1.3637,1.3219,1.2901,1.2901,1.2617,0.0,0.0,0.0,0.0,0.0,0.0,0.0,1.1696,1.1806,1.2117,1.2612,1.2512,1.2478,1.2525,1.2251,1.1905,1.1504,1.1106,1.0742,0.0,0.0,0.0,0.0,0.9378,0.917,0.8989,0.0,0.0,0.0,0.0,0.0,0.0,0.0,0.0,0.0,0.0,0.0,0.0,0.0,0.9205,1.0837,1.172,1.2209,1.2438,1.2355,1.1777,1.103,1.0314,0.9363,0.8517,0.8184,0.8012,0.8025,0.8353,0.8847,0.9415,1.0094,1.1212,1.233,1.3215,1.4446,1.5903,1.7568,1.9136,2.0352,2.0991,2.2238,2.3109,2.3388,2.4007,2.4267,2.4007,2.3488,2.3228,2.3228,2.2856,2.2558,2.2296,2.2296,2.2296,2.2296,2.2296,2.2221,2.2072,2.166,2.1398,2.121,2.056,2.0259,0.0,1.9995,1.9881,1.9881,1.9881,1.9881,1.9881,1.9881,1.9768,1.9579,0.0,0.0,0.0,0.0,0.0,0.0,0.0,1.2276,1.2282,1.3058,1.2772,1.2631,1.2963,1.2767,1.2598,1.2598,1.2598,0.0,0.0,0.0,0.0,0.0,0.0,0.0,1.1713,1.2114,1.2497,1.283,1.2929,1.3001,1.3007,1.3038,1.269,1.2015,1.1753,1.134,0.0,0.0,0.0,0.0,0.9397,0.9189,0.0,0.0,0.0,0.0,0.0,0.0,0.0,0.0,0.0,0.0,0.0,0.0,0.0,0.0,0.0,0.0,0.0,1.0062,1.0521,1.0693,1.0267,0.9737,0.953,0.8678,0.0,0.8026,0.7744,0.7597,0.8004,0.8405,0.8941,0.9769,1.0637,1.1656,1.2982,1.412,1.5685,1.8081,1.9,1.9942,2.1127,2.2325,2.3135,2.3351,2.3748,2.397,2.3933,2.3265,2.2893,2.2856,2.2483,2.2296,2.2296,2.2296,2.2296,2.2296,2.2296,2.2072,2.1698,2.1297,2.0872,2.0484,2.007,1.9881,1.9881,1.9881,1.9881,1.9881,1.9881,1.9881,1.9881,1.9844,1.9579,1.9125,0.0,0.0,0.0,0.0,0.0,0.0,0.0,0.0,0.0,0.0,1.2588,1.2631,1.2963,1.2767,1.2598,0.0,0.0,0.0,0.0,0.0,0.0,0.0,0.0,0.0,1.185,1.2408,1.2818,1.3106,1.3586,1.3925,1.413,1.3781,1.3532,1.3322,1.2457,1.1676,0.0,0.0,0.0,0.0,0.9511,0.9265,0.0,0.0,0.0,0.0,0.8063,0.7919,0.0,0.0,0.0,0.0,0.0,0.0,0.0,0.0,0.6756,0.6958,0.7599,0.0,0.9154,0.9193,0.8941,0.8603,0.0,0.7866,0.7494,0.7358,0.7258,0.7324,0.7725,0.8076,0.8649,0.9654,1.0636,1.1666,1.274,1.4614,1.6345,1.7689,1.9105,2.0179,2.0771,2.2337,2.3227,2.3042,2.3637,2.3748,2.3191,2.3005,2.2744,2.2446,2.2334,2.2296,2.2296,2.2296,2.2296,2.2296,2.2296,2.2072,2.1698,2.1297,2.0872,2.0484,2.007,1.9881,1.9881,1.9881,1.9881,1.9881,1.9881,1.9881,1.9844,1.9504,1.9277,1.9088,0.0,0.0,0.0,0.0,0.0,0.0,0.0,0.0,0.0,0.0,1.2261,1.2333,1.2855,1.2721,0.0,0.0,0.0,0.0,0.0,0.0,0.0,0.0,1.2381,1.2213,1.2127,1.2635,1.2989,1.3193,1.3801,1.4242,1.4487,1.4254,1.4066,1.3894,1.2705,1.1783,0.0,0.0,0.0,1.0143,0.9549,0.0,0.0,0.0,0.0,0.0,0.7834,0.7661,0.0,0.7084,0.6853,0.673,0.0,0.0,0.0,0.0,0.6463,0.6559,0.683,0.744,0.8023,0.8247,0.8094,0.7865,0.7727,0.748,0.7244,0.7112,0.7175,0.738,0.7878,0.8232,0.8802,0.998,1.0884,1.1962,1.3503,1.5199,1.6648,1.7717,1.92,2.031,2.0843,2.2274,2.3116,2.2893,2.3265,2.3302,2.293,2.2707,2.252,2.2296,2.2296,2.2296,2.2296,2.2296,2.2296,2.2296,2.2296,2.1997,2.1398,2.1222,2.0797,2.0221,1.9995,1.9881,1.9881,1.9881,1.9881,1.9881,1.9881,1.9768,1.9542,1.9277,1.8974,1.8595,0.0,0.0,0.0,0.0,0.0,0.0,0.0,0.0,0.0,0.0,0.0,0.0,0.0,0.0,0.0,0.0,0.0,0.0,0.0,0.0,0.0,1.3219,1.2874,1.26,1.2483,1.2842,1.3142,1.3347,1.3935,1.4376,1.4634,1.4603,1.4341,1.388,1.2758,1.1821,1.1068,1.0669,1.0368,1.0105,0.953,0.0,0.0,0.0,0.0,0.0,0.0,0.0,0.0,0.6776,0.6602,0.6563,0.6358,0.0,0.0,0.0,0.0,0.0,0.6654,0.6877,0.7166,0.7638,0.7617,0.7533,0.764,0.7462,0.73,0.73,0.7469,0.7762,0.8328,0.8725,0.9346,1.0575,1.1502,1.2788,1.4717,1.5804,1.6842,1.8035,1.9312,2.0403,2.1112,2.2221,2.2856,2.2819,2.2856,2.2856,2.2819,2.2483,2.2296,2.2296,2.2296,2.2296,2.2296,2.2296,2.2296,2.2296,2.2296,2.1885,2.1109,2.1109,2.0646,1.9881,1.9881,1.9881,1.9881,1.9881,1.9881,1.9881,1.9806,1.9542,1.9201,1.905,1.8595,1.7987,0.0,0.0,0.0,0.0,0.0,0.0,0.0,0.0,0.0,0.0,0.0,0.0,0.0,0.0,0.0,0.0,0.0,0.0,0.0,0.0,0.0,1.391,1.2969,1.2557,1.2823,1.3037,1.342,1.3948,1.4558,1.4999,1.5257,1.5026,1.4271,1.3073,1.2704,1.1996,1.1068,1.0669,1.0293,0.9898,0.9473,0.0,0.0,0.0,0.0,0.0,0.0,0.0,0.0,0.6698,0.6602,0.6563,0.6358,0.0,0.0,0.0,0.0,0.0,0.6627,0.6809,0.7019,0.7382,0.7688,0.7921,0.7942,0.807,0.8196,0.8196,0.8353,0.8592,0.8919,0.9621,1.0429,1.1313,1.306,1.4677,1.5755,1.6467,1.743,1.8846,1.9679,2.0478,2.1524,2.2371,2.2744,2.2408,2.2707,2.2744,2.2408,2.2334,2.2296,2.2296,2.2296,2.2296,2.2296,2.2296,2.2296,2.2296,2.2296,2.1885,2.1109,2.1109,2.0646,1.9881,1.9881,1.9881,1.9881,1.9881,1.9881,1.9844,1.9466,1.9239,1.9125,1.8443,1.8101,1.7949,0.0,0.0,0.0,0.0,0.0,0.0,0.0,0.0,0.0,0.0,0.0,0.0,0.0,0.0,0.0,0.0,0.0,0.0,0.0,1.3166,1.3233,1.3753,1.3196,1.2954,1.3107,1.3592,1.3918,1.4103,1.4852,1.5294,1.5391,1.4984,1.412,1.2876,1.2458,1.1839,1.1068,1.0556,1.0161,0.986,0.0,0.0,0.0,0.0,0.0,0.0,0.0,0.0,0.0,0.0,0.6428,0.6416,0.6338,0.0,0.0,0.0,0.0,0.0,0.662,0.6843,0.7115,0.7597,0.7956,0.8211,0.8442,0.8577,0.8704,0.8818,0.8969,0.9264,0.9889,1.0576,1.1574,1.3177,1.4786,1.6088,1.6817,1.7675,1.8541,1.9366,2.023,2.1008,2.1637,2.2221,2.2483,2.2296,2.2483,2.2483,2.2296,2.2296,2.2296,2.2296,2.2296,2.2296,2.2296,2.2296,2.2296,2.2296,2.2296,2.1885,2.1109,2.1109,2.0646,1.9881,1.9617,1.9504,1.9504,1.9287,1.9212,1.9174,1.8946,1.8747,1.8443,1.7645,1.734,1.7302,0.0,0.0,0.0,0.0,0.0,0.0,0.0,0.0,0.0,0.0,0.0,0.0,0.0,0.0,0.0,0.0,0.0,0.0,0.0,1.3019,1.3067,1.3378,1.3346,1.338,1.343,1.4022,1.4358,1.4389,1.507,1.5341,1.5192,1.4741,1.3849,1.2677,1.2206,1.1585,1.0874,1.0349,0.9992,0.9738,0.0,0.0,0.0,0.0,0.0,0.0,0.0,0.0,0.0,0.0,0.0,0.0,0.0,0.0,0.0,0.63,0.63,0.6368,0.662,0.6891,0.7269,0.7984,0.8333,0.862,0.9107,0.9276,0.947,0.9784,0.9965,1.0293,1.1126,1.1887,1.3071,1.5102,1.6329,1.7261,1.7885,1.8784,1.9513,1.9935,2.0696,2.1381,2.1786,2.2109,2.2296,2.2296,2.2296,2.2296,2.2296,2.2221,2.2147,2.2147,2.2072,2.2035,2.2035,2.2035,2.2109,2.2296,2.2184,2.1773,2.1109,2.0985,2.0496,1.973,1.9353,1.9174,1.906,1.8719,1.8605,1.8605,1.8491,1.8139,1.7645,1.6921,1.6681,1.6687,0.0,0.0,0.0,0.0,0.0,0.0,0.0,0.0,0.0,0.0,0.0,1.1772,0.0,0.0,0.0,0.0,0.0,0.0,0.0,1.2749,1.2826,1.3023,1.3313,1.3612,1.3838,1.4046,1.4504,1.5297,1.5364,1.5143,1.464,1.4366,1.346,1.2046,1.2006,1.1351,1.0255,1.0011,0.97,0.9322,0.9113,0.0,0.0,0.0,0.0,0.0,0.0,0.0,0.0,0.0,0.0,0.0,0.0,0.0,0.63,0.63,0.63,0.6368,0.662,0.6891,0.7356,0.8381,0.8835,0.9239,0.9949,1.0442,1.0952,1.164,1.1896,1.2121,1.2574,1.3801,1.5206,1.6534,1.7463,1.8251,1.8993,1.9369,1.9887,2.0706,2.0897,2.1291,2.2173,2.2259,2.2296,2.2296,2.2296,2.2296,2.2296,2.196,2.1735,2.1735,2.1372,2.1184,2.1184,2.1184,2.1559,2.2296,2.1922,2.151,2.1109,2.071,2.007,1.9239,1.9201,1.8984,1.8643,1.8605,1.8605,1.8567,1.8177,1.7569,1.6844,1.6395,1.6356,1.6506,0.0,0.0,0.0,0.0,0.0,0.0,0.0,0.0,0.0,0.0,0.0,1.1772,1.2519,1.2598,1.2598,0.0,0.0,0.0,1.2595,1.2585,1.2589,1.2628,1.3194,1.3573,1.3722,1.4338,1.4905,1.5391,1.5275,1.4855,1.4151,1.3751,1.3019,1.1984,1.1555,1.103,1.0432,0.9935,0.9549,0.9284,0.9075,0.8675,0.0,0.0,0.0,0.0,0.0,0.0,0.0,0.0,0.6118,0.6132,0.6272,0.63,0.63,0.63,0.6361,0.6457,0.6647,0.6987,0.7503,0.8473,0.9065,0.9659,1.0613,1.116,1.1651,1.2349,1.2734,1.3238,1.4171,1.5554,1.6795,1.7542,1.8494,1.929,1.9704,2.0215,2.0733,2.121,2.1426,2.175,2.226,2.2296,2.2184,2.196,2.1922,2.181,2.1548,2.1409,2.1323,2.1323,2.1184,2.1109,2.1109,2.1109,2.1259,2.1548,2.1409,2.1135,2.0721,2.0259,1.9768,1.9163,1.8671,1.8367,1.8215,1.7959,1.7731,1.7435,1.7174,1.6873,1.6582,1.6277,1.6167,1.6227,0.0,0.0,0.0,0.0,0.0,0.0,0.0,0.0,1.1094,0.0,0.0,0.0,0.0,1.2519,1.2583,0.0,0.0,0.0,1.2283,1.2272,1.2257,1.2242,1.2814,1.3271,1.3586,1.4236,1.4798,1.5275,1.4906,1.4368,1.3676,1.3194,1.2518,1.1762,1.1232,1.0818,1.0458,0.9795,0.9423,0.9288,0.9009,0.8579,0.0,0.0,0.0,0.0,0.0,0.0,0.0,0.0,0.5971,0.6032,0.6152,0.6239,0.6306,0.6354,0.6436,0.6546,0.677,0.7202,0.7816,0.8689,0.9442,1.0272,1.1425,1.2,1.2537,1.3469,1.4064,1.473,1.5719,1.6894,1.7858,1.8356,1.9267,2.0037,2.0366,2.0802,2.1232,2.1595,2.18,2.1969,2.2085,2.2109,2.1922,2.1548,2.151,2.1398,2.1109,2.0985,2.091,2.091,2.0646,2.0496,2.0496,2.0383,2.0307,2.0307,2.0307,2.0307,2.0259,1.9806,1.9315,1.8795,1.817,1.7817,1.7674,1.7326,1.6998,1.6736,1.6419,1.6333,1.6316,1.5852,1.5736,1.5713,0.0,0.0,0.0,0.0,0.0,0.0,1.1494,1.1154,1.1024,1.1348,1.146,0.0,0.0,0.0,0.0,0.0,1.2305,0.0,1.1825,1.1741,1.1763,1.1887,1.2163,1.27,1.3573,1.365,1.4104,1.4985,1.4243,1.3651,1.3175,1.2646,1.201,1.1295,1.1087,1.0729,1.0263,0.9587,0.9291,0.9252,0.8865,0.8456,0.8063,0.0,0.0,0.0,0.0,0.0,0.0,0.0,0.5883,0.5993,0.5993,0.6139,0.6327,0.645,0.6498,0.6593,0.6999,0.7549,0.8242,0.9179,1.0107,1.1162,1.2518,1.3063,1.3716,1.5213,1.6162,1.6811,1.7149,1.7701,1.8342,1.9073,1.9704,2.0343,2.1028,2.1099,2.1305,2.1837,2.1909,2.1834,2.1712,2.1698,2.1522,2.1109,2.1109,2.1109,2.1109,2.0721,2.0484,2.0484,1.9655,1.9201,1.9201,1.8795,1.8605,1.8605,1.8605,1.9022,1.9768,1.9353,1.8747,1.8007,1.7788,1.7457,1.7096,1.6823,1.6704,1.6647,1.6102,1.5988,1.5981,1.5114,1.4944,1.5058,0.0,0.0,0.0,0.0,0.0,0.0,1.1242,1.1027,1.0998,1.1228,1.1182,0.0,0.0,0.0,0.0,0.0,0.0,1.2058,1.1825,1.1644,1.1663,1.1887,1.202,1.2325,1.2831,1.2945,1.334,1.4029,1.3615,1.3065,1.2403,1.1893,1.1435,1.107,1.0679,1.0357,1.006,0.9528,0.9213,0.9077,0.8808,0.8456,0.8083,0.0,0.0,0.0,0.0,0.0,0.0,0.0,0.0,0.0,0.5978,0.6207,0.6457,0.6477,0.6695,0.6995,0.7307,0.7864,0.8615,0.9763,1.0623,1.1656,1.3319,1.3901,1.4559,1.6215,1.7148,1.7739,1.8013,1.8862,1.9634,2.0064,2.0509,2.0934,2.1317,2.1547,2.1619,2.1481,2.1622,2.1615,2.1323,2.1297,2.1097,2.071,2.0673,2.056,2.027,1.9844,1.9579,1.9579,1.906,1.8795,1.8795,1.8377,1.8177,1.8177,1.7911,1.8177,1.8946,1.8263,1.7884,1.7749,1.7119,1.6838,1.6774,1.644,1.6299,1.6228,1.5593,1.5377,1.5352,1.4893,1.4765,1.481,0.0,0.0,0.0,0.0,0.0,0.0,1.1057,1.0917,1.0855,1.0993,1.1009,1.1153,0.0,0.0,0.0,1.2102,1.2104,1.2011,1.1809,1.1514,1.1472,1.1771,1.1686,1.1789,1.2107,1.2217,1.2385,1.2567,1.2708,1.2432,1.176,1.1359,1.1122,1.0981,1.0504,1.0196,0.9966,0.9495,0.9183,0.899,0.878,0.8456,0.8083,0.0,0.0,0.0,0.0,0.0,0.0,0.0,0.0,0.0,0.5876,0.6105,0.6335,0.6532,0.6797,0.7131,0.7664,0.8338,0.9123,1.0291,1.1273,1.2477,1.4558,1.5265,1.5924,1.7326,1.8073,1.8562,1.9006,1.9702,2.0356,2.0686,2.1042,2.1353,2.1631,2.1666,2.1614,2.1499,2.1454,2.1285,2.091,2.0872,2.0684,2.0296,2.0259,2.007,1.9655,1.9353,1.9125,1.8984,1.8415,1.8111,1.8111,1.7578,1.7264,1.7264,1.7035,1.7188,1.7655,1.7312,1.7185,1.7194,1.6691,1.643,1.64,1.6083,1.5931,1.5755,1.5278,1.5008,1.4914,1.456,1.4473,1.4431,0.0,0.0,1.123,1.1116,0.0,1.0905,1.0892,1.079,1.0701,1.0688,1.0832,1.0976,0.0,0.0,0.0,1.1805,1.195,1.1965,1.1794,1.1341,1.1242,1.1567,1.127,1.1224,1.1438,1.1552,1.137,1.0948,1.1659,1.176,1.1233,1.107,1.0959,1.0916,1.0472,1.015,0.9916,0.9485,0.9175,0.8958,0.8779,0.8447,0.8056,0.7857,0.0,0.0,0.0,0.0,0.0,0.0,0.0,0.0,0.5759,0.5897,0.612,0.6573,0.6809,0.7161,0.8084,0.8858,0.9678,1.0798,1.2087,1.3637,1.5921,1.6869,1.7504,1.84,1.8838,1.9273,1.9936,2.0321,2.0674,2.1065,2.1329,2.1571,2.1836,2.1541,2.1365,2.1562,2.121,2.0834,2.0409,2.0372,2.0221,1.9844,1.9844,1.9655,1.9201,1.9125,1.8909,1.8491,1.7769,1.735,1.7273,1.6471,1.6089,1.6089,1.6012,1.5974,1.5974,1.6462,1.6578,1.6411,1.6347,1.6203,1.5991,1.5829,1.5608,1.5365,1.5095,1.488,1.4589,1.419,1.4025,1.3983,0.0,0.0,1.1129,1.112,0.0,0.0,1.0764,1.0726,1.0662,1.056,1.0585,1.0719,1.0963,1.1138,0.0,1.1774,1.1705,1.1631,1.1639,1.1153,1.1035,1.143,1.1222,1.1073,1.1023,1.0905,1.0712,1.0446,1.1143,1.1227,1.0752,1.0759,1.0646,1.0451,1.019,0.9828,0.9455,0.9346,0.909,0.877,0.8722,0.8364,0.7855,0.7706,0.7058,0.0,0.0,0.0,0.0,0.0,0.0,0.0,0.5759,0.6008,0.6294,0.6607,0.6973,0.7489,0.8363,0.9066,0.9896,1.134,1.329,1.5157,1.6358,1.7141,1.7739,1.8341,1.8984,1.9506,1.968,2.0391,2.1065,2.1354,2.1365,2.1443,2.1692,2.1391,2.104,2.0785,2.0372,1.9919,1.9504,1.9466,1.9428,1.9353,1.9353,1.9315,1.9201,1.8595,1.8063,1.7655,1.7188,1.6777,1.6471,1.5659,1.5275,1.5237,1.4545,1.4245,1.4276,1.5352,1.5807,1.5701,1.5884,1.5959,1.5958,1.563,1.5432,1.534,1.4608,1.4286,1.419,1.3735,1.3569,1.3528,0.0,0.0,0.0,0.0,0.0,0.0,0.0,0.0,1.0586,1.0509,1.0496,1.056,1.0738,1.0899,0.0,0.0,1.1462,1.142,1.1437,1.0886,1.0611,1.071,1.0682,1.0594,1.0418,1.0226,1.0014,0.9811,1.0403,1.0553,1.0316,1.0541,1.0528,1.0299,1.0187,0.984,0.9297,0.9203,0.892,0.8552,0.8356,0.8015,0.7635,0.7399,0.6857,0.6176,0.5962,0.0,0.0,0.0,0.0,0.0,0.0,0.0,0.6117,0.6423,0.681,0.7372,0.8292,0.9027,0.9981,1.1975,1.3956,1.5634,1.6506,1.7216,1.7818,1.8301,1.8889,1.9367,1.9576,2.0203,2.0756,2.0897,2.1067,2.1258,2.1386,2.0872,2.0409,2.0183,1.9617,1.9125,1.8946,1.8909,1.8909,1.8909,1.8909,1.8757,1.8367,1.7949,1.7426,1.6854,1.6233,1.585,1.5629,1.4814,1.4391,1.4353,1.3929,1.3706,1.3744,1.4477,1.4853,1.4882,1.5094,1.5266,1.5381,1.5133,1.4968,1.4728,1.4273,1.3942,1.3735,1.3486,1.3403,1.3403,0.0,0.0,0.0,0.0,0.0,0.0,0.0,0.0,0.0,1.0496,1.0496,1.0496,1.0496,1.0724,1.0963,0.0,0.0,0.0,1.1087,1.052,1.0097,0.9857,0.9961,0.9947,0.9742,0.9537,0.9352,0.9185,0.9656,0.9897,0.9937,1.0382,1.0509,1.035,1.0318,0.9941,0.9345,0.9137,0.8798,0.8373,0.8033,0.7744,0.7451,0.7095,0.6635,0.6176,0.5916,0.5636,0.5392,0.5392,0.0,0.0,0.0,0.0,0.5827,0.6204,0.6559,0.706,0.8085,0.9071,1.0333,1.2547,1.4249,1.5634,1.6506,1.7216,1.7818,1.8301,1.8714,1.911,1.9493,1.9951,2.0318,2.0352,2.0726,2.0947,2.0872,2.0183,1.9655,1.9617,1.8946,1.8491,1.8491,1.8491,1.8491,1.8491,1.8415,1.8111,1.7426,1.7197,1.6739,1.6012,1.5275,1.4853,1.4776,1.4006,1.359,1.359,1.3551,1.3481,1.3518,1.3681,1.3914,1.4196,1.4378,1.4542,1.4672,1.4631,1.439,1.4108,1.4025,1.3735,1.3403,1.3403,1.3403,1.3403,0.0,0.0,0.0,0.0,0.0,0.0,0.0,0.0,0.0,0.0,1.0496,1.0496,1.0496,1.0441,1.0467,1.0672,1.0533,1.0376,1.0275,0.0,0.0,0.9231,0.9354,0.932,0.9136,0.8923,0.88,0.8771,0.9184,0.9494,0.9653,1.0306,1.0597,1.0549,1.0384,1.0027,0.955,0.9354,0.892,0.8402,0.8337,0.7987,0.7433,0.6926,0.6522,0.6144,0.5642,0.5446,0.5392,0.5392,0.5392,0.0,0.0,0.0,0.5722,0.617,0.6429,0.6805,0.7931,0.9771,1.1656,1.2798,1.4249,1.5634,1.6506,1.7216,1.7818,1.8301,1.8714,1.906,1.9306,1.9861,2.0375,2.0628,2.0605,2.0447,2.0032,1.9579,1.9174,1.8795,1.8367,1.8063,1.8063,1.8063,1.8063,1.8063,1.7769,1.7502,1.7426,1.6395,1.562,1.516,1.4729,1.4268,1.3891,1.339,1.3158,1.3158,1.2811,1.2725,1.2816,1.2876,1.3361,1.4189,1.4211,1.4437,1.4672,1.4315,1.4149,1.4066,1.3652,1.3445,1.3403,1.3403,1.3403,1.3403,0.0,0.0,0.0,0.0,0.0,0.0,0.0,0.0,0.0,0.0,0.0,1.0187,1.0123,1.0058,1.0051,1.0096,0.9841,0.9577,0.9327,0.9132,0.897,0.8817,0.8914,0.8865,0.8672,0.8576,0.8533,0.853,0.8933,0.938,0.9828,1.0457,1.0719,1.0598,1.0636,1.0319,0.979,0.9326,0.8852,0.8384,0.815,0.7737,0.7242,0.6926,0.6588,0.6205,0.5866,0.5684,0.5613,0.5532,0.5505,0.5505,0.5501,0.0,0.0,0.0,0.6143,0.666,0.796,0.9689,1.1377,1.2349,1.3897,1.5358,1.6128,1.7028,1.7786,1.8175,1.8452,1.8676,1.8785,1.9255,1.9577,1.9493,1.9633,1.9617,1.9212,1.8595,1.8149,1.7959,1.7388,1.7006,1.7006,1.7006,1.7006,1.7006,1.6624,1.6271,1.608,1.5352,1.4737,1.4276,1.3891,1.3467,1.3042,1.2617,1.2308,1.2076,1.1966,1.2037,1.2377,1.2423,1.2895,1.3637,1.3637,1.3771,1.3976,1.3776,1.3694,1.3694,1.3486,1.3403,1.3403,1.3403,1.3403,1.3403,0.0,0.0,0.0,0.0,0.0,0.0,0.0,0.0,0.0,0.0,0.0,0.9895,0.9849,0.0,0.0,0.0,0.9244,0.8934,0.8592,0.8434,0.8381,0.8447,0.8453,0.8371,0.8233,0.8198,0.8219,0.8316,0.8666,0.9242,1.0004,1.0569,1.0806,1.0759,1.0896,1.0627,1.0008,0.9414,0.8863,0.8365,0.81,0.7738,0.7339,0.7209,0.6918,0.6574,0.6285,0.6086,0.5942,0.5766,0.5705,0.5671,0.5498,0.5518,0.0,0.0,0.0,0.6649,0.7879,0.9292,1.0664,1.1792,1.3343,1.4841,1.5721,1.6732,1.7621,1.8035,1.8202,1.8258,1.8258,1.8599,1.8789,1.854,1.8783,1.8816,1.8288,1.774,1.7312,1.7121,1.6471,1.605,1.605,1.5974,1.5897,1.5897,1.5505,1.516,1.4845,1.4268,1.3775,1.339,1.2926,1.2501,1.2192,1.1921,1.1622,1.1317,1.1412,1.1656,1.2052,1.2113,1.2484,1.3063,1.3146,1.3302,1.3403,1.3403,1.3403,1.3403,1.3403,1.3403,1.3403,1.3403,1.3403,1.3403,0.0,0.0,0.0,0.0,0.0,0.0,0.9653,0.951,0.0,0.0,0.0,0.9715,0.9966,0.9706,0.9384,0.9065,0.8845,0.8583,0.8237,0.8037,0.7964,0.803,0.7854,0.0,0.7733,0.7609,0.7743,0.8116,0.8325,0.8978,1.0004,1.0408,1.0816,1.1161,1.1179,1.0799,1.0163,0.9752,0.9082,0.831,0.8491,0.8354,0.8032,0.7889,0.7665,0.736,0.6853,0.6586,0.6409,0.6086,0.5991,0.5937,0.5671,0.56,0.5607,0.0,0.0,0.0,0.7527,0.8625,0.9912,1.1362,1.2663,1.3945,1.5405,1.6362,1.7151,1.7934,1.8028,1.7931,1.7931,1.8105,1.831,1.8555,1.8464,1.8058,1.7311,1.7294,1.7121,1.6357,1.5897,1.562,1.562,1.5275,1.5045,1.5045,1.4691,1.446,1.4422,1.3274,1.2579,1.2579,1.1805,1.1378,1.1378,1.139,1.1418,1.1418,1.1518,1.1686,1.1802,1.1808,1.2174,1.2755,1.307,1.3302,1.3403,1.3403,1.3403,1.3403,1.3403,1.3403,1.3403,1.3403,1.3403,1.3403,0.0,0.0,0.0,0.0,0.0,0.0,0.9729,0.9506,0.9378,0.0,0.0,0.0,0.0,0.9195,0.8982,0.8638,0.8314,0.8087,0.8005,0.7747,0.7644,0.7798,0.7661,0.758,0.758,0.7521,0.7631,0.7908,0.8231,0.8798,0.9563,1.0143,1.0599,1.0953,1.0953,1.0748,1.0354,0.9772,0.9279,0.8875,0.8863,0.8664,0.8359,0.8343,0.808,0.7665,0.7371,0.6988,0.6577,0.6193,0.6077,0.5996,0.5655,0.5559,0.5607,0.5607,0.5888,0.6358,0.7011,0.8036,0.9169,1.0213,1.1701,1.3164,1.4083,1.5232,1.6266,1.6674,1.7073,1.7329,1.7329,1.7637,1.7734,1.7309,1.7287,1.7054,1.6314,1.5887,1.5564,1.5261,1.4712,1.4276,1.4006,1.3852,1.366,1.3428,1.3035,1.2804,1.2804,1.2114,1.1727,1.1727,1.1456,1.1146,1.0835,1.069,1.064,1.064,1.0844,1.1126,1.1417,1.15,1.1978,1.2692,1.2847,1.306,1.3403,1.3403,1.3403,1.3403,1.3403,1.3403,1.3403,1.3403,1.3403,1.3403,0.0,1.0344,1.0114,1.0069,0.0,0.9485,0.9427,0.9193,0.9065,0.9237,0.0,0.0,0.0,0.0,0.8722,0.8272,0.7851,0.7652,0.7726,0.7529,0.746,0.7619,0.7538,0.7505,0.7505,0.7505,0.7593,0.7794,0.8074,0.8505,0.9111,0.9554,0.9953,1.029,1.0195,1.0182,1.0211,0.9699,0.9284,0.8969,0.8942,0.8773,0.8549,0.868,0.8435,0.7974,0.7711,0.7309,0.6877,0.6427,0.6216,0.6092,0.5737,0.5577,0.5527,0.5626,0.58,0.6054,0.6634,0.7476,0.8403,0.9347,1.0723,1.2091,1.3174,1.4318,1.5308,1.5731,1.6145,1.6441,1.6417,1.6576,1.6658,1.6439,1.6339,1.6077,1.5298,1.4869,1.456,1.4323,1.3664,1.3139,1.2919,1.2656,1.2385,1.2114,1.1688,1.1456,1.1456,1.0952,1.0602,1.0486,1.0447,1.0314,1.004,0.9882,0.9841,0.9883,1.0075,1.0411,1.0823,1.0906,1.1445,1.2276,1.2443,1.2858,1.3403,1.3403,1.3403,1.3403,1.3403,1.3403,1.3403,1.3403,1.3403,1.3403,1.0787,1.0248,0.9757,0.9635,0.9227,0.8879,0.8758,0.8551,0.8607,0.9132,0.0,0.0,0.0,0.0,0.0,0.7982,0.7556,0.735,0.7419,0.7414,0.7448,0.7505,0.7515,0.7515,0.7524,0.7508,0.7612,0.7794,0.7793,0.8088,0.866,0.8678,0.8887,0.9255,0.8993,0.9151,0.9624,0.9453,0.9044,0.8512,0.8714,0.8716,0.8622,0.8887,0.8721,0.8318,0.7778,0.7511,0.7298,0.6781,0.6453,0.6257,0.6,0.5643,0.5375,0.5701,0.5802,0.5924,0.0,0.0,0.0,0.8842,0.9706,1.0754,1.2683,1.3573,1.4292,1.5245,1.5336,1.5246,1.5261,1.4971,1.5051,1.5964,1.5704,1.5071,1.4281,1.4355,1.4191,1.3536,1.2764,1.2332,1.2404,1.1721,1.1262,1.1223,1.0796,1.0563,1.0563,0.9825,0.9207,0.8817,0.8817,0.8831,0.8896,0.9035,0.914,0.9204,0.9354,0.9657,1.007,1.007,1.057,1.1403,1.1902,1.2567,1.3403,1.3403,1.3403,1.3403,1.3403,1.3403,1.3403,1.3403,1.3403,1.3403,1.0539,1.0245,0.9928,0.9906,0.965,0.947,0.942,0.917,0.903,0.0,0.0,0.0,0.9031,0.8951,0.8828,0.8636,0.8263,0.7971,0.783,0.7747,0.7702,0.7726,0.7726,0.7792,0.7927,0.7789,0.7682,0.7582,0.7592,0.7662,0.7847,0.797,0.8154,0.8365,0.8279,0.8168,0.8061,0.86,0.8678,0.8449,0.8584,0.8546,0.839,0.8461,0.8246,0.7863,0.7623,0.7296,0.6906,0.6518,0.6445,0.6475,0.6152,0.5834,0.563,0.5822,0.5938,0.6094,0.6429,0.0,0.0,0.0,0.0,0.0,1.0825,1.1787,1.2661,1.338,1.3947,1.4286,1.4294,1.401,1.3913,1.4273,1.4566,1.4479,1.3654,1.3478,1.3125,1.2358,1.2036,1.1536,1.0612,1.0429,1.0136,0.9519,0.9363,0.9285,0.9285,0.909,0.8895,0.8817,0.8817,0.8831,0.8896,0.9035,0.914,0.9204,0.9354,0.949,0.9616,0.9945,1.0404,1.0945,1.1736,1.2401,1.2899,1.3272,1.3403,1.3403,1.3403,1.3403,1.3403,1.3403,1.3403,1.3403,1.0279,1.0084,0.9889,0.9812,0.9712,0.9616,0.9507,0.9326,0.9249,0.0,0.0,0.0,0.935,0.9184,0.9057,0.9057,0.8623,0.829,0.8183,0.8027,0.7918,0.7918,0.7918,0.794,0.7974,0.785,0.7654,0.7372,0.737,0.7333,0.7257,0.7372,0.7407,0.7373,0.7373,0.7218,0.6981,0.7549,0.7893,0.8034,0.805,0.8037,0.8006,0.8002,0.7854,0.7597,0.7387,0.7149,0.6832,0.6537,0.6398,0.6306,0.6161,0.5889,0.5671,0.5968,0.6168,0.0,0.6527,0.6947,0.7393,0.7637,0.0,0.0,0.99,1.0653,1.133,1.1909,1.2448,1.2808,1.2862,1.2741,1.2712,1.2948,1.3282,1.3329,1.2909,1.2734,1.2387,1.1677,1.125,1.0718,0.9867,0.9559,0.923,0.8817,0.8661,0.8466,0.8271,0.8271,0.8271,0.8271,0.8312,0.8379,0.8442,0.8536,0.8634,0.8732,0.8832,0.8942,0.9114,0.9407,0.9861,1.0487,1.1195,1.1861,1.2484,1.2941,1.3238,1.3403,1.3403,1.3403,1.3403,1.3403,1.3403,1.3403,0.0,0.9929,0.9768,0.9606,0.9619,0.9555,0.9346,0.9298,0.9368,0.0,0.9694,0.9819,1.0111,0.9715,0.9439,0.9439,0.8882,0.8524,0.8477,0.8287,0.8154,0.8135,0.8118,0.802,0.787,0.7798,0.7592,0.7209,0.7157,0.7035,0.6831,0.6806,0.6672,0.6431,0.6404,0.6333,0.6218,0.6457,0.6864,0.7313,0.7294,0.7341,0.7457,0.745,0.742,0.7354,0.7081,0.6991,0.692,0.6686,0.6344,0.6031,0.6083,0.5865,0.5685,0.6178,0.6441,0.0,0.6764,0.7112,0.0,0.0,0.8191,0.0,0.9422,0.9838,1.0185,1.061,1.0922,1.1134,1.1205,1.1305,1.1456,1.1814,1.1833,1.1881,1.2109,1.2158,1.1928,1.1259,1.0535,0.9976,0.9661,0.8974,0.8568,0.8638,0.8306,0.792,0.7525,0.7486,0.7486,0.7486,0.7615,0.7745,0.7799,0.7848,0.7978,0.8102,0.8102,0.8273,0.8654,0.8696,0.9156,0.9986,1.0487,1.1195,1.2069,1.2526,1.2982,1.3403,1.3403,1.3403,1.3403,1.3403,1.3403,1.3403,1.0401,1.0168,0.9944,1.0113,0.9967,0.9898,1.0049,0.9893,0.9848,1.0136,1.0301,1.0558,1.0929,1.0607,1.0352,1.0352,0.9741,0.9221,0.8901,0.8703,0.8505,0.8344,0.818,0.8162,0.828,0.7818,0.7441,0.7208,0.6871,0.6608,0.6414,0.6245,0.6114,0.6002,0.5846,0.5663,0.5504,0.5731,0.5929,0.6184,0.6877,0.6949,0.6622,0.6507,0.6602,0.6744,0.6422,0.6511,0.6773,0.6746,0.6491,0.6156,0.6171,0.6172,0.0,0.6331,0.6699,0.7118,0.735,0.7645,0.0,0.0,0.0,0.0,0.8338,0.8512,0.8769,0.9258,0.9681,0.9951,1.0023,0.9978,0.999,1.0287,1.0045,1.03,1.1621,1.1952,1.162,1.0553,1.0239,0.9687,0.8689,0.8253,0.7929,0.768,0.764,0.7603,0.7486,0.7486,0.7486,0.7486,0.7615,0.7745,0.7799,0.7848,0.7978,0.8102,0.8102,0.8148,0.8232,0.8571,0.878,0.9031,1.0195,1.1029,1.1611,1.2359,1.2982,1.3403,1.3403,1.3403,1.3403,1.3403,1.3403,1.3403,1.0229,1.0246,1.0213,1.011,1.0185,1.0267,1.0289,1.0265,1.0343,1.0564,1.0948,1.135,1.174,1.1444,1.1149,1.1017,1.032,0.9717,0.9286,0.8966,0.8704,0.8504,0.8398,0.8262,0.8106,0.7794,0.7401,0.6904,0.6689,0.6506,0.6291,0.6063,0.5912,0.5824,0.5495,0.5329,0.5302,0.54,0.5519,0.5693,0.6272,0.6481,0.642,0.6197,0.6334,0.6607,0.6351,0.6473,0.6784,0.6682,0.6466,0.6243,0.6214,0.6171,0.6204,0.0,0.6822,0.7244,0.7671,0.0,0.0,0.8052,0.0,0.0,0.0,0.7597,0.7682,0.7818,0.812,0.8354,0.8401,0.8411,0.8478,0.8769,0.8757,0.902,0.9974,1.0577,1.0742,1.022,0.9605,0.8976,0.8253,0.7759,0.7327,0.7085,0.6911,0.684,0.684,0.6878,0.69,0.69,0.6982,0.7065,0.7147,0.7233,0.7316,0.7394,0.7394,0.752,0.7771,0.7939,0.8278,0.8738,0.9653,1.0445,1.1112,1.2027,1.265,1.3065,1.3314,1.3403,1.3403,1.3403,1.3403,1.3403,0.9982,1.0213,1.0364,1.0035,1.0302,1.0506,1.0374,1.056,1.0835,1.1151,1.1699,1.2147,1.2468,1.2215,1.1867,1.1477,1.0735,1.0071,0.9506,0.9115,0.8781,0.8537,0.8466,0.8237,0.7773,0.7661,0.7296,0.6645,0.6578,0.6428,0.6222,0.599,0.5817,0.5684,0.5281,0.5135,0.5225,0.5275,0.5331,0.5405,0.5703,0.6013,0.6277,0.5979,0.6126,0.6469,0.6318,0.6501,0.6748,0.6514,0.6398,0.6321,0.6244,0.6159,0.0,0.0,0.0,0.7308,0.0,0.0,0.0,0.0,0.0,0.7659,0.0,0.0,0.0,0.659,0.6669,0.6776,0.6802,0.6909,0.7049,0.7286,0.7554,0.7846,0.818,0.884,0.9395,0.9711,0.8919,0.8229,0.7969,0.727,0.6804,0.6649,0.6339,0.617,0.6183,0.6252,0.6297,0.6314,0.6346,0.6424,0.6499,0.6574,0.6652,0.6685,0.6685,0.6895,0.7269,0.7352,0.7771,0.8487,0.9031,0.9778,1.0654,1.157,1.2276,1.2733,1.3238,1.3403,1.3403,1.3403,1.3403,1.3403,0.9999,0.9985,1.0035,1.0221,1.0311,1.0397,1.0531,1.0891,1.1397,1.2136,1.2644,1.2927,1.2843,1.2805,1.2436,1.1651,1.0998,1.0295,0.9461,0.9076,0.8712,0.8255,0.8026,0.7814,0.7622,0.7152,0.6871,0.6777,0.6478,0.6196,0.5944,0.5849,0.5656,0.5349,0.5183,0.5038,0.495,0.5145,0.5122,0.4987,0.5338,0.5509,0.5614,0.5513,0.5577,0.5733,0.5846,0.6069,0.6342,0.6205,0.6305,0.6436,0.6263,0.6328,0.6461,0.6656,0.0,0.0,0.0,0.0,0.0,0.0,0.7744,0.0,0.0,0.0,0.6088,0.5933,0.0,0.563,0.5739,0.0,0.0,0.5977,0.6247,0.6601,0.7189,0.7136,0.7428,0.8392,0.8272,0.7906,0.7344,0.6743,0.638,0.6363,0.6143,0.6033,0.6101,0.6177,0.6249,0.631,0.6346,0.6424,0.6499,0.6574,0.6652,0.6685,0.6685,0.6727,0.6811,0.7227,0.7436,0.7604,0.8403,0.9323,1.0237,1.1112,1.1944,1.2733,1.3238,1.3403,1.3403,1.3403,1.3403,1.3403,0.989,1.0036,1.0127,1.0127,1.018,1.0311,1.0515,1.1016,1.1612,1.2297,1.2768,1.3009,1.2952,1.2924,1.251,1.1503,1.0939,1.0249,0.9296,0.887,0.856,0.8263,0.8067,0.7833,0.7547,0.7325,0.6951,0.6458,0.6318,0.6067,0.5718,0.549,0.5413,0.5395,0.5031,0.485,0.4839,0.492,0.4914,0.4881,0.5161,0.5204,0.5096,0.5133,0.527,0.5485,0.581,0.5984,0.6054,0.5972,0.5979,0.5988,0.5745,0.5723,0.0,0.6252,0.0,0.0,0.0,0.0,0.0,0.0,0.0,0.0,0.6437,0.0,0.5869,0.0,0.0,0.0,0.0,0.0,0.0,0.0,0.5457,0.5851,0.6181,0.6324,0.6757,0.7683,0.7383,0.6997,0.6666,0.6111,0.5781,0.5827,0.5441,0.5223,0.529,0.5395,0.545,0.5474,0.5537,0.5603,0.5672,0.5738,0.5804,0.5873,0.5912,0.6098,0.6347,0.6556,0.6933,0.7436,0.8064,0.8859,0.9783,1.0612,1.1528,1.2401,1.2816,1.3148,1.3403,1.3403,1.3403,1.3403,0.9566,0.9847,0.9973,0.9842,0.9962,1.0209,1.0534,1.1036,1.1594,1.2196,1.2684,1.2912,1.2743,1.2798,1.2301,1.1063,1.0575,0.9916,0.8863,0.8552,0.8301,0.8065,0.8014,0.7806,0.7423,0.7316,0.6919,0.6255,0.6111,0.5862,0.5512,0.523,0.5162,0.5264,0.4963,0.4818,0.4809,0.4893,0.4869,0.4755,0.5044,0.5021,0.4814,0.4894,0.5033,0.5192,0.5544,0.5719,0.5735,0.57,0.5627,0.5531,0.5322,0.5151,0.5177,0.0,0.0,0.0,0.7453,0.0,0.0,0.0,0.0,0.0,0.0,0.0,0.0,0.0,0.4698,0.0,0.0,0.0,0.4235,0.4346,0.0,0.5022,0.5111,0.5391,0.5936,0.6835,0.6499,0.6145,0.6087,0.5601,0.5291,0.5366,0.4821,0.455,0.4646,0.4788,0.4864,0.4896,0.4953,0.5049,0.5112,0.5172,0.5234,0.5294,0.5354,0.5594,0.5927,0.6053,0.6514,0.7227,0.7687,0.8399,0.9281,1.0153,1.107,1.1944,1.2484,1.2982,1.3403,1.3403,1.3403,1.3403,0.8882,0.9144,0.9327,0.9327,0.9601,1.0038,1.0687,1.0962,1.1307,1.1847,1.2556,1.2754,1.2113,1.2374,1.1931,1.0277,0.9876,0.925,0.8103,0.8074,0.7899,0.746,0.7623,0.7553,0.7223,0.6832,0.6563,0.64,0.5862,0.5511,0.5298,0.5156,0.496,0.4742,0.505,0.5052,0.4826,0.5148,0.5036,0.4623,0.4891,0.4941,0.481,0.4715,0.4773,0.4804,0.4845,0.5069,0.5396,0.5332,0.5262,0.5189,0.5122,0.4808,0.4533,0.5155,0.5288,0.5455,0.6464,0.6696,0.6674,0.6884,0.6731,0.6397,0.5915,0.5669,0.5373,0.0,0.0,0.0,0.3884,0.3773,0.3727,0.373,0.3845,0.0,0.0,0.403,0.4498,0.562,0.5691,0.5688,0.5816,0.5269,0.4946,0.5017,0.4515,0.4305,0.448,0.4699,0.4815,0.4894,0.4953,0.5049,0.5112,0.5172,0.5234,0.5294,0.5354,0.5426,0.5426,0.5885,0.6347,0.6769,0.723,0.7897,0.878,0.9736,1.0612,1.1528,1.2359,1.2982,1.3403,1.3403,1.3403,1.3403,0.8505,0.8589,0.8709,0.8926,0.9175,0.9585,1.0358,1.056,1.0847,1.1417,1.1754,1.1725,1.1141,1.1381,1.1044,0.9683,0.9308,0.8873,0.8162,0.7916,0.7679,0.7459,0.7408,0.7252,0.7007,0.6741,0.6385,0.5936,0.5584,0.5243,0.4958,0.4826,0.4656,0.4451,0.4688,0.4617,0.4354,0.4687,0.4677,0.4496,0.4745,0.4861,0.4872,0.4853,0.4831,0.4872,0.491,0.4976,0.5017,0.4728,0.4608,0.4436,0.3829,0.3526,0.3481,0.3857,0.3946,0.4176,0.5221,0.5598,0.5726,0.591,0.6015,0.5911,0.5377,0.524,0.5111,0.4658,0.0,0.0,0.0,0.3884,0.3811,0.3719,0.3898,0.4009,0.0,0.3919,0.41,0.4593,0.4727,0.0,0.4859,0.4608,0.4466,0.4517,0.4287,0.4234,0.4417,0.4633,0.4752,0.4834,0.4896,0.4953,0.5052,0.5153,0.5213,0.5234,0.5335,0.5384,0.5384,0.5552,0.5885,0.6347,0.6769,0.7436,0.8357,0.9277,1.0153,1.1029,1.1944,1.2567,1.2982,1.3279,1.3403,1.3403,0.8288,0.8237,0.8293,0.8645,0.8953,0.9367,0.9961,1.0173,1.0403,1.0685,1.0885,1.081,1.0243,1.0414,1.0144,0.908,0.8804,0.8469,0.7993,0.7788,0.7627,0.7493,0.7405,0.7211,0.6965,0.6687,0.6289,0.5804,0.5437,0.5119,0.4826,0.4573,0.438,0.4266,0.4413,0.4367,0.4167,0.4529,0.4596,0.4482,0.4744,0.491,0.4961,0.4961,0.4948,0.4931,0.4969,0.488,0.4696,0.4425,0.4004,0.3501,0.2945,0.2539,0.2358,0.2656,0.2729,0.2947,0.3886,0.434,0.4575,0.4774,0.5009,0.5091,0.4711,0.4621,0.4535,0.4162,0.4021,0.3934,0.0,0.3768,0.3769,0.3636,0.3716,0.3751,0.0,0.3613,0.3644,0.3741,0.4093,0.0,0.0,0.4202,0.4114,0.4191,0.406,0.4087,0.4292,0.4491,0.4665,0.4809,0.4856,0.4926,0.498,0.5142,0.5202,0.5204,0.5327,0.5384,0.5384,0.5384,0.5675,0.6137,0.6518,0.7147,0.7939,0.8775,0.9699,1.057,1.132,1.2069,1.2775,1.3231,1.3403,1.3403,0.8226,0.8146,0.8165,0.8515,0.8979,0.9405,0.9586,0.9883,1.0011,0.9731,1.0013,1.0031,0.9446,0.9532,0.9278,0.8432,0.8295,0.804,0.7519,0.7684,0.7726,0.7501,0.7538,0.7406,0.7057,0.6614,0.6226,0.5955,0.5399,0.5049,0.4838,0.4387,0.4173,0.4164,0.4238,0.4248,0.4201,0.4603,0.4724,0.4652,0.4907,0.5063,0.5115,0.5115,0.5079,0.4985,0.4983,0.4748,0.4397,0.4358,0.3508,0.2472,0.2433,0.1837,0.1247,0.1568,0.1659,0.182,0.2518,0.298,0.3279,0.3464,0.3737,0.3965,0.3849,0.3779,0.3648,0.3339,0.3547,0.3661,0.3351,0.3458,0.355,0.3485,0.3323,0.3188,0.3119,0.3104,0.309,0.309,0.0,0.0,0.0,0.4014,0.3913,0.3965,0.3874,0.3872,0.408,0.4349,0.46,0.4786,0.4869,0.4921,0.498,0.5142,0.5202,0.5204,0.5327,0.5384,0.5384,0.5384,0.5636,0.6095,0.6476,0.6937,0.7436,0.8319,0.9198,1.007,1.0529,1.1528,1.2775,1.3231,1.3403,1.3403,0.8563,0.8838,0.9158,0.9538,0.9662,0.9734,0.9948,1.009,1.0048,0.9746,0.9781,0.9612,0.8935,0.8731,0.8407,0.7858,0.7718,0.7578,0.7436,0.7617,0.7665,0.751,0.7423,0.7106,0.6515,0.6101,0.5636,0.5116,0.4632,0.4322,0.4221,0.4065,0.3867,0.3692,0.3969,0.4009,0.3938,0.4282,0.4586,0.4821,0.5022,0.5125,0.518,0.518,0.5142,0.5082,0.5036,0.4748,0.4319,0.365,0.3018,0.2347,0.1368,0.0931,0.0767,0.0841,0.0871,0.0974,0.1494,0.1872,0.212,0.212,0.2351,0.2664,0.2821,0.286,0.2908,0.3101,0.3211,0.3212,0.3048,0.3219,0.333,0.0,0.0,0.0,0.0,0.0,0.0,0.309,0.0,0.3462,0.348,0.3471,0.3498,0.3622,0.3733,0.3872,0.408,0.4313,0.4559,0.4786,0.4828,0.488,0.498,0.5142,0.5202,0.5204,0.5327,0.5384,0.5384,0.5384,0.5468,0.5594,0.6053,0.6472,0.6937,0.7855,0.8566,0.9156,1.0278,1.1528,1.2775,1.3231,1.3403,1.3403,0.8988,0.9469,0.993,1.0083,1.0287,1.0358,1.0247,1.0102,0.985,0.9431,0.9301,0.9045,0.853,0.8209,0.7905,0.7602,0.7341,0.7163,0.7163,0.7222,0.7247,0.7161,0.6966,0.6644,0.6212,0.5855,0.0,0.4936,0.4517,0.4226,0.4031,0.3857,0.3685,0.35,0.3725,0.3828,0.3831,0.4298,0.4646,0.491,0.5093,0.5188,0.0,0.4997,0.4933,0.4859,0.4603,0.4356,0.4003,0.314,0.2435,0.1807,0.0903,0.0469,0.0349,0.0348,0.0345,0.0381,0.0606,0.0936,0.1218,0.1123,0.1391,0.1716,0.1841,0.1897,0.1961,0.2181,0.2454,0.2645,0.2521,0.2981,0.3351,0.0,0.0,0.0,0.0,0.0,0.0,0.0,0.3223,0.3223,0.3171,0.322,0.3282,0.3376,0.3548,0.3744,0.3959,0.4166,0.439,0.4666,0.4747,0.4864,0.4945,0.5128,0.5202,0.5204,0.5327,0.5384,0.5384,0.5384,0.5384,0.5426,0.5885,0.6347,0.6769,0.7478,0.8148,0.8822,1.0195,1.1278,1.2193,1.2858,1.3238,1.3403,0.9512,1.0092,1.0505,1.0325,1.0706,1.0884,1.0406,1.0022,0.9568,0.9026,0.8824,0.8602,0.8266,0.7842,0.7545,0.7545,0.7099,0.6832,0.6832,0.6748,0.6716,0.6716,0.6506,0.6284,0.6062,0.5756,0.5383,0.4988,0.4657,0.4331,0.4018,0.3709,0.3541,0.3474,0.3569,0.371,0.3908,0.4465,0.4774,0.4923,0.5054,0.5161,0.5181,0.4682,0.447,0.4377,0.3886,0.3693,0.3501,0.2716,0.1888,0.1139,0.0668,0.0275,0.0,0.0,0.0,0.0,0.0,0.0266,0.0491,0.0444,0.0697,0.0981,0.1064,0.1056,0.1055,0.1158,0.1615,0.195,0.1954,0.2706,0.3389,0.0,0.0,0.0,0.0,0.0,0.0,0.0,0.0,0.0,0.3103,0.3163,0.3196,0.3204,0.339,0.357,0.3787,0.3995,0.4234,0.4474,0.4696,0.4815,0.4896,0.5115,0.5202,0.5204,0.5327,0.5384,0.5384,0.5384,0.5384,0.5426,0.5843,0.6221,0.6643,0.7105,0.7859,0.8822,1.0028,1.0862,1.1403,1.2318,1.2899,1.3321,1.0117,1.0528,1.0691,1.0236,1.0167,1.0134,0.9947,1.0027,0.981,0.8928,0.8901,0.8839,0.8503,0.7755,0.7269,0.7269,0.6725,0.6385,0.6385,0.6698,0.6865,0.6865,0.6712,0.6392,0.5925,0.5594,0.511,0.4442,0.4162,0.3876,0.3598,0.3436,0.3351,0.3351,0.3526,0.382,0.4232,0.4572,0.4796,0.4977,0.4706,0.4692,0.4737,0.4275,0.3876,0.3472,0.3012,0.2803,0.2748,0.2192,0.1426,0.0668,0.0236,0.0039,0.0,0.0,0.0,0.0,0.0,0.0039,0.0115,0.0076,0.0151,0.0369,0.0946,0.0827,0.0782,0.1441,0.142,0.1364,0.1614,0.2404,0.3125,0.3606,0.3674,0.0,0.0,0.0,0.0,0.0,0.0,0.3247,0.3103,0.3101,0.3152,0.3201,0.3325,0.3526,0.3787,0.3995,0.4234,0.4474,0.4696,0.4815,0.4896,0.5115,0.5202,0.5204,0.5327,0.5384,0.5384,0.5384,0.5384,0.5384,0.5468,0.5801,0.6221,0.6643,0.7566,0.878,0.9407,1.0112,1.0945,1.1861,1.2484,1.2899,1.0287,1.0533,1.0471,0.9615,0.9612,0.9513,0.8777,0.8847,0.8985,0.8978,0.8895,0.878,0.8603,0.7828,0.7289,0.7289,0.6545,0.606,0.606,0.6189,0.6264,0.6264,0.6169,0.5969,0.5633,0.5379,0.5,0.4444,0.4145,0.3858,0.3589,0.3469,0.3412,0.3398,0.3496,0.3755,0.4107,0.4109,0.4231,0.4366,0.4225,0.4103,0.3954,0.3491,0.3018,0.2545,0.2086,0.1775,0.1586,0.1334,0.0961,0.0515,0.0119,0.0,0.0,0.0,0.0,0.0,0.0,0.0,0.0039,0.027,0.0306,0.0453,0.1036,0.099,0.0909,0.1077,0.1098,0.1253,0.176,0.2441,0.3032,0.3472,0.3648,0.0,0.0,0.0,0.0,0.0,0.0,0.0,0.0,0.3109,0.3103,0.3155,0.3242,0.3422,0.3691,0.3875,0.4112,0.4384,0.4633,0.4766,0.485,0.5098,0.5202,0.5204,0.5327,0.5384,0.5384,0.5384,0.5384,0.5384,0.5384,0.5678,0.6137,0.6808,0.744,0.811,0.878,0.9574,1.0487,1.1112,1.1944,1.2775,1.0059,1.0046,0.9723,0.863,0.8654,0.8488,0.7515,0.753,0.794,0.8623,0.8542,0.8444,0.8444,0.7724,0.721,0.721,0.6382,0.5805,0.5805,0.5749,0.5734,0.5734,0.5662,0.5566,0.5406,0.5224,0.4962,0.4646,0.4324,0.403,0.3733,0.3624,0.3558,0.3485,0.3427,0.3492,0.3654,0.3536,0.3492,0.3537,0.3497,0.334,0.303,0.2573,0.2108,0.1683,0.1304,0.0921,0.0539,0.0493,0.0487,0.0401,0.008,0.0,0.0,0.0,0.0,0.0,0.0,0.0,0.0078,0.0504,0.0618,0.0767,0.1312,0.1377,0.1259,0.1024,0.1117,0.1409,0.2001,0.2556,0.3064,0.3395,0.3684,0.385,0.0,0.0,0.0,0.0,0.0,0.0,0.3236,0.3158,0.3095,0.3109,0.3179,0.3309,0.3575,0.379,0.4029,0.4297,0.4575,0.4722,0.4807,0.5082,0.5202,0.5204,0.5327,0.5384,0.5384,0.5384,0.5384,0.5384,0.5384,0.5678,0.6137,0.685,0.7227,0.7478,0.8152,0.8989,0.9861,1.0362,1.1362,1.2484,0.9178,0.863,0.796,0.7073,0.6785,0.6686,0.6617,0.6792,0.7068,0.748,0.7519,0.7529,0.7529,0.7026,0.6657,0.6657,0.6192,0.5867,0.5867,0.5807,0.5769,0.5769,0.5748,0.563,0.5511,0.5289,0.5044,0.4775,0.4493,0.4218,0.3893,0.3858,0.3734,0.3498,0.3242,0.3002,0.2841,0.299,0.2906,0.2602,0.2248,0.2102,0.2064,0.1617,0.1189,0.08,0.0758,0.0463,0.0084,0.0042,0.0041,0.0041,0.0,0.0,0.0,0.0,0.0,0.0,0.0,0.0,0.0079,0.051,0.0583,0.0884,0.2048,0.2023,0.1814,0.2084,0.186,0.1741,0.2031,0.2655,0.3197,0.3539,0.3799,0.3961,0.3909,0.0,0.3746,0.3602,0.0,0.0,0.3293,0.3182,0.3114,0.3193,0.3201,0.3309,0.3575,0.379,0.4029,0.4297,0.4575,0.4722,0.4807,0.5082,0.5202,0.5204,0.5327,0.5384,0.5384,0.5384,0.5384,0.5384,0.5384,0.5678,0.6095,0.6179,0.6682,0.7394,0.7478,0.8068,0.8947,0.9824,1.0737,1.1653,0.741,0.6916,0.6264,0.5361,0.5248,0.5164,0.4932,0.5241,0.5611,0.5759,0.6854,0.7602,0.7606,0.7128,0.6825,0.6785,0.6278,0.5978,0.5978,0.5921,0.5824,0.5788,0.5785,0.5703,0.5627,0.5481,0.5115,0.4624,0.4394,0.4019,0.3492,0.344,0.3258,0.2963,0.2695,0.2372,0.208,0.2,0.1902,0.1786,0.1605,0.1407,0.1202,0.0992,0.0646,0.03,0.0298,0.017,0.0,0.0,0.0,0.0,0.0,0.0,0.0,0.0,0.0,0.0,0.0,0.0,0.0157,0.0864,0.1213,0.1632,0.2612,0.2843,0.2844,0.2736,0.2384,0.2011,0.187,0.2575,0.3189,0.3275,0.3742,0.4036,0.3977,0.0,0.0,0.374,0.0,0.0,0.0,0.3325,0.3288,0.3312,0.3247,0.3309,0.3575,0.379,0.4029,0.4297,0.4575,0.4722,0.4807,0.5082,0.5202,0.5204,0.5327,0.5384,0.5384,0.5384,0.5384,0.5384,0.5384,0.551,0.572,0.5969,0.6305,0.6682,0.7185,0.7771,0.8441,0.936,1.0237,1.1112,0.5465,0.497,0.4412,0.3745,0.3613,0.3568,0.3408,0.3728,0.4094,0.4255,0.554,0.6546,0.6806,0.6506,0.6339,0.6468,0.609,0.5821,0.5805,0.5748,0.5606,0.5427,0.5409,0.5349,0.528,0.5186,0.486,0.4322,0.4144,0.3779,0.329,0.2965,0.266,0.2316,0.2041,0.1727,0.1382,0.1178,0.1041,0.0935,0.0903,0.0736,0.0478,0.048,0.0305,0.0,0.0,0.0,0.0,0.0,0.0,0.0,0.0,0.0,0.0,0.0,0.0,0.0,0.0,0.008,0.0355,0.1105,0.1694,0.2271,0.3094,0.3551,0.3692,0.3374,0.2978,0.2567,0.2297,0.2862,0.3373,0.3343,0.3778,0.4099,0.4039,0.3966,0.0,0.3814,0.3691,0.3564,0.3501,0.3444,0.342,0.3436,0.3347,0.3417,0.3605,0.3801,0.4029,0.4297,0.4575,0.4722,0.4807,0.5082,0.5202,0.5204,0.5327,0.5384,0.5384,0.5384,0.5384,0.5384,0.5384,0.5384,0.5426,0.5759,0.5969,0.6179,0.6892,0.7478,0.8022,0.8932,0.9827,1.0666,0.3611,0.2881,0.2224,0.2224,0.1853,0.1723,0.2335,0.2437,0.2595,0.3125,0.323,0.3657,0.4622,0.471,0.4936,0.5374,0.5418,0.5394,0.5294,0.5242,0.5024,0.4553,0.4465,0.4402,0.431,0.4263,0.4107,0.3888,0.3757,0.3646,0.348,0.2614,0.2031,0.1696,0.1366,0.1001,0.0621,0.0628,0.0383,0.0,0.0,0.0,0.0,0.0,0.0,0.0,0.0,0.0,0.0,0.0,0.0,0.0,0.0,0.0,0.0,0.0,0.0,0.0,0.0,0.0282,0.0719,0.1199,0.1902,0.2701,0.3517,0.3971,0.4171,0.4102,0.3751,0.3468,0.3468,0.3708,0.3881,0.3881,0.406,0.4161,0.4101,0.3993,0.0,0.3814,0.3691,0.3564,0.3501,0.3444,0.3436,0.3491,0.355,0.3639,0.3702,0.3823,0.4029,0.4297,0.4575,0.4722,0.4807,0.5082,0.5202,0.5204,0.5327,0.5384,0.5384,0.5384,0.5384,0.5384,0.5384,0.5384,0.5384,0.5426,0.5678,0.6137,0.656,0.6979,0.7531,0.8543,0.9465,1.0286,0.2187,0.1658,0.1224,0.1232,0.1138,0.1094,0.1305,0.1608,0.1912,0.2069,0.2121,0.2217,0.2554,0.3533,0.4196,0.435,0.469,0.4914,0.4817,0.48,0.4716,0.451,0.4494,0.4461,0.4356,0.3964,0.3536,0.3161,0.2752,0.2314,0.1934,0.1645,0.1327,0.0932,0.0826,0.0587,0.0212,0.0171,0.013,0.0,0.0,0.0,0.0,0.0,0.0,0.0,0.0,0.0,0.0,0.0,0.0,0.0,0.0,0.0,0.0,0.0,0.0,0.0,0.0,0.0327,0.0767,0.1202,0.2152,0.313,0.364,0.4187,0.4519,0.4223,0.4019,0.3828,0.3546,0.3735,0.3889,0.3888,0.4093,0.4243,0.4107,0.4061,0.4011,0.388,0.3828,0.3779,0.3715,0.3696,0.371,0.3768,0.3792,0.3812,0.3831,0.3954,0.4158,0.442,0.4657,0.4804,0.4923,0.5123,0.5224,0.5264,0.5346,0.5384,0.5384,0.5384,0.5384,0.5384,0.5384,0.5384,0.5384,0.5384,0.5468,0.5681,0.6105,0.659,0.7191,0.8128,0.8848,0.9535,0.0942,0.0695,0.0497,0.05,0.0501,0.0502,0.0505,0.0808,0.101,0.101,0.101,0.101,0.101,0.206,0.2891,0.3259,0.3601,0.3784,0.3747,0.3733,0.3609,0.3372,0.3359,0.3338,0.3306,0.2941,0.2585,0.228,0.1925,0.1502,0.1012,0.1012,0.0801,0.038,0.0385,0.0216,0.0,0.0,0.0,0.0,0.0,0.0,0.0,0.0,0.0,0.0,0.0,0.0,0.0,0.0,0.0,0.0,0.0,0.0,0.0,0.0,0.0,0.0,0.0,0.0454,0.1022,0.146,0.2493,0.358,0.4109,0.4547,0.4742,0.4473,0.4391,0.4277,0.4006,0.4044,0.4123,0.4122,0.4224,0.4264,0.4109,0.4093,0.4036,0.3913,0.3894,0.388,0.3842,0.3837,0.3861,0.3921,0.3946,0.4009,0.4056,0.4112,0.427,0.4545,0.4692,0.4864,0.498,0.5164,0.5256,0.5294,0.5354,0.5384,0.5384,0.5384,0.5384,0.5384,0.5384,0.5384,0.5384,0.5384,0.5398,0.5465,0.5926,0.6426,0.7013,0.783,0.8513,0.9213,0.0,0.0,0.0,0.0,0.0,0.0,0.0,0.0,0.0,0.0,0.0,0.0,0.0,0.0455,0.1107,0.2044,0.2192,0.2233,0.2262,0.2242,0.2036,0.15,0.1487,0.152,0.1505,0.1457,0.1396,0.1324,0.1252,0.1013,0.0654,0.0654,0.0436,0.0,0.0,0.0,0.0,0.0,0.0,0.0,0.0,0.0,0.0,0.0,0.0,0.0,0.0,0.0,0.0,0.0,0.0,0.0,0.0,0.0,0.0,0.0,0.0,0.0,0.0,0.0627,0.1409,0.1903,0.2926,0.4053,0.474,0.4904,0.4866,0.4828,0.4797,0.4775,0.4718,0.4602,0.4517,0.4517,0.4384,0.4267,0.4118,0.4099,0.4058,0.3914,0.3905,0.3908,0.3908,0.3911,0.3969,0.4023,0.408,0.4166,0.4324,0.4278,0.4352,0.4613,0.4726,0.4875,0.5033,0.5207,0.5294,0.53,0.5357,0.5384,0.5384,0.5384,0.5384,0.5384,0.5384,0.5384,0.5384,0.539,0.5425,0.552,0.591,0.6378,0.6919,0.752,0.8301,0.9105,0.0,0.0,0.0,0.0,0.0,0.0,0.0,0.0,0.0,0.0,0.0,0.0,0.0,0.0101,0.0303,0.0503,0.1308,0.1754,0.1788,0.1783,0.1671,0.1501,0.1497,0.1488,0.152,0.1132,0.0748,0.0323,0.0319,0.0271,0.018,0.0179,0.0089,0.0,0.0,0.0,0.0,0.0,0.0,0.0,0.0,0.0,0.0,0.0,0.0,0.0,0.0,0.0,0.0,0.0,0.0,0.0,0.0,0.0,0.0,0.0,0.0,0.0,0.0,0.063,0.1422,0.1865,0.3171,0.4469,0.4958,0.4961,0.4891,0.4861,0.482,0.4789,0.4773,0.4633,0.4517,0.4517,0.4384,0.4281,0.4172,0.4161,0.4134,0.4061,0.4093,0.412,0.412,0.4164,0.4248,0.4308,0.4324,0.4406,0.4608,0.4602,0.4641,0.4745,0.4886,0.4999,0.5158,0.5248,0.5316,0.5363,0.5376,0.5384,0.5384,0.5384,0.5384,0.5384,0.5384,0.5384,0.5387,0.5436,0.5506,0.5528,0.5703,0.6101,0.6561,0.6716,0.741,0.8259,0.0,0.0,0.0,0.0,0.0,0.0,0.0,0.0,0.0,0.0,0.0,0.0,0.0,0.0,0.0,0.0,0.0556,0.0857,0.0853,0.0849,0.0843,0.0834,0.0827,0.082,0.0816,0.0571,0.0283,0.0,0.0,0.0,0.0,0.0,0.0,0.0,0.0,0.0,0.0,0.0,0.0,0.0,0.0,0.0,0.0,0.0,0.0,0.0,0.0,0.0,0.0,0.0,0.0,0.0,0.0,0.0,0.0,0.0,0.0,0.0,0.0,0.0634,0.1552,0.2613,0.3892,0.4905,0.5121,0.5082,0.4969,0.4942,0.4902,0.482,0.4803,0.4688,0.4583,0.4526,0.4409,0.4319,0.4229,0.4182,0.4215,0.4177,0.4237,0.4281,0.4333,0.4368,0.4412,0.4474,0.4504,0.4611,0.4737,0.4819,0.4842,0.4875,0.4997,0.512,0.5243,0.5305,0.5352,0.5384,0.5384,0.5384,0.5384,0.5384,0.5384,0.5387,0.5414,0.5425,0.5431,0.5533,0.5572,0.5605,0.5668,0.6021,0.645,0.6487,0.6946,0.762,0.0,0.0,0.0,0.0,0.0,0.0,0.0,0.0,0.0,0.0,0.0,0.0,0.0,0.0,0.0,0.0,0.0,0.0,0.0,0.0,0.0,0.0,0.0,0.0,0.0,0.0,0.0,0.0,0.0,0.0,0.0,0.0,0.0,0.0,0.0,0.0,0.0,0.0,0.0,0.0,0.0,0.0,0.0,0.0,0.0,0.0,0.0,0.0,0.0,0.0,0.0,0.0,0.0,0.0,0.0,0.0,0.0,0.0,0.0,0.0679,0.1805,0.3492,0.4556,0.5198,0.5229,0.5169,0.5109,0.5046,0.495,0.4877,0.4841,0.4756,0.4666,0.4561,0.4447,0.4365,0.427,0.4248,0.427,0.4341,0.4357,0.4403,0.4548,0.4531,0.4559,0.461,0.4699,0.4759,0.4828,0.4937,0.5033,0.506,0.5112,0.5194,0.5305,0.536,0.5384,0.5384,0.5392,0.5398,0.5398,0.5406,0.5412,0.5414,0.5509,0.5531,0.5536,0.5594,0.5646,0.5695,0.5704,0.5961,0.6365,0.6365,0.6678,0.7084,0.0,0.0,0.0,0.0,0.0,0.0,0.0,0.0,0.0,0.0,0.0,0.0,0.0,0.0,0.0,0.0,0.0,0.0,0.0,0.0,0.0,0.0,0.0,0.0,0.0,0.0,0.0,0.0,0.0,0.0,0.0,0.0,0.0,0.0,0.0,0.0,0.0,0.0,0.0,0.0,0.0,0.0,0.0,0.0,0.0,0.0,0.0,0.0,0.0,0.0,0.0,0.0,0.0,0.0,0.0,0.0,0.0,0.0,0.0,0.0934,0.2228,0.365,0.4329,0.4794,0.5198,0.5232,0.5172,0.5109,0.5049,0.4948,0.4883,0.4774,0.4693,0.4677,0.4501,0.4409,0.4436,0.4401,0.4412,0.4556,0.4613,0.4671,0.4743,0.476,0.4756,0.4764,0.4775,0.4826,0.4973,0.5006,0.509,0.5245,0.5262,0.53,0.5371,0.5379,0.5384,0.5384,0.5436,0.5503,0.5506,0.5553,0.5575,0.5575,0.5586,0.5588,0.5594,0.5654,0.5687,0.5698,0.5706,0.5733,0.5831,0.5831,0.6141,0.6589,0.0,0.0,0.0,0.0,0.0,0.0,0.0,0.0,0.0,0.0,0.0,0.0,0.0,0.0,0.0,0.0,0.0,0.0,0.0,0.0,0.0,0.0,0.0,0.0,0.0,0.0,0.0,0.0,0.0,0.0,0.0,0.0,0.0,0.0,0.0,0.0,0.0,0.0,0.0,0.0,0.0,0.0,0.0,0.0,0.0,0.0,0.0,0.0,0.0,0.0,0.0,0.0,0.0,0.0,0.0,0.0,0.0,0.0088,0.0559,0.1321,0.233,0.3663,0.4314,0.4757,0.5257,0.5294,0.5243,0.5215,0.5161,0.509,0.4961,0.4913,0.4815,0.4721,0.463,0.4564,0.4523,0.4488,0.4561,0.4646,0.4712,0.4773,0.4798,0.4791,0.4834,0.4896,0.4902,0.4953,0.5112,0.515,0.5207,0.5292,0.5324,0.5357,0.5384,0.5417,0.5433,0.5433,0.5536,0.5564,0.5564,0.5591,0.5602,0.5605,0.5638,0.5651,0.5657,0.5673,0.5698,0.5703,0.5686,0.5696,0.5696,0.5696,0.5876,0.6052,0.0,0.0,0.0,0.0,0.0,0.0,0.0,0.0,0.0,0.0,0.0,0.0,0.0,0.0,0.0,0.0,0.0,0.0,0.0,0.0,0.0,0.0,0.0,0.0,0.0,0.0,0.0,0.0,0.0,0.0,0.0,0.0,0.0,0.0,0.0,0.0,0.0,0.0,0.0,0.0,0.0,0.0,0.0,0.0,0.0,0.0,0.0,0.0,0.0,0.0,0.0,0.0,0.0,0.0,0.0,0.0,0.0089,0.0353,0.1252,0.1842,0.2475,0.3722,0.4389,0.485,0.5303,0.5349,0.5311,0.5297,0.5256,0.5191,0.5082,0.5038,0.4959,0.4777,0.4748,0.4693,0.4578,0.463,0.4685,0.4773,0.4825,0.4848,0.4883,0.4891,0.4926,0.5057,0.5063,0.5109,0.5218,0.5267,0.5308,0.5335,0.5382,0.5406,0.5406,0.5509,0.5539,0.5539,0.5597,0.5624,0.5624,0.5638,0.5602,0.5649,0.5695,0.5715,0.572,0.5722,0.5696,0.5696,0.5696,0.5696,0.5696,0.5696,0.5696,0.5696,0.0,0.0,0.0,0.0,0.0,0.0,0.0,0.0,0.0,0.0,0.0,0.0,0.0,0.0,0.0,0.0,0.0,0.0,0.0,0.0,0.0,0.0,0.0,0.0,0.0,0.0,0.0,0.0,0.0,0.0,0.0,0.0,0.0,0.0,0.0,0.0,0.0,0.0,0.0,0.0,0.0,0.0,0.0,0.0,0.0,0.0,0.0,0.0,0.0,0.0,0.0,0.0,0.0,0.0,0.0,0.0,0.0314,0.0848,0.1791,0.2371,0.2951,0.3886,0.444,0.4897,0.5311,0.5382,0.5363,0.5305,0.5289,0.5267,0.5202,0.5098,0.4975,0.4997,0.4856,0.4803,0.4775,0.4774,0.4841,0.4976,0.4997,0.5046,0.5164,0.5177,0.518,0.5188,0.5188,0.5218,0.5283,0.5292,0.5346,0.55,0.5509,0.5511,0.5511,0.5569,0.5597,0.5597,0.566,0.5687,0.569,0.5703,0.5683,0.5683,0.5688,0.5688,0.5691,0.5694,0.5696,0.5696,0.5696,0.5696,0.5696,0.5696,0.5696,0.5696,0.0,0.0,0.0,0.0,0.0,0.0,0.0,0.0,0.0,0.0,0.0,0.0,0.0,0.0,0.0,0.0,0.0,0.0,0.0,0.0,0.0,0.0,0.0,0.0,0.0,0.0,0.0,0.0,0.0,0.0,0.0,0.0,0.0,0.0,0.0,0.0,0.0,0.0,0.0,0.0,0.0,0.0185,0.0506,0.0506,0.0689,0.0914,0.0591,0.0499,0.0453,0.009,0.0,0.0,0.0,0.0,0.0134,0.0712,0.1422,0.213,0.2773,0.2889,0.3094,0.4284,0.4709,0.4953,0.537,0.5442,0.5422,0.5363,0.5349,0.5333,0.527,0.5221,0.5164,0.509,0.5019,0.497,0.4918,0.4967,0.5,0.5068,0.5109,0.5153,0.5199,0.5202,0.5218,0.5256,0.5259,0.5286,0.5346,0.5387,0.5487,0.5569,0.5608,0.561,0.5572,0.563,0.566,0.566,0.5679,0.5706,0.5709,0.5686,0.5696,0.5696,0.5696,0.5696,0.5696,0.5696,0.5696,0.5696,0.5696,0.5696,0.5696,0.5696,0.5696,0.5696,0.0,0.0,0.0,0.0,0.0,0.0,0.0,0.0,0.0,0.0,0.0,0.0,0.0,0.0,0.0,0.0,0.0,0.0,0.0,0.0,0.0,0.0,0.0,0.0,0.0,0.0,0.0,0.0,0.0,0.0,0.0,0.0,0.0,0.0,0.0,0.0,0.0,0.0,0.0,0.0,0.0187,0.0467,0.0838,0.0977,0.1207,0.1481,0.1148,0.0917,0.0732,0.0364,0.0136,0.0,0.0,0.009,0.0403,0.1379,0.222,0.3019,0.3773,0.3728,0.3719,0.4643,0.5024,0.5227,0.5472,0.5544,0.5533,0.5489,0.5425,0.5401,0.536,0.5319,0.5267,0.5183,0.5153,0.5125,0.5085,0.5115,0.5147,0.5166,0.5204,0.524,0.5259,0.5259,0.5278,0.5319,0.5341,0.5376,0.5478,0.5522,0.5572,0.563,0.5673,0.5682,0.5616,0.5657,0.5679,0.5679,0.5719,0.5696,0.5696,0.5696,0.5696,0.5696,0.5696,0.5696,0.5696,0.5696,0.5696,0.5696,0.5696,0.5696,0.5696,0.5696,0.5696,0.5696,0.0,0.0,0.0,0.0,0.0,0.0,0.0,0.0,0.0,0.0,0.0,0.0,0.0,0.0,0.0,0.0,0.0,0.0,0.0,0.0,0.0,0.0,0.0,0.0,0.0,0.0,0.0,0.0,0.0,0.0,0.0,0.0,0.0,0.0,0.0,0.0,0.0,0.0,0.0,0.0048,0.0572,0.0806,0.0846,0.1315,0.1494,0.1528,0.1528,0.1204,0.0834,0.0787,0.046,0.0,0.0,0.0317,0.0898,0.1884,0.2557,0.323,0.4619,0.5022,0.501,0.4916,0.5299,0.5679,0.5619,0.5605,0.5605,0.5602,0.5558,0.552,0.552,0.5376,0.5294,0.5294,0.5245,0.5204,0.5204,0.5204,0.5229,0.5289,0.5294,0.5319,0.5382,0.5387,0.5387,0.5387,0.5442,0.5544,0.5599,0.5605,0.5632,0.5693,0.5695,0.5681,0.5696,0.5696,0.5696,0.5696,0.5696,0.5696,0.5696,0.5696,0.5696,0.5696,0.5696,0.5696,0.5696,0.5696,0.5696,0.5696,0.5696,0.5696,0.5696,0.5696,0.5696,0.5696,0.0,0.0,0.0,0.0,0.0,0.0,0.0,0.0,0.0,0.0,0.0,0.0,0.0,0.0,0.0,0.0,0.0,0.0,0.0,0.0,0.0,0.0,0.0,0.0,0.0,0.0,0.0,0.0,0.0,0.0,0.0,0.0,0.0,0.0,0.0,0.0,0.0,0.0,0.0,0.0048,0.0572,0.0999,0.1377,0.2278,0.2844,0.3071,0.2721,0.2526,0.2243,0.1161,0.0693,0.0507,0.0138,0.0549,0.1316,0.1996,0.2978,0.4038,0.4798,0.5246,0.5467,0.5452,0.558,0.5698,0.5682,0.5668,0.5654,0.5613,0.5588,0.5577,0.5577,0.5547,0.5522,0.5522,0.5509,0.5495,0.5495,0.5495,0.5503,0.552,0.5522,0.5531,0.5547,0.555,0.555,0.555,0.5566,0.5602,0.5665,0.5668,0.5695,0.5711,0.5714,0.5678,0.5696,0.5696,0.5696,0.5696,0.5696,0.5696,0.5696,0.5696,0.5696,0.5696,0.5696,0.5696,0.5696,0.5696,0.5696,0.5696,0.5696,0.5696,0.5696,0.5696,0.5696,0.5696,0.0,0.0,0.0,0.0,0.0,0.0,0.0,0.0,0.0,0.0,0.0,0.0,0.0,0.0,0.0,0.0,0.0,0.0,0.0,0.0,0.0,0.0,0.0,0.0,0.0,0.0,0.0,0.0,0.0,0.0,0.0,0.0,0.0,0.0,0.0,0.0,0.0,0.0,0.0,0.0048,0.0767,0.1244,0.1621,0.2909,0.3529,0.3813,0.374,0.3449,0.2975,0.2018,0.1309,0.0698,0.0185,0.0645,0.1559,0.2292,0.3368,0.4469,0.5143,0.5488,0.5696,0.5696,0.5696,0.5686,0.5695,0.5687,0.5676,0.5638,0.5654,0.5638,0.5638,0.5619,0.5602,0.5602,0.5602,0.5602,0.5602,0.5602,0.5602,0.5602,0.5602,0.5602,0.5602,0.5602,0.5613,0.5638,0.5638,0.5665,0.5684,0.5687,0.5703,0.5694,0.5696,0.5696,0.5696,0.5696,0.5696,0.5696,0.5696,0.5696,0.5696,0.5696,0.5696,0.5696,0.5696,0.5696,0.5696,0.5696,0.5696,0.5696,0.5696,0.5696,0.5696,0.5696,0.5696,0.5696,0.0,0.0,0.0,0.0,0.0,0.0,0.0,0.0,0.0,0.0,0.0,0.0,0.0,0.0,0.0,0.0,0.0,0.0,0.0,0.0,0.0,0.0,0.0,0.0,0.0,0.0,0.0,0.0,0.0,0.0,0.0,0.0,0.0,0.0,0.0,0.0,0.0,0.0,0.0,0.0097,0.1114,0.1494,0.1673,0.3252,0.3871,0.3963,0.4486,0.4055,0.3291,0.3148,0.2087,0.0705,0.0233,0.0742,0.1669,0.2641,0.3634,0.4609,0.5521,0.5753,0.571,0.5705,0.5705,0.5702,0.5696,0.5696,0.5696,0.5696,0.5698,0.5704,0.5704,0.5657,0.5619,0.5619,0.5619,0.5619,0.5619,0.5619,0.5619,0.5619,0.5619,0.5619,0.5619,0.5619,0.5643,0.5698,0.5704,0.5681,0.5694,0.5696,0.5696,0.5696,0.5696,0.5696,0.5696,0.5696,0.5696,0.5696,0.5696,0.5696,0.5696,0.5696,0.5696,0.5696,0.5696,0.5696,0.5696,0.5696,0.5696,0.5696,0.5696,0.5696,0.5696,0.5696,0.5696,0.5696,0.0,0.0,0.0,0.0,0.0,0.0,0.0,0.0,0.0,0.0,0.0,0.0,0.0,0.0,0.0,0.0,0.0,0.0,0.0,0.0,0.0,0.0,0.0,0.0,0.0,0.0,0.0,0.0,0.0,0.0,0.0,0.0,0.0,0.0,0.0,0.0,0.0,0.0,0.0,0.0098,0.1174,0.1564,0.1805,0.3756,0.4465,0.4484,0.5016,0.504,0.4625,0.3481,0.2095,0.076,0.0664,0.1037,0.1592,0.2201,0.3348,0.452,0.5165,0.5569,0.5826,0.5778,0.5767,0.5753,0.5707,0.5696,0.5696,0.5696,0.5686,0.5722,0.5722,0.5711,0.5656,0.5656,0.5656,0.5656,0.5656,0.5656,0.5656,0.5656,0.5656,0.5656,0.5656,0.5656,0.5661,0.5719,0.5722,0.5683,0.5696,0.5696,0.5696,0.5696,0.5696,0.5696,0.5696,0.5696,0.5696,0.5696,0.5696,0.5696,0.5696,0.5696,0.5696,0.5696,0.5696,0.5696,0.5696,0.5696,0.5696,0.5696,0.5696,0.5696,0.5696,0.5696,0.5696,0.5696,0.0,0.0,0.0,0.0,0.0,0.0,0.0,0.0,0.0,0.0,0.0,0.0,0.0,0.0,0.0,0.0,0.0,0.0,0.0,0.0,0.0,0.0,0.0,0.0,0.0,0.0,0.0,0.0,0.0,0.0,0.0,0.0,0.0,0.0,0.0,0.0,0.0,0.0,0.0,0.0049,0.089,0.138,0.1767,0.3337,0.4256,0.4724,0.5262,0.5423,0.5138,0.3602,0.2585,0.1764,0.1049,0.114,0.1608,0.2082,0.2959,0.3963,0.4939,0.5387,0.559,0.5791,0.5829,0.5805,0.5715,0.5696,0.5696,0.5696,0.5696,0.5696,0.5696,0.5696,0.5696,0.5696,0.5696,0.5696,0.5696,0.5696,0.5696,0.5696,0.5696,0.5696,0.5696,0.5696,0.5696,0.5696,0.5696,0.5696,0.5696,0.5696,0.5696,0.5696,0.5696,0.5696,0.5696,0.5696,0.5696,0.5696,0.5696,0.5696,0.5696,0.5696,0.5696,0.5696,0.5696,0.5696,0.5696,0.5696,0.5696,0.5696,0.5696,0.5696,0.5696,0.5696,0.5562,0.538,0.0,0.0,0.0,0.0,0.0,0.0,0.0,0.0,0.0,0.0,0.0,0.0,0.0,0.0,0.0,0.0,0.0,0.0,0.0,0.0,0.0,0.0,0.0,0.0,0.0,0.0,0.0,0.0,0.0,0.0,0.0,0.0,0.0,0.0,0.0,0.0,0.0,0.0,0.0,0.005,0.0599,0.1143,0.1727,0.2712,0.3792,0.4772,0.5314,0.5478,0.5236,0.3928,0.3329,0.2874,0.1483,0.129,0.1577,0.1956,0.2512,0.3297,0.452,0.5008,0.5299,0.5709,0.5845,0.5861,0.5753,0.5718,0.571,0.571,0.5702,0.5696,0.5696,0.5696,0.5696,0.5696,0.5696,0.5696,0.5696,0.5696,0.5696,0.5696,0.5696,0.5696,0.5696,0.5696,0.5696,0.5696,0.5696,0.5696,0.5696,0.5696,0.5696,0.5696,0.5696,0.5702,0.571,0.571,0.5718,0.5726,0.5726,0.5715,0.5696,0.5696,0.5696,0.5696,0.5696,0.5696,0.5696,0.5696,0.5696,0.5696,0.5696,0.5696,0.5696,0.5607,0.5291,0.4888,0.0,0.0,0.0,0.0,0.0,0.0,0.0,0.0,0.0,0.0,0.0,0.0,0.0,0.0,0.0,0.0,0.0,0.0,0.0,0.0,0.0,0.0,0.0,0.0,0.0,0.0,0.0,0.0,0.0,0.0,0.0,0.0,0.0,0.0,0.0,0.0,0.0,0.0,0.0,0.005,0.0605,0.1108,0.1711,0.2766,0.3852,0.4869,0.5415,0.5528,0.5434,0.5238,0.4305,0.3074,0.2373,0.1932,0.1495,0.1099,0.2001,0.3141,0.3331,0.4326,0.5306,0.5308,0.5626,0.5984,0.5867,0.5813,0.5775,0.5775,0.5732,0.5696,0.5696,0.5696,0.5696,0.5696,0.5696,0.5696,0.5696,0.5696,0.5696,0.5696,0.5696,0.5696,0.5696,0.5696,0.5696,0.5696,0.5696,0.5696,0.5696,0.5696,0.5696,0.5696,0.5696,0.5721,0.5775,0.5775,0.5799,0.5853,0.5853,0.5797,0.5696,0.5696,0.5696,0.5696,0.5696,0.5696,0.5696,0.5696,0.5696,0.5696,0.5696,0.5696,0.5652,0.5246,0.4798,0.4352,0.0,0.0,0.0,0.0,0.0,0.0,0.0,0.0,0.0,0.0,0.0,0.0,0.0,0.0,0.0,0.0,0.0,0.0,0.0,0.0,0.0,0.0,0.0,0.0,0.0,0.0,0.0,0.0,0.0,0.0,0.0,0.0,0.0,0.0,0.0,0.0,0.0,0.0,0.0,0.0,0.0253,0.0859,0.1667,0.2121,0.3323,0.4919,0.5769,0.6083,0.5935,0.5636,0.4878,0.3824,0.2735,0.2049,0.1511,0.0971,0.126,0.1985,0.289,0.375,0.4602,0.5128,0.5682,0.6055,0.6027,0.5976,0.5924,0.5845,0.5815,0.5786,0.5753,0.5748,0.5734,0.5702,0.5696,0.5696,0.5696,0.5696,0.5696,0.5696,0.5696,0.5696,0.5696,0.5696,0.5696,0.5696,0.5696,0.5696,0.5696,0.5729,0.5748,0.5748,0.578,0.581,0.5837,0.5837,0.5851,0.5924,0.5924,0.5848,0.5797,0.5797,0.5778,0.5748,0.5748,0.5726,0.5696,0.5696,0.5562,0.5291,0.5291,0.5157,0.4845,0.4395,0.3902,0.3454]},{"header":{"parameterUnit":"m.s-1","parameterCategory":1,"la1":30.6,"la2":28.766,"lo1":-90.7593,"lo2":-88.6598,"dy":0.0162,"dx":0.0183,"nx":116,"ny":114,"refTime":"2024-06-16T06:00:00:Z","depth":0,"parameterNumber":3,"parameterNumberName":"V-component_of_WINDS"},"data":[0.0,0.0,0.0,0.0,0.0,0.0,0.0,0.0,0.0,0.0,0.0,0.0,0.0,0.0,0.0,0.0,0.0,0.0,0.0,0.0,0.0,0.0,0.0,0.0,0.0,0.0,0.0,0.0,0.0,0.0,0.0,0.0,0.0,0.0,0.0,0.0,0.0,0.0,0.0,0.0,0.0,0.0,0.0,0.0,0.0,0.0,0.0,0.0,0.0,0.0,0.0,0.0,0.0,0.0,0.0,0.0,0.0,0.0,0.0,0.0,0.0,0.0,0.0,0.0,0.0,0.0,0.0,0.0,0.0,0.0,0.0,0.0,0.0,0.0,0.0,0.0,0.0,0.0,0.0,0.0,0.0,0.0,0.0,0.0,0.0,0.0,0.0,0.0,0.0,0.0,0.0,0.0,0.0,0.0,0.0,0.0,0.0,0.0,0.0,0.0,0.0,0.0,0.0,0.0,0.0,0.0,0.0,0.0,0.0,0.0,0.0,0.0,0.0,0.0,0.0,0.0,0.0,0.0,0.0,0.0,0.0,0.0,0.0,0.0,0.0,0.0,0.0,0.0,0.0,0.0,0.0,0.0,0.0,0.0,0.0,0.0,0.0,0.0,0.0,0.0,0.0,0.0,0.0,0.0,0.0,0.0,0.0,0.0,0.0,0.0,0.0,0.0,0.0,0.0,0.0,0.0,0.0,0.0,0.0,0.0,0.0,0.0,0.0,0.0,0.0,0.0,0.0,0.0,0.0,0.0,0.0,0.0,0.0,0.0,0.0,0.0,0.0,0.0,0.0,0.0,0.0,0.0,0.0,0.0,0.0,0.0,0.0,0.0,0.0,0.0,0.0,0.0,0.0,0.0,0.0,0.0,0.0,0.0,0.0,0.0,0.0,0.0,0.0,0.0,0.0,0.0,0.0,0.0,0.0,0.0,0.0,0.0,0.0,0.0,0.0,0.0,0.0,0.0,0.0,0.0,0.0,0.0,0.0,0.0,0.0,0.0,0.0,0.0,0.0,0.0,0.0,0.0,0.0,0.0,0.0,0.0,0.0,0.0,0.0,0.0,0.0,0.0,0.0,0.0,0.0,0.0,0.0,0.0,0.0,0.0,0.0,0.0,0.0,0.0,0.0,0.0,0.0,0.0,0.0,0.0,0.0,0.0,0.0,0.0,0.0,0.0,0.0,0.0,0.0,0.0,0.0,0.0,0.0,0.0,0.0,0.0,0.0,0.0,0.0,0.0,0.0,0.0,0.0,0.0,0.0,0.0,0.0,0.0,0.0,0.0,0.0,0.0,0.0,0.0,0.0,0.0,0.0,0.0,0.0,0.0,0.0,0.0,0.0,0.0,0.0,0.0,0.0,0.0,0.0,0.0,0.0,0.0,0.0,0.0,0.0,0.0,0.0,0.0,0.0,0.0,0.0,0.0,0.0,0.0,0.0,0.0,0.0,0.0,0.0,0.0,0.0,0.0,0.0,0.0,0.0,0.0,0.0,0.0,0.0,0.0,0.0,0.0,0.0,0.0,0.0,0.0,0.0,0.0,0.0,0.0,0.0,0.0,0.0,0.0,0.0,0.0,0.0,0.0,0.0,0.0,0.0,0.0,0.0,0.0,0.0,0.0,0.0,0.0,0.0,0.0,0.0,0.0,0.0,0.0,0.0,0.0,0.0,0.0,0.0,0.0,0.0,0.0,0.0,0.0,0.0,0.0,0.0,0.0,0.0,0.0,0.0,0.0,0.0,0.0,0.0,0.0,0.0,0.0,0.0,0.0,0.0,0.0,0.0,0.0,0.0,0.0,0.0,0.0,0.0,0.0,0.0,0.0,0.0,0.0,0.0,0.0,0.0,0.0,0.0,0.0,0.0,0.0,0.0,0.0,0.0,0.0,0.0,0.0,0.0,0.0,0.0,0.0,0.0,0.0,0.0,0.0,0.0,0.0,0.0,0.0,0.0,0.0,0.0,0.0,0.0,0.0,0.0,0.0,0.0,0.0,0.0,0.0,0.0,0.0,0.0,0.0,0.0,0.0,0.0,0.0,0.0,0.0,0.0,0.0,0.0,0.0,0.0,0.0,0.0,0.0,0.0,0.0,0.0,0.0,0.0,0.0,0.0,0.0,0.0,0.0,0.0,0.0,0.0,0.0,0.0,0.0,0.0,0.0,0.0,0.0,0.0,0.0,0.0,0.0,0.0,0.0,0.0,0.0,0.0,0.0,0.0,0.0,0.0,0.0,0.0,0.0,0.0,0.0,0.0,0.0,0.0,0.0,0.0,0.0,0.0,0.0,0.0,0.0,0.0,0.0,0.0,0.0,0.0,0.0,0.0,0.0,0.0,0.0,0.0,0.0,0.0,0.0,0.0,0.0,0.0,0.0,0.0,0.0,0.0,0.0,0.0,0.0,0.0,0.0,0.0,0.0,0.0,0.0,0.0,0.0,0.0,0.0,0.0,0.0,0.0,0.0,0.0,0.0,0.0,0.0,0.0,0.0,0.0,0.0,0.0,0.0,0.0,0.0,0.0,0.0,0.0,0.0,0.0,0.0,0.0,0.0,0.0,0.0,0.0,0.0,0.0,0.0,0.0,0.0,0.0,0.0,0.0,0.0,0.0,0.0,0.0,0.0,0.0,0.0,0.0,0.0,0.0,0.0,0.0,0.0,0.0,0.0,0.0,0.0,0.0,0.0,0.0,0.0,0.0,0.0,0.0,0.0,0.0,0.0,0.0,0.0,0.0,0.0,0.0,0.0,0.0,0.0,0.0,0.0,0.0,0.0,0.0,0.0,0.0,0.0,0.0,0.0,0.0,0.0,0.0,0.0,0.0,0.0,0.0,0.0,0.0,0.0,0.0,0.0,0.0,0.0,0.0,0.0,0.0,0.0,0.0,0.0,0.0,0.0,0.0,0.0,0.0,0.0,0.0,0.0,0.0,0.0,0.0,0.0,0.0,0.0,0.0,0.0,0.0,0.0,0.0,0.0,0.0,0.0,0.0,0.0,0.0,0.0,0.0,0.0,0.0,0.0,0.0,0.0,0.0,0.0,0.0,0.0,0.0,0.0,0.0,0.0,0.0,0.0,0.0,0.0,0.0,0.0,0.0,0.0,0.0,0.0,0.0,0.0,0.0,0.0,0.0,0.0,0.0,0.0,0.0,0.0,0.0,0.0,0.0,0.0,0.0,0.0,0.0,0.0,0.0,0.0,0.0,0.0,0.0,0.0,0.0,0.0,0.0,0.0,0.0,0.0,0.0,0.0,0.0,0.0,0.0,0.0,0.0,0.0,0.0,0.0,0.0,0.0,0.0,0.0,0.0,0.0,0.0,0.0,0.0,0.0,0.0,0.0,0.0,0.0,0.0,0.0,0.0,0.0,0.0,0.0,0.0,0.0,0.0,0.0,0.0,0.0,0.0,0.0,0.0,0.0,0.0,0.0,0.0,0.0,0.0,0.0,0.0,0.0,0.0,0.0,0.0,0.0,0.0,0.0,0.0,0.0,0.0,0.0,0.0,0.0,0.0,0.0,0.0,0.0,0.0,0.0,0.0,0.0,0.0,0.0,0.0,0.0,0.0,0.0,0.0,0.0,0.0,0.0,0.0,0.0,0.0,0.0,0.0,0.0,0.0,0.0,0.0,0.0,0.0,0.0,0.0,0.0,0.0,0.0,0.0,0.0,0.0,0.0,0.0,0.0,0.0,0.0,0.0,0.0,0.0,0.0,0.0,0.0,0.0,0.0,0.0,0.0,0.0,0.0,0.0,0.0,0.0,0.0,0.0,0.0,0.0,0.0,0.0,0.0,0.0,0.0,0.0,0.0,0.0,0.0,0.0,0.0,0.0,0.0,0.0,0.0,0.0,0.0,0.0,0.0,0.0,0.0,0.0,0.0,0.0,0.0,0.0,0.0,0.0,0.0,0.0,0.0,0.0,0.0,0.0,0.0,0.0,0.0,0.0,0.0,0.0,0.0,0.0,0.0,0.0,0.0,0.0,0.0,0.0,0.0,0.0,0.0,0.0,0.0,0.0,0.0,0.0,0.0,0.0,0.0,0.0,0.0,0.0,0.0,0.0,0.0,0.0,0.0,0.0,0.0,0.0,0.0,0.0,0.0,0.0,0.0,0.0,0.0,0.0,0.0,0.0,0.0,0.0,0.0,0.0,0.0,0.0,0.0,0.0,0.0,0.0,0.0,0.0,0.0,0.0,0.0,0.0,0.0,0.0,0.0,0.0,0.0,0.0,0.0,0.0,0.0,0.0,0.0,0.0,0.0,0.0,0.0,0.0,0.0,0.0,0.0,0.0,0.0,0.0,0.0,0.0,0.0,0.0,0.0,0.0,0.0,0.0,0.0,0.0,0.0,0.0,0.0,0.0,0.0,0.0,0.0,0.0,0.0,0.0,0.0,0.0,0.0,0.0,0.0,0.0,0.0,0.0,0.0,0.0,0.0,0.0,0.0,0.0,0.0,0.0,0.0,0.0,0.0,0.0,0.0,0.0,0.0,0.0,0.0,0.0,0.0,0.0,0.0,0.0,0.0,0.0,0.0,0.0,0.0,0.0,0.0,0.0,0.0,0.0,0.0,0.0,0.0,0.0,0.0,0.0,0.0,0.0,0.0,0.0,0.0,0.0,0.0,0.0,0.0,0.0,0.0,0.0,0.0,0.0,0.0,0.0,0.0,0.0,0.0,0.0,0.0,0.0,0.0,0.0,0.0,0.0,0.0,0.0,0.0,0.0,0.0,0.0,0.0,0.0,0.0,0.0,0.0,0.0,0.0,0.0,0.0,0.0,0.0,0.0,0.0,0.0,0.0,0.0,0.0,0.0,0.0,0.0,0.0,0.0,0.0,0.0,0.0,0.0,0.0,0.0,0.0,0.0,0.0,0.0,0.0,0.0,0.0,0.0,0.0,0.0,0.0,0.0,0.0,0.0,0.0,0.0,0.0,0.0,0.0,0.0,0.0,0.0,0.0,0.0,0.0,0.0,0.0,0.0,0.0,0.0,0.0,0.0,0.0,0.0,0.0,0.0,0.0,0.0,0.0,0.0,0.0,0.0,0.0,0.0,0.0,0.0,0.0,0.0,0.0,0.0,0.0,0.0,0.0,0.0,0.0,0.0,0.0,0.0,0.0,0.0,0.0,0.0,0.0,0.0,0.0,0.0,0.0,0.0,0.0,0.0,0.0,0.0,0.0,0.0,0.0,0.0,0.0,0.0,0.0,0.0,0.0,0.0,0.0,0.0,0.0,0.0,0.0,0.0,0.0,0.0,0.0,0.0,0.0,0.0,0.0,0.0,0.0,0.0,0.0,0.0,0.0,0.0,0.0,0.0,0.0,0.0,0.0,0.0,0.0,0.0,0.0,0.0,0.0,0.0,0.0,0.0,0.0,0.0,0.0,0.0,0.0,0.0,0.0,0.0,0.0,0.0,0.0,0.0,0.0,0.0,0.0,0.0,0.0,0.0,0.0,0.0,0.0,0.0,0.0,0.0,0.0,0.0,0.0,0.0,0.0,0.0,0.0,0.0,0.0,0.0,0.0,0.0,0.0,0.0,0.0,0.0,0.0,0.0,0.0,0.0,0.0,0.0,0.0,0.0,0.0,0.0,0.0,0.0,0.0,0.0,0.0,0.0,0.0,0.0,0.0,0.0,0.0,0.0,0.0,0.0,0.0,0.0,0.0,0.0,0.0,0.0,0.0,0.0,0.0,0.0,0.0,0.0,0.0,0.0,0.0,0.0,0.0,0.0,0.0,0.0,0.0,0.0,0.0,0.0,0.0,0.0,0.0,0.0,0.0,0.0,0.0,0.0,0.0,0.0,0.0,0.0,0.0,0.0,0.0,0.0,0.0,0.0,0.0,0.0,0.0,0.0,0.0,0.0,0.0,0.0,0.0,0.0,0.0,0.0,0.0,0.0,0.0,0.0,0.0,0.0,0.0,0.0,0.0,0.0,0.0,0.0,0.0,0.0,0.0,0.0,0.0,0.0,0.0,0.0,0.0,0.0,0.0,0.0,0.0,0.0,0.0,0.0,0.0,0.0,0.0,0.0,0.0,0.0,0.0,0.0,0.0,0.0,0.0,0.0,0.0,0.0,0.0,0.0,0.0,0.0,0.0,0.0,0.0,2.8512,2.6655,0.0,0.0,0.0,0.0,0.0,0.0,0.0,0.0,0.0,0.0,0.0,0.0,0.0,0.0,0.0,0.0,0.0,0.0,0.0,0.0,0.0,0.0,0.0,1.501,1.5687,1.6343,1.6704,1.7005,1.73,1.6659,1.6246,1.617,1.5174,1.4787,1.5151,1.5209,1.5787,1.6853,1.7121,1.7781,1.8726,1.8207,1.7425,1.64,0.0,0.0,0.0,0.0,0.0,0.0,0.0,0.0,0.0,0.0,0.0,0.0,0.0,0.0,0.0,0.0,0.0,0.0,0.0,0.0,0.0,0.0,0.0,0.0,0.0,0.0,0.0,0.0,0.0,0.0,0.0,0.0,0.0,0.0,0.0,0.0,0.0,0.0,0.0,0.0,0.0,0.0,0.0,0.0,0.0,0.0,0.0,0.0,0.0,0.0,0.0,0.0,0.0,0.0,0.0,0.0,0.0,0.0,0.0,0.0,0.0,0.0,0.0,0.0,0.0,0.0,0.0,0.0,0.0,0.0,3.3194,3.1211,0.0,0.0,0.0,0.0,0.0,0.0,0.0,0.0,0.0,0.0,0.0,0.0,0.0,0.0,0.0,0.0,0.0,0.0,0.0,0.0,0.0,1.4451,1.5587,1.653,1.7309,1.7862,1.8411,1.8709,1.8701,1.8009,1.7599,1.7584,1.6466,1.6124,1.6683,1.695,1.7727,1.9092,2.0189,2.1306,2.2434,2.3062,2.243,2.0773,1.9516,0.0,0.0,0.0,0.0,0.0,0.0,0.0,0.0,0.0,0.0,0.0,0.0,0.0,0.0,0.0,0.0,0.0,0.0,0.0,0.0,0.0,0.0,0.0,0.0,0.0,0.0,0.0,0.0,0.0,0.0,0.0,0.0,0.0,0.0,0.0,0.0,0.0,0.0,0.0,0.0,0.0,0.0,0.0,0.0,0.0,0.0,0.0,0.0,0.0,0.0,0.0,0.0,0.0,0.0,0.0,0.0,0.0,0.0,0.0,0.0,0.0,0.0,0.0,3.9852,4.0286,4.1003,4.1755,4.2138,4.1937,3.8327,3.6577,3.6127,3.4382,0.0,0.0,0.0,0.0,0.0,0.0,0.0,0.0,0.0,0.0,0.0,0.0,0.0,0.0,0.0,0.0,0.0,0.0,0.0,1.6256,1.6439,1.8213,1.9412,1.9499,1.9594,1.9602,1.9555,1.8849,1.8435,1.8351,1.8195,1.8155,1.8293,1.9011,2.0091,2.1553,2.4021,2.5537,2.6124,2.679,2.7324,2.7527,2.3719,2.1708,2.1112,0.0,0.0,0.0,0.0,0.0,0.0,0.0,0.0,0.0,0.0,0.0,0.0,0.0,0.0,0.0,0.0,0.0,0.0,0.0,0.0,0.0,0.0,0.0,0.0,0.0,0.0,0.0,0.0,0.0,0.0,0.0,0.0,0.0,0.0,0.0,0.0,0.0,0.0,0.0,0.0,0.0,2.6508,2.7538,0.0,0.0,0.0,0.0,0.0,0.0,0.0,0.0,0.0,0.0,0.0,0.0,0.0,3.9683,4.107,4.2431,4.3571,4.4404,4.5177,4.5591,4.5721,4.66,4.6963,4.6963,4.637,0.0,3.9303,3.9137,0.0,0.0,0.0,0.0,0.0,0.0,0.0,0.0,0.0,0.0,0.0,0.0,0.0,0.0,0.0,0.0,0.0,0.0,0.0,0.0,0.0,1.9341,2.0502,2.0904,2.13,2.1521,2.1495,2.0478,1.9886,1.9862,1.9561,1.9576,1.9987,2.1117,2.3018,2.5662,2.8072,2.9557,3.0132,3.0843,3.1376,3.1616,2.9792,2.7477,2.4786,2.301,0.0,0.0,0.0,0.0,0.0,0.0,0.0,0.0,0.0,0.0,0.0,0.0,0.0,0.0,0.0,0.0,0.0,0.0,0.0,0.0,0.0,0.0,0.0,0.0,0.0,0.0,0.0,0.0,0.0,0.0,0.0,0.0,0.0,0.0,0.0,0.0,0.0,0.0,0.0,2.7514,3.0064,3.0895,3.1373,3.1627,0.0,0.0,0.0,0.0,0.0,0.0,0.0,0.0,0.0,4.1285,4.3208,4.4779,4.5929,4.6993,4.8072,4.9234,4.9603,5.004,5.0479,5.0881,5.1032,5.1032,5.1032,4.9445,4.6644,4.3795,4.1576,3.994,0.0,0.0,0.0,0.0,3.9377,3.9525,0.0,0.0,0.0,0.0,0.0,0.0,0.0,0.0,0.0,0.0,0.0,0.0,1.9456,2.1011,2.2241,2.293,2.3478,2.3709,2.3519,2.2437,2.1675,2.1508,2.1303,2.1415,2.1928,2.3906,2.6378,2.9413,3.1545,3.291,3.3553,3.431,3.4683,3.4709,3.4852,3.2523,2.8361,2.6549,2.4747,2.2966,0.0,0.0,0.0,0.0,0.0,0.0,0.0,0.0,0.0,0.0,0.0,0.0,0.0,0.0,0.0,0.0,0.0,0.0,0.0,0.0,0.0,0.0,0.0,0.0,0.0,0.0,0.0,0.0,0.0,0.0,0.0,0.0,0.0,0.0,0.0,0.0,0.0,3.0911,3.316,3.4164,3.4925,3.5473,0.0,0.0,0.0,0.0,0.0,0.0,4.1674,4.3536,4.5139,4.6397,4.8035,4.9398,5.0439,5.098,5.1995,5.345,5.345,5.3856,5.4634,5.4431,5.4363,5.4329,5.4143,5.3619,5.2536,4.8105,4.5703,4.4742,4.4067,4.3688,4.3518,4.3763,4.3844,4.3973,0.0,0.0,0.0,0.0,0.0,0.0,0.0,0.0,0.0,0.0,0.0,2.0391,2.1864,2.3857,2.5374,2.6098,2.6194,2.5938,2.5246,2.4507,2.3811,2.312,2.3715,2.4108,2.415,2.7712,3.0291,3.1825,3.3971,3.5265,3.5778,3.6635,3.7049,3.7126,3.7321,3.5324,3.1663,3.0369,2.8235,2.558,2.4154,0.0,0.0,0.0,0.0,0.0,0.0,0.0,0.0,0.0,0.0,0.0,0.0,0.0,0.0,0.0,0.0,0.0,0.0,0.0,0.0,0.0,0.0,0.0,0.0,0.0,0.0,0.0,0.0,0.0,0.0,0.0,0.0,0.0,0.0,0.0,0.0,0.0,0.0,3.7283,3.8125,0.0,0.0,0.0,0.0,4.1674,4.3115,4.4933,4.7184,4.8075,4.9553,5.1844,5.2013,5.2807,5.4313,5.438,5.5108,5.6562,5.6562,5.6968,5.7663,5.6934,5.663,5.6596,5.5902,5.5175,5.4313,5.1877,5.0017,4.8661,4.8131,4.7442,4.6859,4.7768,4.8099,4.823,0.0,0.0,0.0,1.26,1.26,1.2834,1.3594,1.4266,1.5231,1.6716,1.8694,2.0719,2.2634,2.4305,2.5778,2.6951,2.7048,2.6982,2.6776,2.6189,2.5749,2.5538,2.64,2.7778,2.973,3.2001,3.4053,3.5858,3.7597,3.8709,3.9331,3.9649,3.9846,4.0,4.0172,3.9288,3.7431,3.3914,3.1352,2.9463,2.7543,2.5457,0.0,0.0,0.0,0.0,0.0,0.0,0.0,0.0,0.0,0.0,0.0,0.0,0.0,0.0,0.0,0.0,0.0,0.0,0.0,0.0,0.0,0.0,0.0,0.0,0.0,0.0,0.0,0.0,0.0,0.0,0.0,0.0,0.0,0.0,0.0,0.0,0.0,4.0616,4.2252,0.0,4.366,4.4573,4.5505,4.6456,4.7928,4.9312,5.0596,5.1862,5.3129,5.4448,5.4972,5.5919,5.7408,5.7442,5.7949,5.893,5.893,5.9066,5.9302,5.9032,5.893,5.8896,5.8788,5.8606,5.8303,5.7102,5.4805,5.2021,5.1957,5.1841,5.1744,5.208,5.2276,5.2448,1.2637,1.263,0.0,1.2692,1.2899,1.3318,1.4025,1.4937,1.6161,1.7821,1.9872,2.2011,2.418,2.5889,2.7382,2.8597,2.8736,2.8681,2.856,2.7996,2.7712,2.779,2.9171,3.1252,3.4029,3.5567,3.7211,3.899,4.0253,4.1175,4.1816,4.1858,4.1943,4.2088,4.2228,4.197,4.1248,3.7822,3.5224,3.3215,3.1005,2.8982,2.7132,0.0,0.0,0.0,0.0,0.0,0.0,0.0,0.0,0.0,0.0,0.0,0.0,0.0,0.0,0.0,0.0,0.0,0.0,0.0,0.0,0.0,0.0,0.0,0.0,0.0,0.0,0.0,0.0,0.0,0.0,0.0,0.0,0.0,0.0,4.0049,4.2453,4.3931,4.5796,4.7199,4.7708,4.8625,4.9746,5.0968,5.1971,5.2955,5.3974,5.5247,5.6248,5.6995,5.7759,5.8642,5.9608,5.9608,5.9982,6.0695,6.0695,6.0831,6.1068,6.0831,6.0695,6.0695,6.0607,6.0597,6.0637,6.0325,5.8718,5.6403,5.5614,5.5452,5.5644,5.55,5.557,5.5769,1.2674,1.2698,1.2736,1.2867,1.351,1.4223,1.4897,1.6275,1.7948,2.0021,2.2175,2.4359,2.6599,2.8728,3.037,3.1265,3.1408,3.1155,3.0516,2.9995,2.9769,2.9895,3.2114,3.4431,3.6679,3.8246,3.972,4.1087,4.1849,4.2509,4.3057,4.3216,4.3271,4.3271,4.3389,4.3246,4.2839,4.2039,3.9878,3.6854,3.4567,3.2778,3.1327,0.0,0.0,0.0,0.0,0.0,0.0,0.0,0.0,0.0,0.0,0.0,0.0,0.0,0.0,0.0,0.0,0.0,0.0,0.0,0.0,0.0,0.0,0.0,0.0,0.0,0.0,0.0,0.0,0.0,0.0,0.0,0.0,0.0,4.0605,4.321,4.5672,4.7273,4.8748,5.0253,5.1772,5.1943,5.2851,5.5022,5.5159,5.5842,5.7414,5.8166,5.8884,5.967,6.044,6.085,6.085,6.085,6.1226,6.1941,6.1959,6.2335,6.2985,6.2267,6.1959,6.1891,6.121,6.0978,6.1125,6.1304,6.164,6.1726,5.906,5.8261,5.8483,5.7961,5.7961,5.8209,1.2693,1.2792,1.2853,1.288,1.3496,1.4231,1.4972,1.6324,1.8025,2.0156,2.2352,2.4756,2.7457,2.9274,3.0816,3.2132,3.2398,3.2429,3.2372,3.2347,3.2978,3.4349,3.6098,3.7877,3.9696,4.1229,4.2436,4.3231,4.3983,4.4435,4.4613,4.464,4.4707,4.4814,4.482,4.4836,4.4764,4.4004,4.3247,4.2223,3.8675,3.6726,3.5656,0.0,0.0,0.0,0.0,0.0,0.0,0.0,0.0,0.0,0.0,0.0,0.0,0.0,0.0,0.0,0.0,0.0,0.0,0.0,0.0,0.0,0.0,0.0,0.0,0.0,0.0,0.0,0.0,0.0,0.0,0.0,4.2486,4.4282,4.4224,4.6172,4.838,5.0453,5.1922,5.3142,5.4115,5.4731,5.5551,5.6696,5.6765,5.7414,5.8918,5.9191,5.9909,6.1223,6.1481,6.1857,6.2404,6.2404,6.2506,6.2711,6.2843,6.3003,6.3227,6.3171,6.3142,6.3142,6.3066,6.3126,6.3253,6.3449,6.385,6.4083,6.1893,6.1274,6.1626,6.1498,6.1741,6.1995,1.2792,1.2871,1.3043,1.3376,1.4072,1.4823,1.5539,1.7161,1.897,2.0781,2.3226,2.5691,2.7995,2.9906,3.1503,3.2752,3.3059,3.3386,3.3842,3.4365,3.5493,3.7301,3.8855,4.0412,4.1995,4.3219,4.4162,4.482,4.5234,4.5441,4.5441,4.5507,4.5585,4.5641,4.5727,4.5794,4.592,4.5479,4.5378,4.5242,4.2614,4.0778,3.9358,3.7033,3.566,3.4799,3.347,3.2249,3.1205,3.0972,0.0,0.0,0.0,0.0,0.0,0.0,0.0,0.0,0.0,0.0,0.0,0.0,0.0,0.0,0.0,0.0,0.0,0.0,0.0,0.0,0.0,0.0,0.0,0.0,4.645,4.8596,4.9096,5.0123,5.1445,5.3053,5.4494,5.5687,5.6429,5.6845,5.7447,5.8272,5.8239,5.8737,5.9994,6.0391,6.1114,6.2336,6.2681,6.3059,6.3507,6.3507,6.3507,6.3507,6.3618,6.3673,6.3673,6.384,6.393,6.3948,6.4145,6.4375,6.4585,6.4705,6.5061,6.5384,0.0,0.0,0.0,0.0,6.3756,6.3957,1.289,1.3029,1.337,1.4074,1.4954,1.5775,1.6453,1.8352,2.0263,2.1776,2.4431,2.6866,2.8472,3.0559,3.2212,3.3152,3.3575,3.4202,3.5214,3.6319,3.7683,3.9264,4.0904,4.2405,4.3778,4.4534,4.5242,4.5867,4.5984,4.6041,4.6019,4.6227,4.6338,4.6338,4.6462,4.6537,4.6576,4.6576,4.6565,4.6531,4.5893,4.4483,4.2521,4.0287,3.9492,3.9273,3.721,3.596,3.5258,3.4544,0.0,0.0,0.0,0.0,0.0,0.0,0.0,0.0,0.0,0.0,0.0,0.0,0.0,0.0,0.0,0.0,0.0,0.0,0.0,0.0,0.0,0.0,0.0,0.0,5.0344,5.2711,5.4165,5.4446,5.4704,5.532,5.6574,5.7722,5.8456,5.8429,5.8709,5.9518,5.9506,5.9871,6.0804,6.1587,0.0,0.0,0.0,6.4198,6.4216,6.4216,6.4234,6.4251,6.4269,6.4287,6.4287,6.4446,6.4498,6.4533,6.4706,6.4996,6.5294,6.5294,6.5604,6.5996,6.486,6.467,6.5012,6.4788,6.4791,6.4908,1.2995,1.3507,1.4041,1.4226,1.5405,1.6569,1.7339,1.8765,2.0532,2.2638,2.4979,2.7219,2.9259,3.1103,3.2536,3.3361,3.4319,3.5641,3.7445,3.8923,4.0218,4.135,4.354,4.4835,4.5117,4.5858,4.6317,4.6447,4.7117,4.7423,4.7423,4.8107,4.8415,4.8415,4.8427,4.8098,4.7545,4.7545,4.718,4.6602,4.6425,4.58,4.4705,4.295,4.2336,4.21,4.0459,3.9383,3.8634,3.7865,3.6609,3.5217,3.4435,3.3628,0.0,0.0,0.0,0.0,0.0,0.0,0.0,0.0,0.0,0.0,0.0,0.0,0.0,0.0,0.0,0.0,0.0,0.0,0.0,5.0719,5.3197,5.5112,5.5989,5.7222,5.7938,5.7757,5.8004,5.8491,5.9291,5.9328,5.9397,5.9604,6.0109,6.077,6.1622,6.237,6.3136,6.3937,6.4111,6.4251,6.4375,6.4375,6.4446,6.462,6.4793,0.0,6.4861,6.503,6.518,6.5297,6.533,6.5542,6.5844,6.5844,6.6177,6.6638,6.6368,6.6346,6.6429,6.6597,6.6666,6.6613,1.3627,1.4012,1.4546,1.5312,1.6101,1.6974,1.8119,1.9218,2.0726,2.2995,2.4946,2.6809,2.8639,3.0033,3.1316,3.254,3.4782,3.6916,3.8763,4.0366,4.1831,4.3096,4.4654,4.5681,4.6035,4.6425,4.6814,4.7192,4.7616,4.8006,4.8408,4.8871,4.9109,4.9109,4.9135,4.8946,4.8543,4.8164,4.7749,4.737,4.6967,4.6576,4.6102,4.4817,4.4311,4.4145,4.303,4.1916,4.0862,4.0522,3.9397,3.7976,3.7183,3.6372,3.5305,0.0,0.0,0.0,0.0,0.0,0.0,0.0,0.0,0.0,0.0,0.0,0.0,0.0,0.0,4.6239,4.8205,0.0,5.2509,5.4068,5.5949,5.7388,5.7754,5.8905,5.9436,5.8781,5.9045,5.9429,5.9814,5.9767,5.9925,6.0391,6.0774,6.1558,6.2798,6.3303,6.3934,6.4723,6.4758,6.4758,6.486,6.486,6.4894,6.5014,6.5147,6.523,6.5247,6.5526,6.5688,6.5768,6.5848,6.6037,6.6269,6.6437,6.6706,6.7019,6.7105,6.7134,6.7162,6.7303,6.7378,6.741,1.4477,1.4756,1.5228,1.6402,1.6786,1.7399,1.8877,1.9627,2.0913,2.3338,2.4848,2.6331,2.7862,2.8827,3.0057,3.1789,3.4812,3.7398,3.9271,4.1038,4.2714,4.4274,4.5278,4.6069,4.6672,4.6814,4.724,4.7866,4.8185,4.8658,4.9309,4.955,4.9706,4.9706,4.9733,4.9698,4.9483,4.877,4.8365,4.8162,4.7352,4.7077,4.6983,4.6148,4.5832,4.5691,4.4845,4.3693,4.2554,4.2374,4.1431,4.0243,3.9494,3.8769,3.7848,3.6257,3.5261,0.0,0.0,0.0,0.0,0.0,0.0,0.0,0.0,4.3453,4.4928,4.6916,4.9069,5.1049,5.2614,5.458,5.621,5.6992,5.8327,5.9276,5.9308,5.9961,6.0149,5.9409,5.9851,6.0202,6.0202,6.0196,6.0515,6.1328,6.166,6.2446,6.3795,6.4155,6.461,6.5264,6.5299,6.5332,6.5398,6.5398,6.5431,6.5513,6.5591,6.5656,6.5656,6.5942,6.6083,6.613,6.633,6.6512,6.6661,6.6954,6.714,6.7266,6.747,6.7524,6.7524,6.7524,6.7593,6.77,1.5315,1.6001,1.648,1.6649,1.7253,1.8155,1.9636,2.0037,2.1208,2.4097,2.5281,2.647,2.8014,2.9007,3.0334,3.2264,3.4138,3.62,3.8573,4.0821,4.2818,4.447,4.6025,4.6856,4.6963,4.7652,4.808,4.8152,4.9531,5.0232,5.0339,5.1076,5.141,5.141,5.1422,5.103,5.0316,4.9639,4.8935,4.8242,4.7555,4.7276,4.724,4.7135,4.7002,4.6642,4.5109,4.4467,4.411,4.2751,4.219,4.1905,4.1074,4.0729,4.0303,3.8666,3.8093,3.7794,3.6998,3.8272,4.0021,4.0854,4.3208,4.5372,0.0,4.7911,5.0241,5.1175,5.265,5.4279,5.5788,5.6877,5.7836,5.8763,5.9675,6.027,6.041,6.0512,6.0527,6.0426,6.0497,6.0547,6.0547,6.1168,6.1608,6.173,6.3004,6.3853,6.4046,6.4751,6.5193,6.5299,6.5299,6.5447,6.574,6.574,6.5899,6.6177,6.6192,6.6192,6.6192,6.6238,6.633,6.6452,6.6765,6.6997,6.714,6.7359,6.7442,6.747,6.762,6.7674,6.7674,6.7674,6.7687,6.77,1.546,1.618,1.6829,1.7258,1.7586,1.8307,1.9874,2.0148,2.1118,2.3752,2.4832,2.5822,2.6957,2.8429,3.007,3.1936,3.403,3.6265,3.8714,4.1515,4.3611,4.4799,4.6341,4.7176,4.7176,4.7965,4.861,4.9076,5.0187,5.0964,5.1442,5.1765,5.1944,5.1944,5.1944,5.1765,5.137,5.0629,4.9898,4.9187,4.8404,4.7883,4.7478,4.7009,4.6513,4.5903,4.5129,4.4226,0.0,4.2147,4.1466,4.1108,4.1215,4.0935,4.0477,4.0272,3.9895,3.974,4.0657,4.2122,4.3776,4.5376,4.739,4.9188,5.0066,5.1997,5.3787,5.4524,5.5914,5.7258,5.7998,5.8787,5.9468,5.994,6.0289,6.0552,6.0578,6.0686,6.0712,6.0712,6.1285,6.1605,6.1313,6.2041,6.2678,6.3123,6.3822,6.4454,6.4899,6.5413,6.5704,6.5704,6.5816,6.5942,6.6104,6.6104,6.6146,6.6284,6.6361,6.6488,6.6593,6.6683,6.6779,6.6925,6.7054,6.721,6.7387,6.7456,6.7538,6.762,6.7674,6.77,6.77,6.77,6.77,6.77,0.0,1.6485,1.7157,1.7721,1.7975,1.8585,1.9997,2.0427,2.1364,2.3481,2.4537,2.5511,2.6667,2.8243,2.9875,3.1432,3.376,3.6093,3.8356,4.1453,4.3696,4.4705,4.6254,4.7191,4.7407,4.8199,4.8884,4.946,5.048,5.1273,5.185,5.2066,5.2174,5.2174,5.2174,5.2174,5.2102,5.1128,5.0428,4.9892,4.8913,4.8072,4.7384,4.6803,4.5814,4.4686,4.4488,4.3398,4.1922,4.1336,4.0625,4.0076,4.0913,4.0913,4.0733,4.1281,4.1495,4.2011,4.4217,4.5878,4.7473,4.9552,5.1276,5.2748,5.3872,5.5376,5.6656,5.7198,5.8459,5.9472,5.956,6.0081,6.0547,6.0701,6.0762,6.0808,6.0869,6.0953,6.1028,6.1028,6.2129,6.2752,6.2424,6.3104,6.3816,6.4333,6.471,6.5165,6.5684,6.5958,6.6099,6.6099,6.6223,6.6336,6.6345,6.6345,6.6391,6.6482,6.6587,6.672,6.6918,6.7033,6.7126,6.728,6.728,6.74,6.7538,6.7538,6.7606,6.77,6.7741,6.7767,6.7767,6.7807,6.7767,6.7714,0.0,1.7258,1.7783,1.7783,1.8461,1.9227,2.0071,2.0969,2.2112,2.3701,2.4718,2.5981,2.7826,2.8975,2.9966,3.0842,3.3146,3.5209,3.6865,3.9994,4.2456,4.4075,4.5687,4.6882,4.7678,4.8391,4.8779,4.8815,5.0429,5.1201,5.1237,5.2022,5.2384,5.2384,5.2384,5.2384,5.2287,5.0841,5.0206,5.0072,4.8623,4.7544,4.6805,4.6805,4.5311,4.3251,4.3038,4.194,4.0547,4.0547,4.0004,3.9461,4.0257,4.1071,4.1641,4.1529,4.2985,4.5151,4.7436,4.9502,5.1361,5.2905,5.4865,5.642,5.649,5.7857,5.9091,5.9126,5.9885,6.0543,6.0543,6.0696,6.0863,6.1049,6.1197,6.1357,6.153,6.158,6.1595,6.1595,6.2925,6.386,6.3845,6.4564,6.5067,6.5067,6.5786,6.6269,6.6269,6.6269,6.6269,6.6269,6.632,6.6345,6.6482,6.6482,6.6646,6.699,6.6968,6.704,6.7196,6.7196,6.7294,6.747,6.747,6.7565,6.7687,6.7687,6.77,6.7714,6.7847,6.7913,6.7926,6.8018,6.7939,6.7727,0.0,0.0,1.7969,1.85,1.9284,2.0147,2.0993,2.1412,2.2037,2.3203,2.4715,0.0,0.0,0.0,0.0,0.0,3.2026,3.4033,3.617,3.8832,4.1269,4.3396,4.4514,4.5496,4.6296,4.7605,4.825,4.825,4.986,5.0671,5.0671,5.0962,5.106,5.106,5.106,5.106,5.1035,5.0521,5.0086,4.9575,4.8547,4.7682,4.6835,4.5233,4.3438,4.1663,0.0,3.9697,3.8933,3.7871,3.7697,3.8033,3.886,4.0032,4.1514,4.3538,4.5642,4.7759,5.0103,5.2106,5.3912,5.5455,5.7105,5.831,5.831,5.9243,5.9986,5.9436,5.9663,5.9799,5.939,5.9516,5.9924,6.0668,6.088,6.1143,6.1642,6.1714,6.1722,6.1623,6.2594,6.33,6.33,6.487,6.5889,6.5889,6.614,6.6284,6.6284,6.6376,6.6421,6.6421,6.6563,6.6697,6.6823,6.6823,6.6925,6.714,6.7275,6.7359,6.74,6.7497,6.7579,6.7633,6.7633,6.7714,6.7847,6.7847,6.7899,6.7991,6.803,6.8018,6.8055,6.807,6.8031,6.7954,0.0,0.0,0.0,1.9289,2.0182,0.0,0.0,0.0,0.0,0.0,0.0,0.0,0.0,0.0,0.0,0.0,0.0,3.3248,3.5075,3.7486,3.9804,4.1959,4.2837,4.3797,4.4913,4.623,4.6935,4.6935,4.8517,4.9311,4.9301,4.9527,4.9663,4.9663,4.9663,4.9663,4.9626,4.9324,4.8962,4.8483,4.7384,4.6506,4.5617,4.3754,4.1882,0.0,3.8762,3.7996,3.753,3.68,3.6857,3.7484,3.8863,4.0745,4.3014,4.5913,4.8172,5.0257,5.2641,5.4634,5.6383,5.7688,5.888,5.9713,5.9713,6.0058,6.0124,5.9322,5.9136,5.8909,5.8206,5.8579,5.9157,5.9806,6.0531,6.1178,6.1593,6.1824,6.1909,6.1826,6.2562,6.306,6.306,6.4635,6.5622,6.5622,6.5875,6.6055,6.6055,6.6442,6.6676,6.6676,6.6859,6.699,6.7054,6.7054,6.714,6.7294,6.7483,6.7565,6.7565,6.766,6.7727,6.7781,6.7781,6.786,6.7991,6.7991,6.8006,6.8083,6.817,6.8183,6.8196,6.8296,6.8297,6.8321,0.0,0.0,0.0,0.0,0.0,0.0,0.0,0.0,0.0,0.0,0.0,0.0,0.0,0.0,0.0,0.0,0.0,0.0,3.3697,3.5987,3.8073,3.9789,4.0614,4.1788,4.3431,4.4361,4.4813,4.4813,4.6358,4.7132,4.7123,4.7766,4.8049,4.8049,4.8049,4.8049,4.8012,4.7232,4.6929,4.6782,4.5214,4.4085,4.3286,4.2433,4.0634,3.8469,3.7676,3.6905,3.6384,3.7155,3.7483,3.7977,4.0417,4.3196,4.6061,4.8504,5.0631,5.27,5.5107,5.7144,5.8742,5.9574,6.02,6.0625,6.0589,6.0193,5.9609,5.8752,5.8277,5.7778,5.6948,5.7713,5.8506,5.8579,6.0102,6.1286,6.1396,6.1824,6.2162,6.2185,6.2767,6.3156,6.3156,6.3844,6.4315,6.4315,6.5098,6.5605,6.5605,6.6511,6.7033,6.7033,6.714,6.721,6.7224,6.7224,6.7308,6.7497,6.7633,6.77,6.7714,6.7714,6.7794,6.7926,6.7926,6.8004,6.8095,6.8095,6.8095,6.8121,6.8259,6.8309,6.8346,6.8602,6.8685,6.8685,0.0,0.0,0.0,0.0,0.0,0.0,0.0,0.0,0.0,0.0,0.0,0.0,0.0,0.0,0.0,0.0,0.0,0.0,3.2809,3.4111,3.5851,3.8111,3.8457,3.9099,4.0185,4.1598,4.23,4.23,4.3911,4.4682,4.4614,4.4773,4.4875,4.4875,4.4814,4.4797,4.4788,4.4515,4.4415,4.4342,4.3314,4.2424,4.1544,4.0149,3.8536,3.6853,3.595,3.556,3.5588,3.6238,3.8344,4.1178,4.4195,4.6369,4.837,5.1378,5.3349,5.5037,5.7401,5.8717,5.9574,6.032,6.0736,6.0817,6.0211,5.9731,5.8889,5.7002,5.6246,5.5498,5.4209,5.4824,5.5978,5.7164,5.8311,5.9622,6.1312,6.1566,6.1753,6.2139,6.242,6.2566,6.2472,6.2734,6.2897,6.2897,6.4657,6.5727,6.5727,6.6632,6.7154,6.7154,6.7196,6.7266,6.7414,6.7524,6.7606,6.7647,6.7687,6.7754,6.786,6.786,6.7939,6.8031,6.8031,6.8145,6.8246,6.8246,6.8309,6.8408,6.8432,6.8506,6.8602,6.8662,6.8744,6.8838,0.0,0.0,0.0,0.0,0.0,0.0,0.0,0.0,0.0,0.0,0.0,0.0,0.0,0.0,0.0,0.0,0.0,0.0,0.0,3.2359,3.3815,3.5956,3.6118,3.6754,3.8002,3.9291,3.9937,3.9937,4.1193,4.1742,4.1733,4.1687,4.1656,4.1625,4.1586,4.1554,4.1522,4.1482,4.1466,0.0,0.0,3.9994,3.9479,3.8191,3.6969,3.5862,3.5335,3.6036,3.7492,3.9175,4.1787,4.4765,4.7206,4.9467,5.1657,5.3808,5.5726,5.7527,5.918,6.0103,6.0646,6.1039,6.0954,6.0597,5.9816,5.8727,5.7259,5.5015,5.3874,5.2836,5.1336,5.222,5.3588,5.4794,5.6573,5.8342,5.9923,6.0872,6.1503,6.18,6.2188,6.2357,6.2315,6.2381,6.242,6.242,6.4248,6.5372,6.5372,6.6604,6.7308,6.7308,6.7378,6.746,6.7579,6.766,6.7727,6.7794,6.7794,6.7873,6.8004,6.8004,6.8081,6.8196,6.8196,6.8271,6.8383,6.8383,6.8432,6.8506,6.8554,6.8626,6.8697,6.8814,6.8895,6.8964,0.0,0.0,0.0,0.0,0.0,0.0,0.0,0.0,0.0,2.6067,2.6708,2.7469,2.8476,2.865,0.0,0.0,0.0,0.0,0.0,0.0,3.206,3.369,3.3846,3.4655,3.6298,3.7169,3.7685,3.7766,3.8548,3.8918,3.8904,3.8836,3.8767,3.8711,3.8697,3.8661,3.8611,3.8596,3.8589,3.8515,3.7835,3.7509,3.7325,0.0,3.5846,3.5188,3.5396,3.7352,4.03,4.3388,4.5982,4.8193,4.9714,5.2342,5.5058,5.5985,5.7824,5.97,6.0494,6.1168,6.1573,6.1493,6.0896,6.0037,5.9114,5.725,5.5071,5.2722,5.1277,4.9954,4.8538,4.9799,5.1338,5.2317,5.5023,5.7291,5.8182,6.0038,6.1311,6.1383,6.2026,6.2472,6.2446,6.2423,6.2436,6.2436,6.3932,6.4844,6.4831,6.6551,6.7547,6.7547,6.7633,6.7714,6.7727,6.7727,6.7794,6.7939,6.7939,6.8017,6.8145,6.8145,6.8208,6.8321,6.8321,6.8383,6.8493,6.8493,6.8506,6.853,6.8638,6.8709,6.8756,6.8937,6.9016,6.905,0.0,0.0,0.0,0.0,0.0,0.0,0.0,0.0,0.0,0.0,2.7355,2.7437,2.8347,2.8542,0.0,0.0,0.0,0.0,0.0,0.0,0.0,3.1979,3.2093,3.2667,3.3801,3.4629,3.5399,3.6119,3.6962,3.7337,3.7287,3.7274,3.7299,3.7249,3.7216,3.7177,3.7164,3.703,3.7003,3.7003,3.6862,3.638,3.5786,3.5638,0.0,0.0,3.5967,3.7974,4.0444,4.345,4.6795,5.0045,5.2173,5.4491,5.6708,5.8183,5.9384,6.0392,6.122,6.1529,6.1457,6.0921,6.0237,5.9237,5.7254,5.5195,5.2879,5.0015,4.825,4.7037,4.6203,4.7415,4.9235,5.1347,5.3766,5.6078,5.8045,5.9711,6.0896,6.1335,6.2191,6.2679,6.2578,6.2667,6.2717,6.2717,6.427,6.5171,6.5028,6.6699,6.766,6.766,6.7687,6.7754,6.7873,6.7873,6.7952,6.8094,6.8094,6.8145,6.8259,6.8259,6.8334,6.8457,6.8457,6.8469,6.8493,6.8493,6.8554,6.865,6.8674,6.8814,6.896,6.8994,6.9072,6.916,0.0,0.0,0.0,0.0,0.0,0.0,0.0,2.5538,2.6676,2.8364,2.8721,2.8862,2.8943,2.9044,2.9012,0.0,0.0,0.0,0.0,0.0,0.0,3.0904,3.1063,3.1732,3.3088,3.3594,3.4248,3.5094,0.0,3.5722,3.5693,3.5693,3.5676,3.5647,3.5606,3.557,3.554,3.5466,3.5454,3.5454,3.5454,3.5231,3.4895,3.4895,0.0,0.0,3.5647,3.76,3.9971,4.2545,4.6039,4.9784,5.2636,5.5195,5.7412,5.9029,6.0132,6.0982,6.1802,6.2019,6.1879,6.1178,6.0167,5.8653,5.6038,5.3397,5.0666,4.7673,4.5825,4.4579,4.3849,4.5063,4.6825,4.8757,5.1356,5.3961,5.627,5.8164,5.9741,6.0835,6.1704,6.2303,6.2668,6.2755,6.2976,6.3429,6.4591,6.5262,6.521,6.678,6.77,6.77,6.7767,6.7847,6.7913,6.7991,6.8094,6.8208,6.8208,6.8271,6.8396,6.8396,6.8432,6.8493,6.8493,6.8493,6.8506,6.8566,6.8626,6.8697,6.8826,6.8915,6.9016,6.9083,6.9138,6.9192,0.0,0.0,0.0,0.0,0.0,0.0,0.0,2.6121,2.7407,2.9057,3.0049,3.0449,2.9998,2.9732,2.9355,0.0,0.0,0.0,0.0,0.0,0.0,0.0,3.0194,3.1067,3.2698,0.0,0.0,3.4501,3.4545,0.0,0.0,0.0,0.0,0.0,3.4517,3.4501,3.4467,3.4467,3.4478,0.0,0.0,3.4467,3.4467,0.0,0.0,0.0,0.0,3.7075,3.9324,4.1341,4.4502,4.8145,5.137,5.4476,5.7292,5.87,6.0026,6.1197,6.2,6.2352,6.2294,6.1458,6.009,5.8088,5.4911,5.1816,4.8716,4.5672,4.3809,4.2545,4.1971,4.3213,4.4889,4.6548,4.9451,5.2306,5.4666,5.6927,5.8895,6.046,6.1261,6.1998,6.2769,6.2842,6.3197,6.4029,6.5007,6.5618,6.5802,6.699,6.7714,6.7741,6.786,6.7939,6.7991,6.8107,6.8221,6.8334,6.8334,6.8396,6.8493,6.8493,6.8493,6.8493,6.8493,6.8506,6.8542,6.865,6.8721,6.8779,6.8937,6.9027,6.9061,6.9149,6.9192,6.9192,0.0,0.0,0.0,0.0,0.0,0.0,0.0,2.6496,2.8132,2.9875,3.0859,3.1406,3.1402,3.0262,2.9524,0.0,0.0,0.0,0.0,0.0,0.0,0.0,0.0,0.0,0.0,0.0,0.0,3.4501,3.4506,0.0,0.0,0.0,0.0,0.0,0.0,3.4604,3.469,3.469,0.0,0.0,0.0,0.0,0.0,0.0,0.0,0.0,0.0,3.6948,3.8694,4.0254,4.2468,4.5041,4.7529,5.1716,5.5866,5.672,5.8649,6.064,6.1459,6.2192,6.2438,6.1098,5.957,5.7428,5.3777,5.0479,4.7303,4.4141,4.2291,4.1178,4.1115,4.2416,4.4257,4.6532,4.9634,5.2513,5.4686,5.7114,5.9181,6.062,6.1461,6.2214,6.2929,6.299,6.3309,6.4029,6.5521,6.6696,6.7444,6.7627,6.7767,6.7886,6.7913,6.803,6.8259,6.8271,6.8346,6.8469,6.8469,6.8481,6.8493,6.8493,6.8493,6.8493,6.8493,6.8566,6.8674,6.8674,6.8814,6.8983,6.9005,6.9072,6.9171,6.9181,6.9192,6.9192,0.0,0.0,0.0,0.0,0.0,0.0,2.4821,2.6075,2.7629,2.9733,3.0893,3.1693,3.2159,3.0958,2.9941,2.956,0.0,0.0,0.0,0.0,0.0,0.0,0.0,0.0,0.0,0.0,3.2627,3.4335,3.441,0.0,0.0,0.0,0.0,0.0,0.0,0.0,3.462,3.462,0.0,0.0,0.0,0.0,0.0,0.0,0.0,0.0,0.0,0.0,3.7099,3.8162,4.0133,4.2425,4.3865,4.7082,5.109,5.4647,5.708,5.8895,6.0237,6.1172,6.1402,5.9939,5.8421,5.6264,5.2418,4.9062,4.6047,4.3371,4.1504,4.032,4.032,4.1666,4.3372,4.5259,4.8258,5.117,5.3538,5.5836,5.805,6.0007,6.0929,6.1849,6.3012,6.3554,6.4353,6.5553,6.6639,6.737,6.7664,6.77,6.7767,6.7913,6.7991,6.812,6.8296,6.8371,6.8445,6.8493,6.8493,6.8493,6.8493,6.8493,6.8493,6.8493,6.8578,6.8638,6.8697,6.8849,6.8926,6.9016,6.9094,6.9149,6.9192,6.9192,6.9192,6.9192,0.0,0.0,0.0,0.0,0.0,2.3048,2.4715,2.5981,2.7402,2.933,3.0509,3.1331,3.1862,3.0876,2.999,2.9518,2.8847,0.0,0.0,0.0,0.0,0.0,0.0,0.0,0.0,0.0,3.2745,3.4154,3.4529,3.4649,0.0,0.0,0.0,0.0,0.0,0.0,0.0,0.0,0.0,0.0,0.0,0.0,0.0,0.0,0.0,0.0,0.0,0.0,0.0,0.0,0.0,3.9966,4.077,4.2982,4.6323,5.1818,5.4895,5.6897,5.8547,5.9766,6.0261,5.8955,5.7482,5.5388,5.166,4.8359,4.5401,4.3003,4.1179,3.9975,3.9954,4.1253,4.2848,4.4506,4.7419,5.0422,5.3115,5.5237,5.7488,6.0056,6.0805,6.1686,6.3153,6.4155,6.5275,6.6587,6.734,6.77,6.77,6.7741,6.7834,6.7928,6.8107,6.8234,6.8346,6.8445,6.8493,6.8493,6.8493,6.8493,6.8493,6.853,6.8554,6.8554,6.8685,6.8756,6.8814,6.8937,6.9027,6.9072,6.916,6.9192,6.9192,6.9192,6.9192,6.9192,0.0,0.0,0.0,0.0,0.0,0.0,2.465,2.636,2.7813,2.8709,2.9679,3.0312,3.0312,2.9774,2.9405,2.9398,2.8724,0.0,0.0,0.0,0.0,0.0,0.0,0.0,0.0,0.0,3.3136,3.408,3.5045,3.5076,3.4317,3.524,3.5267,0.0,0.0,0.0,0.0,0.0,0.0,0.0,0.0,0.0,3.4793,0.0,0.0,0.0,0.0,0.0,0.0,0.0,0.0,0.0,0.0,3.9899,4.2261,4.7997,5.1922,5.4798,5.6469,5.8098,5.915,5.8386,5.6998,5.4996,5.1802,4.8624,4.5574,4.3123,4.1305,4.0176,4.0117,4.1342,4.2931,4.4624,4.7586,5.0794,5.3958,5.5781,5.7969,6.1097,6.1373,6.189,6.3453,6.4733,6.5837,6.6648,6.734,6.77,6.77,6.7834,6.7978,6.8083,6.8234,6.8358,6.8493,6.8493,6.8493,6.8493,6.8493,6.8493,6.8493,6.8626,6.8685,6.8697,6.8852,6.8941,6.9005,6.9016,6.9083,6.9181,6.9192,6.9192,6.9192,6.9192,6.9192,6.9203,0.0,0.0,0.0,0.0,0.0,0.0,0.0,2.5134,2.6404,2.7758,2.8815,2.9703,3.0241,2.9774,2.9398,2.9398,2.8724,0.0,0.0,0.0,0.0,0.0,0.0,0.0,0.0,3.2243,3.3373,3.4776,3.5181,3.5549,3.5873,3.5603,3.5367,3.5173,3.4672,0.0,0.0,0.0,0.0,0.0,3.4778,3.4819,3.4854,0.0,0.0,0.0,0.0,0.0,0.0,0.0,0.0,0.0,0.0,0.0,0.0,4.3264,4.7131,5.0921,5.3165,5.4577,5.5195,5.4366,5.3452,5.1861,4.8612,4.627,4.4251,4.2384,4.1079,4.0243,4.0187,4.149,4.3145,4.4779,4.7732,5.0766,5.3467,5.6203,5.8628,6.0593,6.2587,6.4242,6.5288,6.6025,6.6801,6.7613,6.7687,6.7741,6.7847,6.7941,6.8081,6.8083,6.8234,6.8358,6.8493,6.8493,6.8493,6.8493,6.8493,6.8493,6.8493,6.8626,6.8685,6.8697,6.8907,6.8971,6.9016,6.9105,6.916,6.9192,6.9192,6.9192,6.9192,6.9192,6.9192,6.9203,0.0,0.0,0.0,0.0,0.0,0.0,0.0,2.4372,2.5394,2.6921,2.776,2.8534,2.9328,2.9133,2.8934,2.8934,2.8547,0.0,0.0,0.0,0.0,0.0,0.0,0.0,3.1283,3.2492,3.375,3.5067,3.5517,3.5984,3.6505,3.635,3.5972,3.5404,3.4958,3.4663,0.0,0.0,0.0,0.0,3.4773,3.4829,3.4916,0.0,0.0,0.0,0.0,0.0,0.0,0.0,0.0,0.0,0.0,0.0,0.0,0.0,4.2731,4.6247,4.9651,5.1221,5.1809,5.1588,5.0761,4.9369,4.7007,4.5013,4.3311,4.1983,4.0982,4.0462,4.0714,4.1848,4.3365,4.5295,4.8085,5.0991,5.3751,5.6624,5.9351,6.1647,6.3834,6.5546,6.6574,6.6826,6.7233,6.8046,6.7913,6.782,6.7913,6.8094,6.8183,6.8183,6.8309,6.8408,6.8493,6.8493,6.8493,6.8493,6.8493,6.8518,6.8566,6.8697,6.8779,6.8838,6.8994,6.9083,0.0,6.916,6.9192,6.9192,6.9192,6.9192,6.9192,6.9192,6.9225,6.9278,0.0,0.0,0.0,0.0,0.0,0.0,0.0,2.3995,2.4736,2.6226,2.6627,2.7125,2.7918,2.8137,2.8213,2.8213,2.8213,0.0,0.0,0.0,0.0,0.0,0.0,0.0,3.1277,3.3003,3.4277,3.5071,3.6073,3.6587,3.6667,3.7402,3.6985,3.5523,3.5446,3.4965,0.0,0.0,0.0,0.0,3.4768,3.4824,0.0,0.0,0.0,0.0,0.0,0.0,0.0,0.0,0.0,0.0,0.0,0.0,0.0,0.0,0.0,0.0,0.0,4.798,4.8841,4.9642,4.8695,4.7329,4.6454,4.4513,0.0,4.1775,4.1033,4.0743,4.154,4.2377,4.3704,4.6205,4.8735,5.151,5.4731,5.743,6.0379,6.3978,6.5055,6.5998,6.7391,6.7209,6.7307,6.8058,6.8004,6.7926,6.7939,6.817,6.8296,6.8309,6.8432,6.8493,6.8493,6.8493,6.8493,6.8493,6.8493,6.8566,6.8685,6.8852,6.8941,6.9016,6.9138,6.9192,6.9192,6.9192,6.9192,6.9192,6.9192,6.9192,6.9192,6.9203,6.9278,6.9405,0.0,0.0,0.0,0.0,0.0,0.0,0.0,0.0,0.0,0.0,2.6281,2.7125,2.7918,2.8137,2.8213,0.0,0.0,0.0,0.0,0.0,0.0,0.0,0.0,0.0,3.1226,3.3519,3.5158,3.6009,3.7456,3.8455,3.9087,3.8714,3.8346,3.7882,3.6115,3.4895,0.0,0.0,0.0,0.0,3.4737,3.4804,0.0,0.0,0.0,0.0,3.5101,3.5174,0.0,0.0,0.0,0.0,0.0,0.0,0.0,0.0,3.7244,3.8239,4.1378,0.0,4.5375,4.5566,4.5338,4.4647,0.0,4.2441,4.1834,4.0946,4.0646,4.0753,4.1554,4.2919,4.4758,4.7187,5.0174,5.3309,5.6591,6.0727,6.392,6.5303,6.6489,6.7314,6.7542,6.774,6.7936,6.8246,6.8043,6.8004,6.8196,6.8259,6.8346,6.8445,6.8481,6.8493,6.8493,6.8493,6.8493,6.8493,6.8493,6.8566,6.8685,6.8852,6.8941,6.9016,6.9138,6.9192,6.9192,6.9192,6.9192,6.9192,6.9192,6.9192,6.9203,6.93,6.9363,6.9416,0.0,0.0,0.0,0.0,0.0,0.0,0.0,0.0,0.0,0.0,2.5961,2.679,2.7925,2.8158,0.0,0.0,0.0,0.0,0.0,0.0,0.0,0.0,3.0935,3.1714,3.1747,3.3851,3.5387,3.631,3.7918,3.9129,3.9871,3.9499,3.911,3.8632,3.6318,3.49,0.0,0.0,0.0,3.4517,3.4727,0.0,0.0,0.0,0.0,0.0,3.5153,3.5191,0.0,3.5312,3.5358,3.5341,0.0,0.0,0.0,0.0,3.6423,3.7081,3.8857,4.0891,4.2769,4.396,4.367,4.2958,4.2467,4.1757,4.1085,4.0593,4.0819,4.1458,4.2638,4.428,4.6359,4.9193,5.1759,5.4803,5.8781,6.2555,6.5253,6.6266,6.7234,6.7886,6.8174,6.8172,6.8221,6.8296,6.817,6.8158,6.8284,6.8358,6.842,6.8493,6.8493,6.8493,6.8493,6.8493,6.8493,6.8493,6.8493,6.859,6.8779,6.8875,6.8964,6.9094,6.916,6.9192,6.9192,6.9192,6.9192,6.9192,6.9192,6.9225,6.9289,6.9363,6.9447,6.9549,0.0,0.0,0.0,0.0,0.0,0.0,0.0,0.0,0.0,0.0,0.0,0.0,0.0,0.0,0.0,0.0,0.0,0.0,0.0,0.0,0.0,3.1096,3.1915,3.2402,3.2573,3.4233,3.5622,3.667,3.8285,3.9496,4.0275,4.012,3.9467,3.8264,3.6341,3.5011,3.4191,3.4358,3.445,3.4528,3.4732,0.0,0.0,0.0,0.0,0.0,0.0,0.0,0.0,3.5372,3.5405,3.5412,3.549,0.0,0.0,0.0,0.0,0.0,3.7738,3.9127,4.09,4.3316,4.2923,4.2184,4.2919,4.1919,4.0877,4.0877,4.1561,4.2659,4.4262,4.6095,4.8363,5.1544,5.3824,5.6661,6.0863,6.3533,6.5567,6.6868,6.7486,6.8062,6.8786,6.8518,6.8309,6.8321,6.8309,6.8309,6.8321,6.8432,6.8493,6.8493,6.8493,6.8493,6.8493,6.8493,6.8493,6.8493,6.8493,6.8626,6.891,6.891,6.9009,6.9192,6.9192,6.9192,6.9192,6.9192,6.9192,6.9192,6.9214,6.9289,6.9384,6.9426,6.9549,6.9709,0.0,0.0,0.0,0.0,0.0,0.0,0.0,0.0,0.0,0.0,0.0,0.0,0.0,0.0,0.0,0.0,0.0,0.0,0.0,0.0,0.0,3.267,3.2508,3.2712,3.3405,3.5161,3.6809,3.8322,3.9929,4.114,4.1919,4.1213,3.941,3.6727,3.6443,3.5529,3.4191,3.4358,3.4473,3.4588,3.4747,0.0,0.0,0.0,0.0,0.0,0.0,0.0,0.0,3.5387,3.5405,3.5412,3.549,0.0,0.0,0.0,0.0,0.0,3.7584,3.8742,3.9935,4.1735,4.2514,4.2868,4.2983,4.2761,4.2538,4.2538,4.3224,4.4331,4.6019,4.8229,5.0696,5.3225,5.728,6.0551,6.1893,6.4251,6.6059,6.6685,6.738,6.804,6.8658,6.8469,6.8346,6.8457,6.8358,6.8346,6.8457,6.8481,6.8493,6.8493,6.8493,6.8493,6.8493,6.8493,6.8493,6.8493,6.8493,6.8626,6.891,6.891,6.9009,6.9192,6.9192,6.9192,6.9192,6.9192,6.9192,6.9203,6.931,6.9374,6.9405,6.959,6.9679,6.9719,0.0,0.0,0.0,0.0,0.0,0.0,0.0,0.0,0.0,0.0,0.0,0.0,0.0,0.0,0.0,0.0,0.0,0.0,0.0,3.0736,3.1556,3.3202,3.3553,3.3856,3.4258,3.6413,3.7917,3.8681,4.0736,4.1947,4.2286,4.152,3.9464,3.6424,3.6569,3.5706,3.4191,3.4393,3.4512,3.4599,0.0,0.0,0.0,0.0,0.0,0.0,0.0,0.0,0.0,0.0,3.5437,3.5479,3.5493,0.0,0.0,0.0,0.0,0.0,3.7546,3.8934,4.0354,4.2014,4.306,4.3768,4.4201,4.4254,4.4389,4.4844,4.5611,4.6707,4.8335,5.0706,5.3449,5.6652,5.972,6.1929,6.2625,6.4416,6.5878,6.6576,6.7217,6.7919,6.8623,6.8518,6.8432,6.8493,6.8432,6.8432,6.8493,6.8493,6.8493,6.8493,6.8493,6.8493,6.8493,6.8493,6.8493,6.8493,6.8493,6.8626,6.891,6.891,6.9009,6.9192,6.9268,6.93,6.93,6.9401,6.9422,6.9432,6.9495,6.9508,6.959,6.9796,6.9873,6.9882,0.0,0.0,0.0,0.0,0.0,0.0,0.0,0.0,0.0,0.0,0.0,0.0,0.0,0.0,0.0,0.0,0.0,0.0,0.0,3.0671,3.1499,3.306,3.4375,3.5199,3.5389,3.7503,3.892,3.9533,4.1405,4.2221,4.2026,4.1482,3.9519,3.6494,3.6613,3.5789,3.4294,3.4456,3.4561,3.4674,0.0,0.0,0.0,0.0,0.0,0.0,0.0,0.0,0.0,0.0,0.0,0.0,0.0,0.0,0.0,3.55,3.55,3.5885,3.7546,3.9204,4.0962,4.2817,4.4023,4.5002,4.5783,4.6107,4.6546,4.7559,4.8439,4.9488,5.1108,5.362,5.6476,5.9601,6.134,6.2504,6.3019,6.4183,6.5352,6.6367,6.6911,6.7556,6.8575,6.8554,6.8493,6.8493,6.8493,6.8493,6.8493,6.8518,6.8542,6.8542,6.8566,6.8578,6.8578,6.8578,6.8554,6.8493,6.853,6.8662,6.891,6.8907,6.9054,6.9236,6.9342,6.9432,6.9464,6.9556,6.9587,6.9587,6.9617,6.9669,6.9796,6.9975,7.0153,7.0353,0.0,0.0,0.0,0.0,0.0,0.0,0.0,0.0,0.0,0.0,0.0,2.6401,0.0,0.0,0.0,0.0,0.0,0.0,0.0,3.0404,3.1302,3.2234,3.4681,3.6406,3.7197,3.8203,3.9782,4.2029,4.2213,4.196,4.1269,4.1283,3.9653,3.6666,3.6679,3.5864,3.4484,3.4556,3.4685,3.4788,3.4844,0.0,0.0,0.0,0.0,0.0,0.0,0.0,0.0,0.0,0.0,0.0,0.0,0.0,3.55,3.55,3.55,3.5885,3.7546,3.9204,4.1065,4.3497,4.5319,4.6712,4.7444,4.8218,4.9146,5.0672,5.1656,5.2766,5.4466,5.7347,5.9736,6.0516,6.192,6.2873,6.2735,6.3478,6.4545,6.6049,6.6276,6.6888,6.8369,6.8506,6.8493,6.8493,6.8493,6.8493,6.8493,6.8602,6.8674,6.8674,6.8828,6.8886,6.8886,6.8886,6.877,6.8493,6.8614,6.8744,6.891,6.8949,6.9138,6.9374,6.9384,6.9484,6.9577,6.9587,6.9587,6.9597,6.9659,6.9815,6.9994,7.014,7.0671,7.1318,0.0,0.0,0.0,0.0,0.0,0.0,0.0,0.0,0.0,0.0,0.0,2.6401,2.8035,2.8213,2.8213,0.0,0.0,0.0,2.9493,3.043,3.1356,3.2265,3.4768,3.6545,3.7448,3.9261,4.0883,4.2286,4.2328,4.2022,4.1316,4.0874,3.9553,3.7507,3.7069,3.629,3.5287,3.4862,3.4727,3.4798,3.4854,3.4955,0.0,0.0,0.0,0.0,0.0,0.0,0.0,0.0,3.4699,3.4776,3.5346,3.55,3.55,3.55,3.5846,3.6504,3.77,3.9623,4.1753,4.3718,4.6229,4.8421,4.914,5.034,5.1751,5.3355,5.4749,5.6357,5.8463,5.9605,6.0688,6.1939,6.2436,6.2848,6.3334,6.3992,6.4893,6.6012,6.6558,6.7315,6.8382,6.8493,6.853,6.8602,6.8614,6.865,6.8733,6.8817,6.8803,6.8803,6.8886,6.891,6.891,6.891,6.8863,6.8733,6.8817,6.8861,6.8986,6.9083,6.9225,6.9395,6.9529,6.961,6.9649,6.9756,6.9815,6.9929,7.0517,7.079,7.0939,7.1571,7.1996,7.2263,0.0,0.0,0.0,0.0,0.0,0.0,0.0,0.0,2.3791,0.0,0.0,0.0,0.0,2.8035,2.822,0.0,0.0,0.0,2.9202,3.0136,3.1068,3.1996,3.416,3.6032,3.7456,3.9381,4.1005,4.2328,4.246,4.2026,4.1022,4.0606,3.9551,3.8027,3.7617,3.6965,3.6175,3.5469,3.5166,3.5201,3.4992,3.4979,0.0,0.0,0.0,0.0,0.0,0.0,0.0,0.0,3.3971,3.4318,3.4891,3.5273,3.5538,3.5808,3.6269,3.7004,3.8392,4.0458,4.2689,4.483,4.7468,4.9931,5.1402,5.2634,5.4033,5.6101,5.7886,5.9493,6.1056,6.1308,6.1645,6.2721,6.2896,6.3188,6.3985,6.4502,6.5225,6.6339,6.6971,6.7614,6.848,6.8554,6.8614,6.8733,6.8744,6.8779,6.891,6.8907,6.8929,6.8929,6.9009,6.9054,6.9054,6.9087,6.9109,6.9109,6.9109,6.9109,6.9083,6.9214,6.9353,6.9536,6.9944,7.0155,7.0232,7.064,7.0801,7.0903,7.1298,7.1638,7.1922,7.2626,7.3051,7.3335,0.0,0.0,0.0,0.0,0.0,0.0,2.299,2.3157,2.3608,2.4405,2.5256,0.0,0.0,0.0,0.0,0.0,2.83,0.0,2.8504,2.9382,3.0297,3.117,3.286,3.4952,3.7419,3.8346,3.9967,4.239,4.2645,4.1936,4.0324,4.0493,3.9748,3.8209,3.827,3.7885,3.7164,3.6415,3.6089,3.6018,3.523,3.4969,3.5101,0.0,0.0,0.0,0.0,0.0,0.0,0.0,3.3471,3.4205,3.4205,3.4814,3.5654,3.6465,3.6734,3.7273,3.9819,4.1745,4.3802,4.7082,4.9127,5.114,5.4358,5.5073,5.592,5.9089,6.098,6.206,6.1968,6.2503,6.2928,6.2751,6.3334,6.4033,6.4716,6.4816,6.5448,6.7082,6.7305,6.7699,6.8599,6.8685,6.8782,6.891,6.891,6.891,6.891,6.8986,6.9016,6.9016,6.9257,6.9384,6.9384,6.9536,6.9587,6.9587,6.9587,6.9474,6.9225,6.9342,6.9508,6.9784,7.0687,7.1171,7.138,7.2327,7.2715,7.2648,7.189,7.2116,7.2838,7.3062,7.3655,7.4429,0.0,0.0,0.0,0.0,0.0,0.0,2.3114,2.3217,2.362,2.446,2.4824,0.0,0.0,0.0,0.0,0.0,0.0,2.8406,2.8504,2.942,3.0335,3.117,3.2913,3.4505,3.586,3.793,3.9941,4.1852,4.129,4.0893,4.0568,4.0069,3.9633,3.925,3.867,3.7988,3.7219,3.6431,3.5786,3.5256,3.5002,3.4969,3.5097,0.0,0.0,0.0,0.0,0.0,0.0,0.0,0.0,0.0,3.401,3.5199,3.6385,3.6619,3.7969,3.9542,4.028,4.2561,4.5242,4.7324,4.9977,5.2711,5.5213,5.6277,5.7723,6.1451,6.2495,6.2898,6.347,6.3549,6.3723,6.4244,6.4432,6.4788,6.5608,6.6191,6.6783,6.7361,6.7931,6.8425,6.8803,6.8852,6.8872,6.8949,6.896,6.8994,6.912,6.9203,6.9278,6.9278,6.9464,6.9536,6.9536,6.9647,6.9659,6.9659,6.9728,6.9659,6.9495,6.9677,7.0098,7.0696,7.1133,7.1682,7.2298,7.2655,7.2767,7.2823,7.3361,7.3726,7.401,7.4662,7.5085,7.5315,0.0,0.0,0.0,0.0,0.0,0.0,2.3247,2.3312,2.3514,2.4052,2.4474,2.5051,0.0,0.0,0.0,2.7792,2.8174,2.8426,2.851,2.9136,3.0032,3.1172,3.2327,3.37,3.5285,3.7185,3.8691,3.9781,4.0228,4.0191,3.9701,3.9614,3.9601,3.968,3.9203,3.8557,3.777,3.6964,3.6157,3.54,3.505,3.4969,3.5097,0.0,0.0,0.0,0.0,0.0,0.0,0.0,0.0,0.0,3.3433,3.4622,3.593,3.6927,3.8546,4.0312,4.1605,4.4181,4.6934,4.881,5.1515,5.4448,5.7321,5.8631,5.9952,6.2608,6.329,6.3556,6.4036,6.4193,6.4439,6.4867,6.5122,6.5596,6.6451,6.7055,6.7523,6.7929,6.8434,6.8814,6.8929,6.8941,6.8998,6.9072,6.9083,6.9138,6.9257,6.9342,6.9405,6.9484,6.9637,6.9717,6.9717,6.9853,6.9891,6.9891,6.9948,6.991,6.9834,6.992,7.0394,7.1276,7.2117,7.2978,7.3785,7.3495,7.3568,7.3925,7.4265,7.4599,7.4976,7.5563,7.5779,7.5786,0.0,0.0,2.312,2.3175,0.0,2.3318,2.3324,2.3372,2.3413,2.3419,2.4082,2.4617,0.0,0.0,0.0,2.7069,2.7815,2.836,2.8517,2.87,2.9576,3.1248,3.1605,3.2945,3.5467,3.6292,3.6758,3.6886,3.9283,3.9701,3.8227,3.925,3.9686,3.9698,3.9777,3.9336,3.8429,3.7692,3.6884,3.6012,3.5211,3.4931,3.4983,3.4988,0.0,0.0,0.0,0.0,0.0,0.0,0.0,0.0,3.266,3.3548,3.4818,3.7276,3.8742,4.0227,4.3354,4.611,4.8656,5.0938,5.3415,5.6261,6.0074,6.1478,6.2193,6.2871,6.3597,6.4037,6.3834,6.445,6.4953,6.4951,6.5645,6.6511,6.7329,6.7547,6.7889,6.8646,6.8838,6.8952,6.9039,6.905,6.9094,6.9203,6.9203,6.9257,6.9384,6.9405,6.9505,6.9617,6.9805,6.991,6.9929,7.0123,7.0211,7.0211,7.0229,7.0238,7.0238,7.0085,7.0579,7.162,7.3357,7.4628,7.5433,7.4669,7.4835,7.5523,7.482,7.5023,7.5716,7.5872,7.5902,7.591,0.0,0.0,2.3169,2.3216,0.0,0.0,2.3383,2.3401,2.343,2.3476,2.3636,2.4005,2.4623,2.5015,0.0,2.6997,2.7325,2.778,2.8538,2.8773,2.9612,3.1298,3.2822,3.4271,3.5639,3.5879,3.6019,3.6056,3.7847,3.8596,3.8365,3.9296,3.9731,3.9783,3.985,3.9056,3.7659,3.7485,3.6543,3.5173,3.4984,3.4589,3.4107,3.4141,3.3203,0.0,0.0,0.0,0.0,0.0,0.0,0.0,3.266,3.3965,3.558,3.7469,3.9546,4.1676,4.3659,4.6507,4.933,5.102,5.4054,5.7569,6.1049,6.1808,6.2248,6.3701,6.3961,6.3926,6.3873,6.4428,6.5074,6.5719,6.6619,6.7496,6.8278,6.8495,6.8685,6.8926,6.905,6.9181,6.93,6.931,6.9321,6.9342,6.9342,6.9353,6.9384,6.9549,6.9689,6.9834,6.991,7.005,7.0123,7.0268,7.0353,7.0361,7.0507,7.0608,7.0562,7.0336,7.1116,7.2699,7.3738,7.4681,7.548,7.5349,7.543,7.5608,7.5593,7.5695,7.5872,7.5955,7.5985,7.5993,0.0,0.0,0.0,0.0,0.0,0.0,0.0,0.0,2.3465,2.3499,2.3505,2.3648,2.4082,2.448,0.0,0.0,2.7004,2.7657,2.8577,2.8875,2.9808,3.1552,3.3371,3.4585,3.5169,3.5225,3.5286,3.5303,3.6962,3.7813,3.7919,3.9598,4.0166,3.9823,4.0295,3.9375,3.7377,3.6997,3.586,3.4301,3.3907,3.3548,3.3236,3.3289,3.2607,3.1589,3.1591,0.0,0.0,0.0,0.0,0.0,0.0,0.0,3.458,3.6311,3.8623,4.1022,4.3036,4.6037,4.9472,5.292,5.5458,5.7968,6.1333,6.1949,6.2266,6.3956,6.4152,6.3968,6.3905,6.4815,6.5706,6.6153,6.7328,6.8332,6.8742,6.8941,6.9039,6.9105,6.9268,6.9405,6.9495,6.9505,6.9505,6.9505,6.9505,6.9546,6.961,6.9719,6.9891,7.0032,7.0138,7.0226,7.0315,7.0451,7.0539,7.0547,7.0632,7.0715,7.0708,7.096,7.18,7.315,7.3984,7.4826,7.5599,7.5649,7.5682,7.5769,7.5856,7.5918,7.5955,7.6,7.6015,7.6015,0.0,0.0,0.0,0.0,0.0,0.0,0.0,0.0,0.0,2.3505,2.3505,2.3505,2.3505,2.4088,2.4879,0.0,0.0,0.0,2.8464,2.9052,3.0069,3.1624,3.3227,3.4127,3.4186,3.4244,3.4376,3.4582,3.6276,3.7263,3.7575,3.9963,4.0817,4.0293,4.0906,3.9873,3.7566,3.6732,3.5367,3.3662,3.3142,3.2809,3.2597,3.2676,3.2254,3.1589,3.144,3.0976,3.0385,3.0385,0.0,0.0,0.0,0.0,3.3045,3.4962,3.7081,3.9412,4.1962,4.5471,4.9679,5.5033,5.6754,5.7968,6.1333,6.1949,6.2266,6.3956,6.4203,6.4127,6.4134,6.5383,6.6456,6.6568,6.7924,6.8918,6.8941,6.9105,6.9257,6.9268,6.9495,6.9617,6.9617,6.9617,6.9617,6.9617,6.9637,6.9717,6.9891,6.9948,7.0059,7.0229,7.0353,7.0443,7.0459,7.0616,7.0737,7.0737,7.0745,7.0798,7.099,7.1635,7.2425,7.3246,7.3967,7.4811,7.57,7.5708,7.5794,7.5887,7.5902,7.5955,7.6015,7.6015,7.6015,7.6015,0.0,0.0,0.0,0.0,0.0,0.0,0.0,0.0,0.0,0.0,2.3505,2.3505,2.3505,2.3658,2.4073,2.4878,2.5867,2.6854,2.7852,0.0,0.0,3.0917,3.1899,3.2437,3.253,3.2589,3.2987,3.3762,3.5431,3.7045,3.8536,4.0305,4.144,4.2016,4.1454,4.0214,3.8481,3.7604,3.586,3.3775,3.4395,3.3836,3.2601,3.2672,3.2237,3.1516,3.0816,3.0494,3.0385,3.0385,3.0385,0.0,0.0,0.0,3.2349,3.4769,3.6231,3.7751,4.0918,4.5725,5.0869,5.5296,5.6754,5.7968,6.1333,6.1949,6.2266,6.3956,6.4203,6.4346,6.5047,6.5859,6.6642,6.7341,6.8328,6.9027,6.9149,6.9278,6.9432,6.9536,6.961,6.9689,6.9689,6.9689,6.9689,6.9689,6.9805,6.9872,6.9891,7.014,7.0277,7.0378,7.0429,7.0524,7.0639,7.0736,7.0779,7.0779,7.0843,7.1255,7.1993,7.2101,7.253,7.3208,7.3323,7.4274,7.57,7.5848,7.5879,7.5895,7.597,7.6007,7.6015,7.6015,7.6015,7.6015,0.0,0.0,0.0,0.0,0.0,0.0,0.0,0.0,0.0,0.0,0.0,2.3641,2.3668,2.3696,2.408,2.4949,2.547,2.6403,2.7978,2.9354,3.0342,3.0875,3.1741,3.2241,3.2293,3.2359,3.2774,3.3663,3.5334,3.7275,3.9418,4.1556,4.2497,4.2407,4.2558,4.1389,3.9267,3.749,3.5837,3.4423,3.4359,3.3934,3.3444,3.3949,3.3698,3.2976,3.2641,3.2237,3.1734,3.1272,3.1118,3.1118,3.1,0.0,0.0,0.0,3.4615,3.6944,4.1191,4.5463,4.9651,5.3355,5.5352,5.7192,6.006,6.1271,6.2154,6.3383,6.3954,6.4336,6.4711,6.5795,6.6759,6.715,6.8329,6.9268,6.9422,6.9549,6.9707,6.9756,6.9901,6.9995,6.9995,6.9995,6.9995,6.9995,7.0086,7.0129,7.0173,7.0336,7.0467,7.0562,7.0639,7.0721,7.0801,7.0878,7.0932,7.0972,7.1506,7.1929,7.2268,7.2775,7.3367,7.4028,7.4028,7.4758,7.5872,7.5948,7.5963,7.5963,7.6,7.6015,7.6015,7.6015,7.6015,7.6015,0.0,0.0,0.0,0.0,0.0,0.0,0.0,0.0,0.0,0.0,0.0,2.4187,2.4416,0.0,0.0,0.0,2.5526,2.6462,2.8213,2.8994,2.978,3.0654,3.1341,3.1727,3.1763,3.1772,3.2291,3.3354,3.4837,3.7068,3.9938,4.2293,4.324,4.3051,4.3701,4.2721,4.042,3.8112,3.6478,3.5352,3.5173,3.5175,3.538,3.6243,3.622,3.5689,3.5304,3.4625,3.3699,3.2699,3.2352,3.216,3.108,3.1195,0.0,0.0,0.0,3.6429,4.0769,4.431,4.7609,5.1078,5.3639,5.5996,5.8672,6.0462,6.1835,6.2895,6.3741,6.4334,6.4334,6.5537,6.662,6.6852,6.8162,6.9166,6.9307,6.9692,6.992,6.9967,7.0123,7.022,7.022,7.0238,7.0255,7.0255,7.0302,7.0378,7.0405,7.0524,7.0662,7.0736,7.0822,7.0898,7.0952,7.1236,7.1364,7.1453,7.2308,7.2823,7.2996,7.3619,7.435,7.5043,7.4791,7.52,7.6015,7.6015,7.6015,7.6015,7.6015,7.6015,7.6015,7.6015,7.6015,7.6015,0.0,0.0,0.0,0.0,0.0,0.0,2.3779,2.3837,0.0,0.0,0.0,2.5392,2.6175,2.6397,2.6182,2.5466,2.6245,2.7275,2.8318,2.8498,2.8964,2.9837,2.9964,0.0,3.0036,3.0028,3.084,3.2478,3.3392,3.5926,3.9938,4.1649,4.3278,4.4762,4.4838,4.3926,4.2232,4.0523,3.8474,3.6447,3.8008,3.8678,3.8826,3.9772,4.0134,3.9953,3.8377,3.7234,3.6234,3.4625,3.4087,3.3779,3.216,3.1657,3.1695,0.0,0.0,0.0,3.8609,4.1695,4.5175,4.9213,5.1996,5.4534,5.7746,5.9632,6.1197,6.2802,6.379,6.4385,6.4385,6.5148,6.6024,6.6766,6.7723,6.8439,6.8632,6.9361,6.9967,7.0149,7.0255,7.0277,7.0277,7.0353,7.0402,7.0402,7.0437,7.0485,7.0493,7.0758,7.0885,7.0885,7.1018,7.1087,7.1087,7.1916,7.2347,7.2347,7.324,7.4044,7.4777,7.4816,7.5272,7.5968,7.5082,7.52,7.6015,7.6015,7.6015,7.6015,7.6015,7.6015,7.6015,7.6015,7.6015,7.6015,0.0,0.0,0.0,0.0,0.0,0.0,2.5512,2.5638,2.581,0.0,0.0,0.0,0.0,2.6703,2.6652,2.6437,2.6827,2.7467,2.8385,2.8537,2.8969,2.9817,2.9893,2.9914,2.9914,2.9888,3.0465,3.1644,3.3013,3.5287,3.8357,4.0588,4.2809,4.4974,4.4974,4.4341,4.323,4.1602,4.0393,3.9724,4.0926,4.1767,4.2506,4.3942,4.4546,4.4461,4.3323,4.204,4.0524,3.8291,3.6806,3.5473,3.3233,3.214,3.1695,3.1695,3.3074,3.5053,3.7038,3.9942,4.3138,4.6189,4.9093,5.1952,5.47,5.7347,5.9536,6.064,6.2353,6.37,6.37,6.4831,6.5897,6.6333,6.7146,6.777,6.7952,6.8815,6.9489,6.9556,7.0154,7.0562,7.0616,7.0647,7.0684,7.0729,7.0762,7.0805,7.0805,7.0965,7.103,7.103,7.1075,7.1124,7.1172,7.2063,7.2544,7.2544,7.3935,7.4723,7.4995,7.5536,7.5896,7.6097,7.5754,7.5757,7.6015,7.6015,7.6015,7.6015,7.6015,7.6015,7.6015,7.6015,7.6015,7.6015,0.0,2.6992,2.6829,2.6887,0.0,2.6602,2.6622,2.6745,2.6995,2.7556,0.0,0.0,0.0,0.0,2.8418,2.7983,2.7495,2.7591,2.8462,2.8596,2.8977,2.9864,2.9884,2.9893,2.9893,2.9893,3.0313,3.1189,3.2609,3.4595,3.706,3.9043,4.1358,4.3808,4.383,4.3993,4.4227,4.2862,4.2314,4.2422,4.3345,4.4614,4.6128,4.7852,4.8768,4.8964,4.8176,4.6974,4.5341,4.2525,4.0384,3.8466,3.5595,3.3326,3.1749,3.2009,3.2891,3.4115,3.5797,3.846,4.1302,4.3739,4.6795,4.9884,5.2594,5.5487,5.8014,5.9357,6.1187,6.2725,6.3337,6.4385,6.5291,6.5629,6.6458,6.7125,6.7267,6.8123,6.8868,6.9237,6.9888,7.0465,7.0784,7.0871,7.0919,7.0965,7.1037,7.1075,7.1075,7.1154,7.1207,7.1224,7.123,7.1407,7.1722,7.2612,7.3209,7.3518,7.4951,7.5575,7.5517,7.6097,7.6295,7.6165,7.6138,7.6069,7.6015,7.6015,7.6015,7.6015,7.6015,7.6015,7.6015,7.6015,7.6015,7.6015,2.8996,2.8445,2.8038,2.8081,2.7476,2.6975,2.7055,2.7121,2.7718,2.9354,0.0,0.0,0.0,0.0,0.0,3.0052,2.8386,2.7795,2.8624,2.8666,2.9061,2.9893,2.993,2.993,2.9968,2.9972,3.0389,3.1189,3.2075,3.3771,3.6245,3.7124,3.888,4.132,4.1418,4.2822,4.5158,4.4355,4.4082,4.4307,4.5223,4.717,4.9687,5.1385,5.2642,5.3458,5.2631,5.1802,5.053,4.7132,4.4851,4.2826,3.9271,3.5254,3.2013,3.275,3.301,3.3385,0.0,0.0,0.0,4.2049,4.518,4.851,5.1589,5.4185,5.6663,5.908,6.0387,6.1578,6.3263,6.3734,6.4076,6.4781,6.5728,6.6437,6.6651,6.7354,6.8227,6.9236,6.9502,6.9937,7.0796,7.0992,7.1106,7.1112,7.1178,7.1213,7.1213,7.1318,7.144,7.1489,7.1489,7.1921,7.2778,7.3588,7.4441,7.5299,7.6185,7.6581,7.6488,7.6488,7.6421,7.6301,7.6225,7.6118,7.6015,7.6015,7.6015,7.6015,7.6015,7.6015,7.6015,7.6015,7.6015,7.6015,3.0826,3.0843,3.0782,3.083,3.0666,3.0558,3.0574,3.065,3.0854,0.0,0.0,0.0,3.3127,3.3189,3.302,3.2586,3.1594,3.0822,3.0414,3.0436,3.0608,3.0844,3.0844,3.1109,3.172,3.1754,3.1619,3.1282,3.2163,3.327,3.459,3.5403,3.7163,3.9674,3.9693,4.0832,4.2842,4.3733,4.4513,4.5313,4.7472,4.9898,5.2419,5.4187,5.58,5.7078,5.6243,5.542,5.4289,5.1464,4.8952,4.6071,4.071,3.736,3.5296,3.4908,3.5245,3.5813,3.6231,0.0,0.0,0.0,0.0,0.0,4.8454,5.144,5.4165,5.6002,5.8517,6.0524,6.1004,6.2231,6.3413,6.4214,6.5029,6.5649,6.5825,6.6619,6.7326,6.7709,6.8918,6.9874,7.0218,7.0838,7.1275,7.1399,7.142,7.143,7.143,7.1455,7.148,7.1489,7.1489,7.1921,7.2778,7.3588,7.4441,7.5299,7.6185,7.6602,7.6586,7.6505,7.6444,7.6368,7.625,7.6145,7.6062,7.5998,7.6015,7.6015,7.6015,7.6015,7.6015,7.6015,7.6015,7.6015,3.1695,3.2167,3.2473,3.2537,3.2852,3.3125,3.3156,3.3207,3.3351,0.0,0.0,0.0,3.6154,3.5592,3.5181,3.5181,3.38,3.2716,3.2219,3.1896,3.1682,3.1682,3.1682,3.1918,3.2433,3.2463,3.2269,3.1853,3.2735,3.3424,3.396,3.4774,3.6203,3.8042,3.8042,3.9065,4.0893,4.2538,4.4342,4.63,4.8595,5.1288,5.4177,5.627,5.8183,5.9714,5.9622,5.9022,5.7997,5.5751,5.2345,4.8104,4.3156,4.0156,3.8372,3.7813,3.7741,0.0,3.8236,3.9273,4.0503,4.1332,0.0,0.0,4.7335,4.9851,5.2182,5.3855,5.6296,5.8377,5.9085,6.0429,6.1792,6.294,6.3509,6.4257,6.5458,6.6089,6.6632,6.7077,6.814,6.9135,6.9932,7.0527,7.1004,7.1489,7.1508,7.1532,7.1555,7.1555,7.1555,7.1555,7.1904,7.2486,7.3383,7.4198,7.5052,7.5905,7.6405,7.6628,7.6647,7.6612,7.6515,7.6432,7.6332,7.6231,7.6131,7.6055,7.6044,7.6015,7.6015,7.6015,7.6015,7.6015,7.6015,7.6015,0.0,3.2991,3.365,3.3778,3.4464,3.5049,3.5186,3.5239,3.5504,0.0,3.7316,3.8574,4.0273,3.8963,3.7945,3.7945,3.5709,3.4188,3.3998,3.316,3.2629,3.2553,3.2558,3.2622,3.2779,3.2797,3.2805,3.2771,3.3582,3.4006,3.4048,3.481,3.567,3.6587,3.6553,3.7595,3.9395,4.1058,4.3801,4.7171,4.8991,5.1826,5.5241,5.7803,5.9894,6.1554,6.2451,6.2265,6.1329,5.9548,5.5144,4.9792,4.64,4.3631,4.1605,4.1338,4.0665,0.0,4.0969,4.1663,0.0,0.0,4.4328,0.0,4.7233,4.8903,5.0626,5.2294,5.3984,5.5655,5.7313,5.8328,5.9453,6.1134,6.1409,6.2394,6.5134,6.5601,6.5961,6.6832,6.7226,6.8022,6.9567,6.9934,7.0418,7.1315,7.1511,7.1594,7.1598,7.1602,7.1602,7.1602,7.2452,7.3303,7.42,7.5059,7.591,7.6682,7.6682,7.6703,7.6701,7.6696,7.6642,7.6499,7.6432,7.6332,7.6198,7.6125,7.6048,7.6015,7.6015,7.6015,7.6015,7.6015,7.6015,7.6015,3.4766,3.5242,3.563,3.6313,3.6637,3.702,3.7667,3.7829,3.8164,3.9017,4.0467,4.2054,4.3733,4.2445,4.1421,4.1421,3.9158,3.7154,3.5784,3.4908,3.4112,3.3468,3.3508,3.3834,3.4489,3.4636,3.436,3.3731,3.396,3.4092,3.4089,3.4319,3.4898,3.575,3.5775,3.6793,3.8554,4.0298,4.3386,4.7371,4.9722,5.2787,5.6213,5.8821,6.0893,6.2528,6.3426,6.3613,6.3114,6.0681,5.725,5.3514,5.072,4.8515,0.0,4.5223,4.4656,4.4473,4.4673,4.4782,0.0,0.0,0.0,0.0,4.5969,4.7366,4.9106,5.0724,5.2394,5.3854,5.4913,5.5874,5.7022,5.8715,5.9034,6.014,6.3278,6.4289,6.4866,6.5246,6.6521,6.759,6.8002,6.8764,6.9589,7.0481,7.1193,7.1589,7.1602,7.1602,7.1602,7.1602,7.2452,7.3303,7.42,7.5059,7.591,7.6682,7.6682,7.6717,7.6708,7.671,7.6686,7.6657,7.6472,7.6356,7.6269,7.6152,7.6048,7.6015,7.6015,7.6015,7.6015,7.6015,7.6015,7.6015,3.5672,3.656,3.7299,3.7812,3.8601,3.9346,3.9785,4.0235,4.0819,4.169,4.3607,4.552,4.7195,4.5899,4.4926,4.4918,4.2274,4.0089,3.8867,3.7618,3.6516,3.568,3.5665,3.5697,3.5733,3.5802,3.5486,3.4711,3.4713,3.4787,3.4787,3.4828,3.5329,3.6135,3.6226,3.7474,3.9607,4.1368,4.4345,4.8102,5.0628,5.3751,5.718,6.0229,6.2217,6.3524,6.4846,6.4991,6.4213,6.1631,5.9336,5.7003,5.4019,5.2136,5.0755,0.0,4.8349,4.8288,4.8261,0.0,0.0,4.7011,0.0,0.0,0.0,4.6968,4.7824,4.8673,5.0207,5.1475,5.1942,5.2732,5.3908,5.5562,5.588,5.6748,5.9205,6.1757,6.3552,6.4073,6.4997,6.5954,6.6915,6.7446,6.828,6.9601,7.0561,7.1038,7.1038,7.1427,7.1661,7.1661,7.2516,7.3371,7.4227,7.5121,7.5977,7.6793,7.6793,7.6781,7.6756,7.6739,7.6742,7.6691,7.6542,7.6438,7.6344,7.6205,7.6104,7.6034,7.5991,7.6015,7.6015,7.6015,7.6015,7.6015,3.6147,3.738,3.8512,3.8801,4.0104,4.1181,4.1416,4.2255,4.3354,4.4724,4.6923,4.8945,5.0475,4.9451,4.8611,4.8504,4.5589,4.3297,4.2224,4.0591,3.9104,3.7918,3.7894,3.7544,3.6765,3.6629,3.6265,3.5636,3.5489,3.5437,3.5514,3.5672,3.6215,3.7067,3.7284,3.8842,4.143,4.3155,4.5902,4.9353,5.2071,5.4906,5.7903,6.1389,6.3259,6.4245,6.5987,6.6009,6.4884,6.2631,6.119,5.9823,5.6728,5.5126,0.0,0.0,0.0,5.1594,0.0,0.0,0.0,0.0,0.0,4.7353,0.0,0.0,0.0,4.708,4.8213,4.9184,4.9377,4.9954,5.096,5.2465,5.2704,5.3293,5.4941,5.8279,6.1039,6.2413,6.2965,6.3847,6.5493,6.6046,6.6842,6.8271,6.9398,7.008,7.0236,7.1014,7.152,7.1715,7.2535,7.343,7.4286,7.5142,7.6038,7.6897,7.6897,7.6879,7.6805,7.6797,7.6756,7.6719,7.6657,7.6526,7.6409,7.6276,7.6165,7.609,7.6044,7.6015,7.6015,7.6015,7.6015,7.6015,3.7155,3.7926,3.8801,3.952,4.0505,4.141,4.2141,4.3581,4.571,4.8787,5.0713,5.2212,5.3238,5.3207,5.2813,5.2152,4.9736,4.7291,4.4993,4.3277,4.1318,3.8939,3.8907,3.8512,3.7674,3.701,3.6627,3.6565,3.5825,3.5479,3.5522,3.6289,3.715,3.8063,3.8875,4.0666,4.3233,4.4941,4.7734,5.1203,5.4505,5.6568,5.7971,6.1472,6.3349,6.4315,6.5991,6.605,6.5121,6.4075,6.2613,6.0911,5.8965,5.7779,5.6703,5.495,0.0,0.0,0.0,0.0,0.0,0.0,4.995,0.0,0.0,0.0,4.6242,4.7049,0.0,4.7794,4.849,0.0,0.0,5.0035,5.0199,5.0784,5.24,5.3747,5.5718,5.8779,6.0531,6.188,6.2932,6.4492,6.551,6.5708,6.7259,6.8524,6.9302,7.0158,7.0975,7.1676,7.2535,7.343,7.4286,7.5142,7.6038,7.6897,7.6897,7.6894,7.6886,7.6809,7.6789,7.6773,7.6729,7.6622,7.6466,7.6344,7.6218,7.609,7.6044,7.6015,7.6015,7.6015,7.6015,7.6015,3.8072,3.872,3.9423,3.9786,4.1021,4.2236,4.3071,4.5884,4.8954,5.1843,5.3698,5.5247,5.6664,5.683,5.6723,5.6537,5.422,5.1968,5.0003,4.7857,4.5491,4.2883,4.2364,4.1255,3.9401,3.9045,3.8201,3.6741,3.6409,3.6016,3.5598,3.6464,3.762,3.9004,4.043,4.2773,4.58,4.8069,5.0739,5.3763,5.7189,5.9107,6.0136,6.2602,6.4707,6.6454,6.7681,6.7548,6.6679,6.5784,6.4685,6.3272,6.1058,6.0119,0.0,5.767,0.0,0.0,0.0,0.0,0.0,0.0,0.0,0.0,4.8284,0.0,4.7372,0.0,0.0,0.0,0.0,0.0,0.0,0.0,4.8365,4.8752,4.9892,5.0819,5.2654,5.5999,5.7536,5.8843,6.0257,6.2043,6.3291,6.3797,6.5477,6.6827,6.7684,6.9517,7.0728,7.1039,7.1857,7.2714,7.361,7.4467,7.5323,7.6219,7.6726,7.6946,7.6887,7.6869,7.6836,7.6789,7.6726,7.6638,7.6565,7.6415,7.6282,7.6145,7.6076,7.602,7.6015,7.6015,7.6015,7.6015,3.9,3.9494,3.9905,3.9938,4.1396,4.3144,4.4954,4.8406,5.1764,5.4311,5.6484,5.8394,5.995,6.0537,6.0799,6.0798,5.8664,5.6599,5.4796,5.2511,4.994,4.7088,4.6185,4.4556,4.1966,4.1231,3.9873,3.7885,3.7394,3.6881,3.6342,3.7212,3.8562,4.0322,4.2327,4.5134,4.8551,5.1408,5.396,5.648,5.9905,6.2063,6.3372,6.4424,6.6254,6.8358,6.8996,6.8825,6.8118,6.7259,6.6402,6.5274,6.3214,6.2405,6.1893,0.0,0.0,0.0,5.9102,0.0,0.0,0.0,0.0,0.0,0.0,0.0,0.0,0.0,4.7699,0.0,0.0,0.0,4.6644,4.7301,0.0,4.6802,4.7381,4.8018,4.9686,5.3038,5.4654,5.611,5.7609,5.9189,6.0472,6.1328,6.3019,6.4566,6.593,6.8465,7.0105,7.0572,7.1391,7.2206,7.3103,7.396,7.4856,7.5713,7.6571,7.6984,7.692,7.691,7.6873,7.6809,7.6764,7.669,7.6627,7.6477,7.635,7.6218,7.6131,7.6048,7.6015,7.6015,7.6015,7.6015,3.9962,4.0104,4.0101,4.0101,4.1482,4.4026,4.8205,5.1023,5.3626,5.6186,5.939,6.1823,6.2867,6.4408,6.5167,6.4657,6.302,6.0982,5.8583,5.6772,5.4272,5.0862,4.989,4.8201,4.5603,4.3134,4.1437,4.0553,3.8936,3.8159,3.8149,3.8997,4.04,4.2235,4.4755,4.782,5.1297,5.4719,5.7201,5.9155,6.2582,6.5517,6.772,6.6904,6.7722,6.9247,6.9284,6.9229,6.9047,6.8229,6.7334,6.6399,6.5542,6.4704,6.3823,6.2875,6.2001,6.1203,6.024,5.935,5.8291,5.6575,5.4823,5.3053,5.1419,4.9756,4.8571,0.0,0.0,0.0,4.8673,4.7938,4.7353,4.7392,4.5972,0.0,0.0,4.4937,4.6188,4.9565,5.223,5.4116,5.5045,5.6003,5.6895,5.7712,5.9438,6.1568,6.4062,6.667,6.8855,7.0533,7.1391,7.2206,7.3103,7.396,7.4856,7.5713,7.6571,7.6996,7.6996,7.6923,7.6887,7.689,7.6848,7.6743,7.6686,7.6531,7.6415,7.6282,7.6152,7.6048,7.6015,7.6015,7.6015,7.6015,4.1919,4.1982,4.1758,4.1112,4.2937,4.6084,5.091,5.3857,5.6627,5.9779,6.2657,6.5045,6.6574,6.8237,6.9242,6.9169,6.7565,6.6008,6.4722,6.1957,5.9073,5.6187,5.4656,5.243,4.927,4.7216,4.5255,4.3266,4.1028,3.9655,3.914,4.0023,4.1065,4.2345,4.6051,4.9355,5.2397,5.6407,5.9425,6.1868,6.5296,6.7912,6.9673,6.9401,6.9637,7.0222,7.0767,7.0606,7.0094,6.9801,6.9143,6.8254,6.743,6.6586,6.5728,6.4807,6.3941,6.3182,6.283,6.166,6.0158,5.8373,5.6634,5.4799,5.2538,5.2041,5.1897,5.1312,0.0,0.0,0.0,4.9692,4.8757,4.7589,4.6909,4.6115,0.0,4.479,4.544,4.716,4.9658,0.0,5.1647,5.3003,5.4466,5.5833,5.8123,6.0555,6.3166,6.5735,6.7959,6.9676,7.0572,7.1391,7.2245,7.3687,7.4544,7.4856,7.6298,7.6999,7.6999,7.6987,7.6923,7.6887,7.689,7.6789,7.6694,7.6588,7.6477,7.6356,7.6218,7.6118,7.6048,7.6037,7.6015,7.6015,4.3395,4.3644,4.3553,4.2608,4.5136,4.8757,5.3256,5.6434,5.9567,6.3007,6.5706,6.8013,6.9839,7.1274,7.2181,7.2323,7.1058,6.9918,6.9149,6.642,6.3843,6.1577,5.9502,5.6928,5.3809,5.1442,4.9012,4.6435,4.3883,4.2072,4.0967,4.1546,4.2116,4.2835,4.7177,5.0554,5.3314,5.7948,6.1391,6.4101,6.7842,7.0219,7.1508,7.1508,7.1313,7.1079,7.1625,7.1474,7.1056,7.1073,7.0511,6.9717,6.9195,6.8429,6.7537,6.6666,6.5803,6.505,6.4688,6.3563,6.2019,6.0241,5.8732,5.7117,5.4876,5.4531,5.4577,5.4019,5.3717,5.3332,0.0,5.1464,4.9975,4.8575,4.755,4.6372,0.0,4.4659,4.5048,4.5628,4.7676,0.0,0.0,5.0568,5.1907,5.3625,5.5868,5.8451,6.1373,6.4218,6.6712,6.8777,6.9988,7.1001,7.178,7.3531,7.4388,7.4427,7.6181,7.6999,7.6999,7.6999,7.6939,7.6904,7.6912,7.6856,7.6739,7.6648,7.6576,7.6421,7.6313,7.6198,7.6083,7.6005,7.6015,7.6015,4.452,4.5328,4.5722,4.4982,4.8154,5.2008,5.5427,5.8863,6.2326,6.5847,6.853,7.0816,7.267,7.3643,7.4227,7.4367,7.3518,7.2681,7.1913,7.0166,6.8472,6.6807,6.4286,6.1705,5.9072,5.5624,5.2601,5.0077,4.7389,4.5187,4.3521,4.3569,4.359,4.3747,4.8134,5.1465,5.4134,5.9314,6.3105,6.6008,7.018,7.2401,7.3142,7.3142,7.2635,7.1858,7.1819,7.1835,7.1897,7.1899,7.1398,7.0777,7.0778,7.0171,6.9285,6.8458,6.7597,6.6733,6.5928,6.501,6.39,6.2208,6.1097,5.9986,5.8232,5.718,5.6601,5.662,5.5981,5.5387,5.5289,5.3208,5.1166,5.0231,4.7893,4.5592,4.3913,4.4384,4.4894,4.4894,0.0,0.0,0.0,4.8624,4.9376,5.1096,5.2905,5.5372,5.8804,6.2192,6.5268,6.7917,6.9634,7.0923,7.178,7.3531,7.4388,7.4427,7.6181,7.6999,7.6999,7.6999,7.6981,7.6907,7.6915,7.6875,7.6789,7.6738,7.6637,7.6488,7.6426,7.6282,7.6083,7.6005,7.6015,7.6015,4.7952,4.9808,5.1774,5.3413,5.4105,5.556,5.9051,6.1957,6.5049,6.8529,7.1285,7.3633,7.5489,7.7006,7.7946,7.8043,7.6643,7.5676,7.5494,7.3238,7.1426,7.0342,6.8466,6.6221,6.3652,5.961,5.6281,5.3741,4.9236,4.6479,4.539,4.4777,4.4481,4.4731,4.9058,5.2033,5.4193,5.9377,6.4564,6.9481,7.1817,7.3297,7.4077,7.4077,7.3531,7.2674,7.2011,7.1835,7.1901,7.1899,7.1811,7.168,7.1666,7.1087,7.0308,7.0112,6.9408,6.8665,6.846,6.7278,6.5864,6.477,6.3355,6.1778,6.009,5.9541,5.9186,5.8551,5.8232,5.7684,5.6402,5.5101,5.349,0.0,0.0,0.0,0.0,0.0,0.0,4.4894,0.0,4.659,4.6824,4.7412,4.8507,5.0221,5.2563,5.5372,5.8804,6.1685,6.4683,6.7917,6.905,7.0339,7.178,7.3531,7.4388,7.4427,7.6181,7.6999,7.6999,7.6999,7.6993,7.6984,7.691,7.6876,7.6875,7.6747,7.6671,7.6642,7.646,7.6282,7.6083,7.6005,7.6015,7.6015,5.0971,5.3703,5.6676,5.8869,6.0063,6.1279,6.2921,6.5396,6.8198,7.1332,7.3752,7.5711,7.7108,7.8517,7.9373,7.9402,7.8485,7.7953,7.7953,7.5868,7.4413,7.3951,7.1929,6.9802,6.7606,6.3716,0.0,5.6778,5.1952,4.8606,4.6662,4.5814,4.5241,4.5099,4.9391,5.2282,5.4357,6.0981,6.6439,7.0767,7.283,7.4194,0.0,7.499,7.4642,7.4138,7.3293,7.2525,7.1881,7.1924,7.199,7.2008,7.1986,7.1678,7.1171,7.0819,7.0351,6.9882,6.9489,6.8665,6.7645,6.6436,6.5376,6.4196,6.2473,6.208,6.1961,6.1485,6.0771,5.9824,5.8461,5.6875,5.478,0.0,0.0,0.0,0.0,0.0,0.0,0.0,4.6451,4.6451,4.571,4.6412,4.7308,4.828,5.0735,5.3541,5.6619,5.9581,6.2776,6.6203,6.7881,6.9557,7.1274,7.3336,7.4388,7.4427,7.6181,7.6999,7.6999,7.6999,7.6999,7.6996,7.6923,7.6887,7.689,7.6785,7.6717,7.6682,7.6472,7.6319,7.6179,7.6069,7.6044,7.6015,5.429,5.7599,6.0937,6.275,6.5735,6.7764,6.7365,6.9121,7.1472,7.4179,7.5973,7.7375,7.8236,7.9183,7.9722,7.9722,7.9645,7.959,7.959,7.8107,7.7247,7.7247,7.4835,7.2737,7.107,6.7489,6.3522,5.9243,5.4959,5.1106,4.7722,4.6806,4.5957,4.5414,4.9481,5.2643,5.5448,6.3358,6.8271,7.0962,7.342,7.4979,7.5878,7.5871,7.5806,7.5615,7.4938,7.354,7.2063,7.2136,7.2084,7.1983,7.1989,7.1991,7.1836,7.1094,7.0859,7.0703,6.9961,6.9648,6.9217,6.7772,6.7223,6.6633,6.4991,6.4562,6.4444,6.4325,6.2987,6.161,6.0711,5.8336,5.5404,0.0,0.0,0.0,0.0,0.0,0.0,0.0,0.0,0.0,4.5089,4.5593,4.6061,4.6178,4.8475,5.1047,5.3734,5.7126,6.0555,6.3984,6.6631,6.8855,7.0572,7.3142,7.4388,7.4427,7.6181,7.6999,7.6999,7.6999,7.6999,7.6996,7.6927,7.6897,7.6901,7.686,7.6786,7.6682,7.6494,7.638,7.6301,7.6159,7.6062,7.6029,6.0052,6.2914,6.5421,6.7233,6.985,7.2104,7.3391,7.338,7.4198,7.6866,7.8127,7.9117,8.0057,8.0997,8.1551,8.1551,8.0932,8.0568,8.0568,7.9562,7.896,7.896,7.7209,7.5433,7.3747,6.9619,6.5386,6.1128,5.684,5.2944,4.9518,4.8002,4.7186,4.7186,5.0032,5.4632,6.0516,6.4878,6.8582,7.1741,7.3639,7.5362,7.6768,7.6756,7.6347,7.5741,7.5604,7.4439,7.2995,7.3053,7.2603,7.1989,7.1992,7.1992,7.1953,7.1836,7.1758,7.1758,7.1601,7.1015,7.039,7.0117,6.8984,6.7694,6.6673,6.5893,6.5151,6.4437,6.35,6.2524,6.1619,5.874,5.5576,5.2807,5.2136,0.0,0.0,0.0,0.0,0.0,0.0,4.6801,4.5089,4.505,4.5438,4.6139,4.7932,5.0424,5.3734,5.7126,6.0555,6.3984,6.6631,6.8855,7.0572,7.3142,7.4388,7.4427,7.6181,7.6999,7.6999,7.6999,7.6999,7.6999,7.6993,7.693,7.6897,7.6901,7.6816,7.6686,7.6612,7.6483,7.6368,7.6231,7.6131,7.6062,6.5644,6.7938,6.9805,7.1229,7.3948,7.6441,7.7787,7.8409,7.8865,7.918,8.0408,8.1403,8.1854,8.2716,8.3314,8.3314,8.2592,8.2159,8.2159,8.0896,8.0146,8.0146,7.8939,7.7465,7.5806,7.2378,6.8294,6.3556,5.9269,5.5178,5.132,4.9605,4.8787,4.8984,5.2892,5.7769,6.3187,6.6592,6.9794,7.2681,7.4411,7.5905,7.7047,7.7069,7.6816,7.6481,7.6456,7.5682,7.4553,7.4128,7.3392,7.2654,7.2656,7.2344,7.1992,7.1992,7.1992,7.1992,7.1992,7.168,7.1289,7.082,7.0077,6.9139,6.7804,6.7219,6.6673,6.5811,6.4952,6.3816,6.2045,5.8856,5.609,5.4812,5.3861,0.0,0.0,0.0,0.0,0.0,0.0,0.0,0.0,4.5166,4.5089,4.5477,4.6724,4.8943,5.237,5.5411,5.8802,6.2698,6.5735,6.8154,6.991,7.2908,7.4388,7.4427,7.6181,7.6999,7.6999,7.6999,7.6999,7.6999,7.6999,7.6978,7.6904,7.6847,7.6828,7.676,7.6686,7.6591,7.6432,7.6344,7.6218,7.6083,7.0733,7.2629,7.417,7.5013,7.7841,8.0334,8.1294,8.294,8.3412,8.1616,8.2567,8.3402,8.3402,8.406,8.4537,8.4537,8.4016,8.3666,8.3666,8.2221,8.1361,8.1361,8.0347,7.8984,7.7311,7.47,7.0959,6.593,6.1841,5.7633,5.3385,5.1826,5.1283,5.1875,5.6537,6.0915,6.4975,6.8189,7.1086,7.3626,7.5387,7.6489,7.7128,7.7301,7.7276,7.713,7.7137,7.6713,7.6053,7.5389,7.4451,7.3592,7.3594,7.2969,7.2265,7.2265,7.2148,7.1992,7.1992,7.1992,7.1836,7.1131,7.0857,7.0308,6.8737,6.8228,6.7879,6.7062,6.6045,6.4594,6.2155,5.9281,5.7262,5.7047,5.5738,5.463,0.0,0.0,0.0,0.0,0.0,0.0,4.6646,4.5515,4.4972,4.5166,4.5827,4.7698,5.1125,5.3773,5.7163,6.1451,6.4917,6.753,6.9286,7.2674,7.4388,7.4427,7.6181,7.6999,7.6999,7.6999,7.6999,7.6999,7.6999,7.6978,7.6904,7.6844,7.6809,7.6785,7.6756,7.6662,7.6515,7.6449,7.6307,7.6131,7.4751,7.6861,7.8621,7.8863,8.1123,8.3208,8.4076,8.5708,8.6195,8.4435,8.4353,8.447,8.447,8.4552,8.4582,8.4582,8.4578,8.4562,8.4562,8.3705,8.3159,8.3159,8.1555,7.988,7.8204,7.5635,7.2128,6.7761,6.4257,6.0321,5.6115,5.5178,5.5578,5.7198,5.999,6.321,6.6736,6.9349,7.1972,7.4525,7.6295,7.7041,7.7199,7.7991,7.7842,7.7183,7.7184,7.7147,7.707,7.6992,7.5859,7.4492,7.4492,7.3867,7.3164,7.3164,7.2617,7.1992,7.1992,7.1992,7.1992,7.1912,7.1287,7.0463,6.9501,6.8681,6.7866,6.6999,6.5559,6.3843,6.2037,6.0801,5.9758,5.8917,5.7961,5.7089,5.6349,0.0,5.3149,5.1515,0.0,0.0,4.7464,4.5866,4.5244,4.6022,4.6139,4.7698,5.1125,5.3773,5.7163,6.1451,6.4917,6.753,6.9286,7.2674,7.4388,7.4427,7.6181,7.6999,7.6999,7.6999,7.6999,7.6999,7.6999,7.6978,7.6907,7.69,7.6858,7.6793,7.6785,7.6764,7.6667,7.656,7.6397,7.6263,7.9224,8.0563,8.187,8.2482,8.429,8.5978,8.6852,8.8047,8.8572,8.7858,8.7701,8.7443,8.6933,8.6935,8.6724,8.6218,8.5747,8.5494,8.5494,8.4676,8.3939,8.3432,8.2727,8.1558,7.9841,7.7776,7.4904,7.1139,6.8179,6.4562,6.0329,5.9432,5.9677,6.0983,6.4123,6.6872,6.9305,7.1886,7.4194,7.6151,7.7405,7.819,7.8702,7.9056,7.8982,7.8632,7.8163,7.7968,7.789,7.7383,7.6406,7.539,7.539,7.4765,7.4062,7.4062,7.3476,7.2773,7.2773,7.2383,7.1992,7.1987,7.1747,7.1231,7.0381,6.9473,6.8574,6.7757,6.6207,6.4656,6.3488,6.2095,6.0854,5.9989,5.9061,5.818,5.7323,0.0,0.0,5.3071,0.0,0.0,0.0,4.7932,4.7386,4.7737,4.6801,4.7698,5.1125,5.3773,5.7163,6.1451,6.4917,6.753,6.9286,7.2674,7.4388,7.4427,7.6181,7.6999,7.6999,7.6999,7.6999,7.6999,7.6999,7.699,7.6975,7.6917,7.689,7.6858,7.6813,7.6756,7.6685,7.6578,7.6466,7.6344,8.3376,8.4267,8.5081,8.5777,8.7112,8.8365,8.9232,8.9883,9.0376,9.0642,9.0573,9.0075,8.8959,8.8863,8.8562,8.7691,8.7092,8.664,8.6407,8.5549,8.4815,8.42,8.3927,8.2992,8.1235,7.9792,7.7386,7.3975,7.1599,6.8529,6.4799,6.3915,6.4124,6.531,6.8016,7.0369,7.2369,7.4483,7.6321,7.7924,7.8823,7.9371,7.9725,7.9998,7.9921,7.9648,7.9062,7.8711,7.8398,7.7773,7.6992,7.6289,7.6289,7.5664,7.4961,7.4961,7.4375,7.3672,7.3672,7.3047,7.2382,7.2374,7.2207,7.1761,7.087,6.9949,6.9003,6.7924,6.6535,6.534,6.4764,6.3177,6.1783,6.1237,6.0155,5.9077,5.8219,5.7167,0.0,5.4123,5.237,5.0969,5.0073,4.9255,4.8904,4.9138,4.8243,4.8865,5.1554,5.3929,5.7163,6.1451,6.4917,6.753,6.9286,7.2674,7.4388,7.4427,7.6181,7.6999,7.6999,7.6999,7.6999,7.6999,7.6999,7.6999,7.6996,7.6933,7.6917,7.69,7.684,7.6785,7.673,7.6905,7.6914,7.6802,8.7073,8.8,8.8644,8.8644,8.9395,9.0257,9.1064,9.1178,9.1486,9.2369,9.2482,9.1802,9.0077,8.9876,8.9512,8.8665,8.8584,8.8194,8.7339,8.6482,8.5986,8.5973,8.5195,8.3986,8.2231,8.1334,7.919,7.576,7.4006,7.1821,6.9288,6.8427,6.8954,7.0644,7.1549,7.3391,7.5896,7.6794,7.8124,7.9726,8.0625,8.0469,7.9805,8.0664,8.0469,7.9687,7.9687,7.918,7.8515,7.8476,7.789,7.7187,7.7187,7.6601,7.5898,7.5898,7.5273,7.457,7.457,7.3945,7.3278,7.3271,7.2631,7.1746,7.0811,6.9926,6.8819,6.7062,6.6065,6.5494,6.5494,6.4072,6.2888,6.2888,6.1428,5.9973,5.9116,5.7557,0.0,5.4123,5.237,5.0969,5.0073,4.9255,4.9138,4.9917,5.0774,5.163,5.2526,5.424,5.7163,6.1451,6.4917,6.753,6.9286,7.2674,7.4388,7.4427,7.6181,7.6999,7.6999,7.6999,7.6999,7.6999,7.6999,7.6999,7.6999,7.6996,7.6978,7.6904,7.6908,7.6871,7.6898,7.7617,7.7785,7.7799,8.9075,8.9398,8.9757,9.0382,9.0696,9.1165,9.2022,9.2134,9.2246,9.2516,9.2554,9.2356,9.18,9.1181,9.0449,8.9543,8.9486,8.9122,8.8228,8.7916,8.7255,8.6054,8.5742,8.5117,8.3988,8.2522,8.0977,7.9351,7.7607,7.5746,7.3842,7.3536,7.3699,7.4291,7.5738,7.6834,7.7734,7.8554,7.957,8.0625,8.0898,8.1172,8.1484,8.1797,8.1719,8.1406,8.0781,8.0429,8.0117,7.9531,7.914,7.8828,7.8242,7.75,7.6797,7.6797,7.6172,7.5508,7.5508,7.4843,7.4058,7.3467,7.3054,7.2589,7.1704,7.0344,6.8953,6.7837,6.691,6.6139,6.5607,6.454,6.3592,6.3005,6.1935,6.0672,5.9194,5.8531,5.736,5.5059,5.4318,5.3617,5.2721,5.2448,5.2643,5.3461,5.3812,5.4084,5.4357,5.6541,5.9464,6.3205,6.6086,6.8699,7.0962,7.3258,7.47,7.5285,7.6454,7.6999,7.6999,7.6999,7.6999,7.6999,7.6999,7.6999,7.6999,7.6999,7.6993,7.7017,7.7572,7.7768,7.7793,7.8565,7.8802,7.8721,9.0893,9.0974,9.1131,9.1678,9.1795,9.1952,9.2537,9.2613,9.2611,9.2611,9.2611,9.2611,9.2611,9.2086,9.136,9.0488,9.0397,9.0038,8.9179,8.8828,8.8168,8.7044,8.6693,8.6146,8.5326,8.4206,8.3124,8.196,8.0211,7.8657,7.7337,7.7337,7.7339,7.7382,7.8436,7.9101,7.9453,7.9961,8.0703,8.1484,8.1484,8.1797,8.2304,8.2304,8.2304,8.2226,8.1679,8.1289,8.0937,8.0351,7.9961,7.9609,7.9101,7.8594,7.8008,7.7383,7.6797,7.6406,7.6406,7.5741,7.4954,7.436,7.3708,7.2881,7.1679,7.0557,6.9448,6.8252,6.7553,6.6934,6.6089,6.4952,6.3969,6.3421,6.2357,6.0984,5.9232,5.8999,5.818,5.5957,5.5684,5.5489,5.4944,5.4866,5.5217,5.6074,5.6425,5.689,5.7552,5.8802,6.1062,6.4488,6.7102,6.9557,7.178,7.3843,7.5168,7.5713,7.6571,7.6999,7.6999,7.6999,7.6999,7.6999,7.6999,7.6999,7.6999,7.6999,7.7194,7.7542,7.8017,7.837,7.8672,7.9498,7.9742,7.9703,9.2422,9.2617,9.2617,9.2617,9.2617,9.2617,9.2617,9.2617,9.2617,9.2617,9.2617,9.2617,9.2617,9.2616,9.2259,9.1383,9.1302,9.0949,9.0128,8.9347,8.8844,8.8698,8.7917,8.7096,8.6198,8.6159,8.5301,8.37,8.1982,8.0775,7.9958,7.9919,7.9881,7.9883,7.9883,8.0312,8.1094,8.1094,8.1562,8.2304,8.2304,8.2304,8.2304,8.2304,8.2304,8.2304,8.2304,8.1797,8.1094,8.1094,8.0547,7.9883,7.9805,7.9805,7.9453,7.7773,7.7305,7.7265,7.7226,7.6599,7.5963,7.5835,7.4474,7.2778,7.1131,7.0689,7.0144,6.8502,6.8073,6.7761,6.6943,6.5307,6.4099,6.4099,6.2698,6.1023,5.9349,5.9077,5.8492,5.6858,5.6741,5.678,5.678,5.6819,5.7206,5.7985,5.8804,6.0051,6.1841,6.1179,6.2231,6.5462,6.8117,7.0261,7.1973,7.4466,7.5713,7.5791,7.661,7.6999,7.6999,7.6999,7.6999,7.6999,7.6999,7.6999,7.6999,7.7077,7.7584,7.8321,7.8371,7.8844,7.9582,8.0391,8.0668,8.0699,9.2578,9.2617,9.2617,9.2617,9.2617,9.2617,9.2617,9.2617,9.2617,9.2617,9.2617,9.2617,9.2617,9.2617,9.2499,9.2303,9.2256,9.1897,9.1037,9.0803,9.0101,8.8776,8.8503,8.7995,8.7096,8.6477,8.5661,8.4609,8.3515,8.289,8.2656,8.1992,8.1679,8.1679,8.1679,8.1797,8.1992,8.1992,8.2109,8.2304,8.2304,8.2304,8.2304,8.2304,8.2304,8.2304,8.2304,8.2187,8.1992,8.1992,8.1875,8.1562,8.0898,8.0703,8.0351,7.8672,7.8203,7.8047,7.7383,7.7028,7.6666,7.5954,7.4503,7.3066,7.2604,7.1508,7.0494,7.0066,6.8933,6.7956,6.7722,6.5735,6.4099,6.4099,6.2698,6.1218,6.0129,5.9973,5.9583,5.8531,5.8999,5.9388,5.9388,6.0012,6.075,6.1607,6.1841,6.301,6.5385,6.5307,6.5852,6.7333,6.9868,7.2053,7.3765,7.5051,7.6025,7.6688,7.6882,7.6999,7.6999,7.6999,7.6999,7.6999,7.6999,7.6999,7.7038,7.774,7.8126,7.8438,7.9679,8.0315,8.0553,8.1364,8.1617,8.1575,9.2617,9.2617,9.2617,9.2617,9.2617,9.2617,9.2617,9.2617,9.2617,9.2617,9.2617,9.2617,9.2617,9.2617,9.2617,9.2617,9.2615,9.2418,9.1949,9.1519,9.0894,8.9918,8.9137,8.8473,8.8004,8.7224,8.6367,8.5508,8.5039,8.457,8.4179,8.3281,8.289,8.289,8.2461,8.2304,8.2304,8.2304,8.2304,8.2304,8.2304,8.2304,8.2304,8.2304,8.2304,8.2304,8.2304,8.2304,8.2304,8.2304,8.2304,8.2226,8.1758,8.1601,8.1328,8.0039,7.9101,7.8398,7.793,7.7458,7.6898,7.601,7.5055,7.4213,7.3807,7.2674,7.1625,7.1235,7.0102,6.8933,6.8151,6.6515,6.5034,6.4216,6.3049,6.1763,6.0477,6.0285,6.0282,6.0207,6.0594,6.1218,6.1958,6.2465,6.3088,6.3984,6.4413,6.5424,6.7216,6.8385,6.9245,6.9712,7.1466,7.3219,7.4973,7.5869,7.6532,7.6999,7.6999,7.6999,7.6999,7.6999,7.6999,7.7038,7.7428,7.7584,7.7662,7.8516,7.9062,7.9529,8.0425,8.1026,8.1385,8.1853,8.1972,8.1951,9.2812,9.289,9.3008,9.3008,9.3008,9.3008,9.3008,9.289,9.2812,9.2812,9.2695,9.2617,9.2617,9.2617,9.2617,9.2617,9.2617,9.2617,9.2617,9.1914,9.1445,9.1328,8.9883,8.9023,8.8906,8.8086,8.7265,8.6406,8.625,8.582,8.5078,8.4219,8.3789,8.375,8.3008,8.2617,8.25,8.25,8.2422,8.2304,8.2304,8.2304,8.2304,8.2304,8.2304,8.2304,8.2304,8.2304,8.2304,8.2304,8.2304,8.2304,8.2304,8.2304,8.2148,8.1406,8.0117,7.8828,7.8555,7.7809,7.6932,7.617,7.584,7.5524,7.4778,7.3921,7.3064,7.2167,7.1352,7.03,6.8697,6.7489,6.6203,6.4722,6.3595,6.2426,6.1062,6.075,6.1062,6.2075,6.2309,6.2971,6.4527,6.4803,6.5192,6.5933,6.667,6.7528,6.8502,7.0609,7.1973,7.2362,7.3103,7.4272,7.5869,7.6649,7.6999,7.6999,7.7116,7.7194,7.7194,7.7311,7.7389,7.7428,7.8165,7.8477,7.8555,7.9373,8.0114,8.0815,8.0932,8.1422,8.2019,8.2019,8.1994,8.1999,9.3711,9.4297,9.4804,9.4804,9.4804,9.4804,9.4804,9.4179,9.3711,9.3711,9.3047,9.2617,9.2617,9.2617,9.2617,9.2617,9.2617,9.2617,9.2617,9.2461,9.207,9.1328,9.1054,9.0547,8.9804,8.8945,8.8125,8.7304,8.6562,8.6133,8.5976,8.5117,8.4687,8.4687,8.457,8.4101,8.3398,8.3398,8.2969,8.2304,8.2304,8.2304,8.2304,8.2304,8.2304,8.2304,8.2304,8.2304,8.2304,8.2304,8.2304,8.2304,8.2304,8.2304,8.2265,8.2148,8.1406,8.0312,7.8867,7.7807,7.7038,7.6866,7.6244,7.5668,7.5524,7.4817,7.396,7.3064,7.2206,7.1313,7.0378,6.8271,6.6592,6.6359,6.4374,6.3049,6.3439,6.2932,6.3088,6.4644,6.5462,6.6281,6.7294,6.8076,6.8546,6.8663,6.8819,6.9559,7.1115,7.1583,7.2791,7.5012,7.5246,7.5791,7.6804,7.6921,7.6999,7.6999,7.774,7.8087,7.8126,7.8789,7.91,7.91,7.9256,7.9295,7.9373,8.0231,8.0698,8.0854,8.1597,8.1987,8.2098,8.2098,8.2036,8.2001,9.4492,9.4922,9.5195,9.5195,9.5195,9.5195,9.5195,9.4453,9.3906,9.3906,9.3125,9.2617,9.2617,9.2617,9.2617,9.2617,9.2617,9.2617,9.2617,9.2617,9.2422,9.2031,9.1562,9.0898,9.0039,8.9609,8.8984,8.8164,8.7734,8.7304,8.6875,8.6015,8.5586,8.5586,8.5117,8.4687,8.4258,8.3789,8.3359,8.2969,8.25,8.2304,8.2304,8.2304,8.2304,8.2304,8.2304,8.2304,8.2304,8.2304,8.2304,8.2304,8.2304,8.2304,8.2304,8.2304,8.1679,8.0625,7.8904,7.8114,7.766,7.7139,7.6715,7.6414,7.6382,7.5713,7.4973,7.4583,7.3804,7.2791,7.1508,7.0258,6.8855,6.6982,6.5696,6.4761,6.4177,6.4179,6.4722,6.593,6.6865,6.7722,6.8621,6.9053,6.9676,7.0572,7.065,7.1391,7.3103,7.3648,7.4466,7.5674,7.6142,7.661,7.6999,7.7467,7.7701,7.7701,7.8555,7.8945,7.8945,7.9334,7.949,7.9529,7.9997,8.0192,8.0269,8.113,8.1481,8.1558,8.1951,8.2107,8.2107,8.2107,8.2095,8.2043,9.5351,9.5664,9.5781,9.5781,9.5781,9.5781,9.5781,9.5039,9.4414,9.4219,9.3437,9.2812,9.2617,9.2617,9.2617,9.2617,9.2617,9.2617,9.2617,9.2617,9.2617,9.2617,9.1953,9.1172,9.0312,9.0312,8.9883,8.8984,8.8789,8.8398,8.7773,8.6914,8.6484,8.6484,8.5781,8.539,8.5156,8.4492,8.4101,8.3828,8.3164,8.2773,8.2617,8.2617,8.2461,8.2304,8.2304,8.2304,8.2304,8.2304,8.2304,8.2304,8.2304,8.2304,8.2304,8.2304,8.1836,8.0937,7.917,7.8533,7.8203,7.7489,7.7297,7.723,7.7044,7.6493,7.5947,7.5752,7.5168,7.4233,7.2674,7.205,7.092,6.831,6.7372,6.6592,6.5465,6.5696,6.6476,6.7722,6.8463,6.9323,7.0378,7.0494,7.1001,7.2323,7.2401,7.3064,7.4622,7.5324,7.5908,7.6298,7.696,7.7311,7.7311,7.8165,7.8594,7.8594,7.9412,7.9802,7.9802,7.9997,8.0117,8.0153,8.0815,8.1088,8.1166,8.1831,8.2107,8.2107,8.2107,8.2107,8.2107,8.2107,8.2107,8.2107,9.6406,9.6992,9.7539,9.7539,9.7539,9.7539,9.7539,9.6836,9.6015,9.5195,9.4336,9.3515,9.2695,9.2617,9.2617,9.2617,9.2617,9.2617,9.2617,9.2617,9.2617,9.2617,9.2539,9.2109,9.1211,9.1211,9.0781,8.9883,8.9101,8.8672,8.8594,8.7773,8.7383,8.7383,8.7344,8.6875,8.6094,8.6054,8.5547,8.4804,8.4726,8.4219,8.3515,8.3515,8.3008,8.2304,8.2304,8.2304,8.2304,8.2304,8.2304,8.2304,8.2304,8.2304,8.2304,8.2304,8.2265,8.1831,8.0097,7.9027,7.8382,7.8224,7.8194,7.7971,7.7161,7.696,7.6688,7.5869,7.5635,7.5324,7.4388,7.2908,7.1702,7.1466,6.944,6.8151,6.8819,6.8271,6.8697,7.1154,7.1466,7.2167,7.3843,7.4038,7.4077,7.4194,7.4194,7.4622,7.5558,7.5674,7.6454,7.8048,7.8165,7.8204,7.8204,7.9023,7.9412,7.9412,8.0308,8.0698,8.0737,8.1558,8.1912,8.1912,8.199,8.199,8.2029,8.2068,8.2107,8.2107,8.2107,8.2107,8.2107,8.2107,8.2107,8.2107,9.7148,9.75,9.7695,9.7695,9.7695,9.7695,9.7695,9.7031,9.6172,9.5312,9.4453,9.3554,9.2695,9.2617,9.2617,9.2617,9.2617,9.2617,9.2617,9.2617,9.2617,9.2617,9.2617,9.2461,9.2109,9.2109,9.1679,9.082,9.0469,9.0039,8.9492,8.8633,8.8242,8.8203,8.7734,8.7304,8.6953,8.6445,8.6015,8.5664,8.5117,8.4687,8.4412,8.4412,8.4216,8.3823,8.3318,8.3123,8.3006,8.2461,8.2304,8.2304,8.2304,8.2304,8.2187,8.1637,8.1472,8.1339,8.0655,8.0221,7.9862,7.9259,7.9118,7.8868,7.8018,7.7818,7.7545,7.6688,7.6493,7.6259,7.5363,7.4661,7.3843,7.2791,7.1778,7.1076,7.0884,7.1037,7.1505,7.2479,7.3064,7.3687,7.435,7.4388,7.4622,7.5168,7.5207,7.5596,7.6454,7.7038,7.7854,7.9023,7.9568,7.9607,7.9062,7.988,8.0308,8.0308,8.1208,8.1597,8.1636,8.1951,8.2107,8.2107,8.2107,8.2107,8.2107,8.2107,8.2107,8.2107,8.2107,8.2107,8.2107,8.2107,8.2107,8.2107,9.7578,9.7695,9.7695,9.7695,9.7695,9.7695,9.7695,9.7226,9.6562,9.5703,9.5078,9.4297,9.3125,9.3008,9.289,9.2617,9.2617,9.2617,9.2617,9.2617,9.2617,9.2617,9.2617,9.2617,9.2617,9.2617,9.2304,9.1719,9.1445,9.0976,9.039,8.9531,8.8945,8.8672,8.8125,8.7734,8.7461,8.6875,8.6601,8.6562,8.5937,8.5545,8.5308,8.5268,8.5108,8.4831,8.4211,8.4018,8.3903,8.3319,8.2929,8.2695,8.2695,8.2539,8.2186,8.1551,8.1376,8.135,8.1319,8.1321,8.1126,8.0217,7.9998,7.9751,7.8873,7.8672,7.8516,7.7893,7.7584,7.7233,7.6649,7.6064,7.5324,7.4116,7.3687,7.3297,7.2713,7.3142,7.3609,7.3882,7.4427,7.4934,7.5207,7.5207,7.548,7.6064,7.6376,7.6882,7.7737,7.836,7.9062,7.988,8.0503,8.062,8.0312,8.0896,8.1208,8.1208,8.1792,8.2107,8.2107,8.2107,8.2107,8.2107,8.2107,8.2107,8.2107,8.2107,8.2107,8.2107,8.2107,8.2107,8.2107,8.2107,8.2107,8.2107,9.7695,9.7695,9.7695,9.7695,9.7695,9.7695,9.7695,9.7695,9.7422,9.6601,9.6484,9.5859,9.4101,9.3906,9.3554,9.2695,9.2617,9.2617,9.2617,9.2617,9.2617,9.2617,9.2617,9.2617,9.2617,9.2617,9.2617,9.2617,9.1719,9.1328,9.1289,9.0429,8.9531,8.8711,8.8711,8.8242,8.75,8.75,8.75,8.75,8.742,8.691,8.6207,8.6123,8.5612,8.4908,8.4908,8.4913,8.4918,8.4918,8.4334,8.3594,8.3594,8.3007,8.23,8.2244,8.2226,8.2202,8.2136,8.2112,8.1917,8.1101,8.0842,8.0581,7.9724,7.9529,7.9529,7.949,7.8867,7.8321,7.8321,7.6882,7.5713,7.5713,7.5012,7.4427,7.4427,7.4427,7.4778,7.5635,7.5713,7.6064,7.696,7.7038,7.7038,7.7038,7.7818,7.8672,7.9451,7.9529,7.9919,8.0776,8.0815,8.1247,8.2107,8.2107,8.2107,8.2107,8.2107,8.2107,8.2107,8.2107,8.2107,8.2107,8.2107,8.2107,8.2107,8.2107,8.2107,8.2107,8.2107,8.2107,8.2107,8.2107,8.2107,8.2107,9.7695,9.7695,9.7695,9.7695,9.7695,9.7695,9.7695,9.7695,9.7422,9.6601,9.6484,9.6054,9.4922,9.4258,9.3789,9.3515,9.2969,9.2617,9.2617,9.2617,9.2617,9.2617,9.2617,9.2617,9.2617,9.2617,9.2617,9.2617,9.2344,9.2226,9.2187,9.1328,9.0781,9.0508,8.9883,8.914,8.8359,8.8359,8.8008,8.75,8.742,8.726,8.7059,8.7001,8.6867,8.6586,8.5972,8.5744,8.5674,8.5109,8.4724,8.449,8.4492,8.3904,8.3193,8.314,8.2681,8.2205,8.2125,8.2098,8.2044,8.1811,8.1724,8.1481,8.062,8.0425,8.0231,7.9646,7.9295,7.9139,7.9139,7.8711,7.836,7.836,7.8165,7.797,7.797,7.797,7.8087,7.8321,7.836,7.8477,7.8711,7.875,7.875,7.875,7.8984,7.949,8.0386,8.0425,8.0815,8.1675,8.1714,8.1834,8.2107,8.2107,8.2107,8.2107,8.2107,8.2107,8.2107,8.2107,8.2107,8.2107,8.2107,8.2107,8.2107,8.2107,8.2107,8.2107,8.2107,8.2107,8.2107,8.2107,8.2107,8.2107,9.7695,9.7695,9.7695,9.7695,9.7695,9.7695,9.7695,9.7695,9.7539,9.7031,9.6953,9.664,9.582,9.5234,9.4804,9.4453,9.3633,9.3125,9.3125,9.2773,9.2617,9.2617,9.2617,9.2617,9.2617,9.2617,9.2617,9.2617,9.2617,9.2617,9.2578,9.207,9.164,9.1289,9.0742,9.0039,8.9219,8.9219,8.8711,8.7969,8.7926,8.7725,8.7407,8.7412,8.739,8.7338,8.6755,8.6572,8.655,8.6031,8.5693,8.5349,8.5,8.4529,8.4087,8.4031,8.3408,8.2692,8.2613,8.2356,8.2107,8.2107,8.2107,8.1951,8.1442,8.1325,8.1169,8.0623,8.0231,7.9997,7.9997,7.9724,7.949,7.949,7.949,7.949,7.949,7.949,7.949,7.949,7.949,7.949,7.949,7.949,7.9646,7.9997,7.9997,8.0386,8.1286,8.1325,8.1558,8.2068,8.2107,8.2107,8.2107,8.2107,8.2107,8.2107,8.2107,8.2107,8.2107,8.2107,8.2107,8.2107,8.2107,8.2107,8.2107,8.2107,8.2107,8.2107,8.2107,8.2107,8.2107,8.2107,8.2107,8.2107,9.7695,9.7695,9.7695,9.7695,9.7695,9.7695,9.7695,9.7695,9.7695,9.7695,9.7695,9.7422,9.6679,9.6523,9.6172,9.539,9.4531,9.4023,9.4023,9.3203,9.2734,9.2734,9.2656,9.2617,9.2617,9.2617,9.2617,9.2617,9.2617,9.2617,9.2617,9.2617,9.2187,9.1406,9.1406,9.0937,9.0117,9.0117,8.9609,8.8828,8.8821,8.8347,8.764,8.7635,8.7571,8.7488,8.7424,8.7406,8.7399,8.7404,8.6928,8.6169,8.5351,8.5075,8.4983,8.492,8.4296,8.3584,8.3529,8.2925,8.2302,8.2224,8.2224,8.2185,8.2107,8.2107,8.2107,8.2107,8.1481,8.0932,8.0932,8.0269,7.9724,7.9724,7.9724,7.9724,7.9724,7.9724,7.9724,7.9724,7.9724,7.9724,7.9724,7.9724,8.0075,8.0854,8.0932,8.1247,8.2068,8.2107,8.2107,8.2107,8.2107,8.2107,8.2107,8.2107,8.2107,8.2107,8.2107,8.2107,8.2107,8.2107,8.2107,8.2107,8.2107,8.2107,8.2107,8.2107,8.2107,8.2107,8.2107,8.2107,8.2107,8.2107,8.2107,8.2107,9.7695,9.7695,9.7695,9.7695,9.7695,9.7695,9.7695,9.7695,9.7695,9.7695,9.7695,9.7617,9.7461,9.6875,9.6406,9.6211,9.5429,9.4922,9.4922,9.4101,9.3633,9.3633,9.2969,9.2617,9.2617,9.2617,9.2617,9.2617,9.2617,9.2617,9.2617,9.2617,9.25,9.2304,9.2304,9.1836,9.1015,9.1015,9.0508,8.9726,8.9719,8.9596,8.9435,8.9374,8.8911,8.8324,8.8334,8.7902,8.7338,8.7391,8.7279,8.7106,8.6911,8.64,8.5844,8.5831,8.5207,8.4488,8.4451,8.4269,8.3978,8.3276,8.312,8.2925,8.2263,8.2107,8.2107,8.2107,8.1951,8.1831,8.1831,8.1675,8.1523,8.1523,8.1523,8.1523,8.1523,8.1523,8.1523,8.1523,8.1523,8.1523,8.1523,8.1523,8.1601,8.1792,8.1831,8.1912,8.2107,8.2107,8.2107,8.2107,8.2107,8.2107,8.2107,8.2107,8.2107,8.2107,8.2107,8.2107,8.2107,8.2107,8.2107,8.2107,8.2107,8.2107,8.2107,8.2107,8.2107,8.2107,8.2107,8.2107,8.2107,8.2107,8.2107,8.2107,9.7695,9.7695,9.7695,9.7695,9.7695,9.7695,9.7695,9.7695,9.7695,9.7695,9.7695,9.7695,9.7695,9.7304,9.707,9.707,9.6289,9.582,9.582,9.4609,9.3906,9.3906,9.3086,9.2617,9.2617,9.2617,9.2617,9.2617,9.2617,9.2617,9.2617,9.2617,9.2617,9.2617,9.2617,9.2344,9.1914,9.1914,9.1406,9.0625,9.062,9.038,8.9982,8.9938,8.9625,8.9211,8.922,8.8662,8.7936,8.8012,8.7735,8.7404,8.7415,8.7102,8.6704,8.6733,8.6082,8.5416,8.5326,8.5025,8.4581,8.4137,8.4017,8.3666,8.238,8.2107,8.2107,8.2107,8.2107,8.2107,8.2107,8.2107,8.2107,8.2107,8.2107,8.2107,8.2107,8.2107,8.2107,8.2107,8.2107,8.2107,8.2107,8.2107,8.2107,8.2107,8.2107,8.2107,8.2107,8.2107,8.2107,8.2107,8.2107,8.2107,8.2107,8.2107,8.2107,8.2107,8.2107,8.2107,8.2107,8.2107,8.2107,8.2107,8.2107,8.2107,8.2107,8.2107,8.2107,8.2107,8.2107,8.2107,8.2107,8.2107,8.2116,8.2089,9.7695,9.7695,9.7695,9.7695,9.7695,9.7695,9.7695,9.7695,9.7695,9.7695,9.7695,9.7695,9.7695,9.7695,9.7695,9.7695,9.7109,9.6719,9.6719,9.5234,9.4297,9.414,9.3281,9.2734,9.2617,9.2617,9.2617,9.2617,9.2617,9.2617,9.2617,9.2617,9.2617,9.2617,9.2617,9.2617,9.2617,9.2617,9.2187,9.1523,9.1521,9.1086,9.0452,9.0389,9.0233,9.0108,9.0117,8.9559,8.8791,8.8858,8.8414,8.7804,8.7683,8.7607,8.7603,8.7439,8.6878,8.6304,8.6249,8.5713,8.5108,8.4964,8.4916,8.4484,8.2925,8.2419,8.2302,8.2302,8.2185,8.2107,8.2107,8.2107,8.2107,8.2107,8.2107,8.2107,8.2107,8.2107,8.2107,8.2107,8.2107,8.2107,8.2107,8.2107,8.2107,8.2107,8.2107,8.2107,8.2107,8.2107,8.2107,8.2107,8.2107,8.2185,8.2302,8.2302,8.2419,8.2536,8.2536,8.238,8.2107,8.2107,8.2107,8.2107,8.2107,8.2107,8.2107,8.2107,8.2107,8.2107,8.2107,8.2107,8.2107,8.2113,8.2095,8.212,9.7695,9.7695,9.7695,9.7695,9.7695,9.7695,9.7695,9.7695,9.7695,9.7695,9.7695,9.7695,9.7695,9.7695,9.7695,9.7695,9.7617,9.7539,9.7539,9.6679,9.582,9.5078,9.4179,9.3359,9.2617,9.2617,9.2617,9.2617,9.2617,9.2617,9.2617,9.2617,9.2617,9.2617,9.2617,9.2617,9.2617,9.2617,9.2539,9.2422,9.242,9.2337,9.225,9.2185,9.1677,9.1002,9.0972,9.0378,8.964,8.9652,8.9623,8.9439,8.8757,8.8533,8.8386,8.761,8.7321,8.7209,8.7202,8.708,8.6752,8.6008,8.5831,8.5572,8.4562,8.3783,8.3237,8.3237,8.2614,8.2107,8.2107,8.2107,8.2107,8.2107,8.2107,8.2107,8.2107,8.2107,8.2107,8.2107,8.2107,8.2107,8.2107,8.2107,8.2107,8.2107,8.2107,8.2107,8.2107,8.2107,8.2107,8.2107,8.2107,8.2458,8.3237,8.3237,8.3588,8.4367,8.4367,8.3549,8.2107,8.2107,8.2107,8.2107,8.2107,8.2107,8.2107,8.2107,8.2107,8.2107,8.2107,8.2107,8.211,8.2098,8.2125,8.2189,9.7695,9.7695,9.7695,9.7695,9.7695,9.7695,9.7695,9.7695,9.7695,9.7695,9.7695,9.7695,9.7695,9.7695,9.7695,9.7695,9.7695,9.7695,9.7695,9.6953,9.6094,9.5234,9.4375,9.3476,9.2617,9.2617,9.2617,9.2617,9.2617,9.2617,9.2617,9.2617,9.2617,9.2617,9.2617,9.2617,9.2617,9.2617,9.2617,9.2617,9.2617,9.2613,9.2602,9.2554,9.2284,9.1939,9.185,9.1282,9.0548,9.0528,9.0259,8.984,8.9528,8.9429,8.9362,8.8979,8.8858,8.8767,8.8273,8.8084,8.7809,8.6958,8.6689,8.6585,8.6196,8.5455,8.4715,8.425,8.3822,8.3393,8.2925,8.2848,8.2653,8.2185,8.2107,8.2107,8.2107,8.2107,8.2107,8.2107,8.2107,8.2107,8.2107,8.2107,8.2107,8.2107,8.2107,8.2107,8.2107,8.2575,8.2848,8.2848,8.3315,8.3744,8.4134,8.4134,8.4328,8.4715,8.4715,8.4289,8.3549,8.3549,8.3276,8.2848,8.2848,8.2536,8.2107,8.2107,8.2116,8.2095,8.2095,8.2104,8.2162,8.2148,8.2173,8.2193]}]]